Date StartTime U_cm/s V_cm/s W_cm/s Ustd_cm/s Vstd_cm/s Wstd_cm/s Uvar_(cm/s)^2 Vvar_(cm/s)^2 Wvar_(cm/s)^2 KE_(m/s)^2 TurbulentKE_(m/s)^2 HorizWindSpeed_cm/s FrictionSpeec_cm/s DragCoef SpeedOfSound_m/s SonicTemperature_C Pressure_mb 
07/31/2014  00:00:00      -65.041      -46.955        0.983       36.146       31.228       19.471     1306.518      975.194      379.107        0.455        0.133       80.219       13.131        0.027      344.825       21.918      866.053
07/31/2014  00:01:00      -54.433      -58.217        4.870       44.224       41.127       24.486     1955.723     1691.430      599.545        0.531        0.212       79.700       21.183        0.071      344.819       21.908      866.044
07/31/2014  00:02:00      -75.745      -69.709        3.798       54.673       45.008       23.974     2989.143     2025.745      574.743        0.810        0.279      102.940       27.154        0.070      344.857       21.972      866.039
07/31/2014  00:03:00      -97.535      -62.159        5.945       41.737       38.131       21.650     1742.010     1453.935      468.733        0.854        0.183      115.658       23.269        0.040      344.853       21.967      866.028
07/31/2014  00:04:00     -109.446      -55.202        3.146       51.698       28.437       28.258     2672.668      808.675      798.518        0.966        0.214      122.579       29.008        0.056      344.856       21.972      866.018
07/31/2014  00:05:00     -108.041      -61.748        3.754       34.529       32.869       20.156     1192.226     1080.359      406.281        0.909        0.134      124.442       17.553        0.020      344.818       21.906      866.015
07/31/2014  00:06:00      -67.453      -65.875       -1.288       38.750       34.217       21.704     1501.595     1170.782      471.068        0.602        0.157       94.284       20.776        0.049      344.790       21.857      866.012
07/31/2014  00:07:00     -101.226      -77.471       -5.137       43.806       46.390       21.768     1918.975     2152.049      473.828        1.041        0.227      127.469       25.949        0.041      344.810       21.893      866.004
07/31/2014  00:08:00     -109.752      -91.798       -6.000       35.483       45.066       24.744     1259.071     2030.971      612.255        1.220        0.195      143.082       21.680        0.023      344.833       21.933      865.989
07/31/2014  00:09:00     -106.327     -126.776       -1.961       39.405       58.833       29.204     1552.732     3461.270      852.856        1.662        0.293      165.462       26.834        0.026      344.786       21.850      865.978
07/31/2014  00:10:00     -127.259      -74.798       -6.553       51.046       39.643       30.603     2605.682     1571.568      936.549        1.347        0.256      147.614       24.586        0.028      344.731       21.756      865.972
07/31/2014  00:11:00      -99.211     -101.219      -10.188       44.411       32.080       28.788     1972.327     1029.147      828.769        1.201        0.192      141.733       23.958        0.029      344.765       21.817      865.970
07/31/2014  00:12:00      -65.494      -58.787       -3.369       45.742       45.290       27.777     2092.370     2051.175      771.549        0.633        0.246       88.008       26.484        0.091      344.707       21.717      865.979
07/31/2014  00:13:00      -70.895     -118.320       -1.946       45.005       44.877       29.425     2025.453     2013.963      865.820        1.197        0.245      137.934       22.742        0.027      344.654       21.624      865.987
07/31/2014  00:14:00     -106.257     -100.833       -3.460       44.210       53.237       24.811     1954.553     2834.170      615.562        1.344        0.270      146.485       21.997        0.023      344.625       21.578      865.982
07/31/2014  00:15:00     -117.587      -91.728        0.713       46.102       44.226       29.055     2125.387     1955.925      844.202        1.358        0.246      149.133       22.031        0.022      344.602       21.536      865.994
07/31/2014  00:16:00      -70.350      -76.942       -5.397       50.306       54.867       26.852     2530.712     3010.367      721.020        0.858        0.313      104.256       28.921        0.077      344.628       21.581      866.010
07/31/2014  00:17:00      -40.717      -72.416       -1.085       33.858       33.905       22.926     1146.350     1149.525      525.599        0.486        0.141       83.078       14.168        0.029      344.699       21.704      866.039
07/31/2014  00:18:00        5.907      -32.055       16.805       30.135       37.273       20.811      908.089     1389.264      433.105        0.204        0.137       32.595       21.937        0.453      344.715       21.730      866.048
07/31/2014  00:19:00      -27.941      -43.192       -9.238       28.912       33.018       16.206      835.914     1090.190      262.619        0.246        0.109       51.441       15.251        0.088      344.683       21.677      866.053
07/31/2014  00:20:00      -19.167      -14.272        1.202       31.026       16.133       15.017      962.593      260.258      225.509        0.101        0.072       23.897       10.262        0.184      344.631       21.586      866.053
07/31/2014  00:21:00      -83.102     -122.365       -2.905       41.284       42.388       28.034     1704.382     1796.729      785.883        1.309        0.214      147.916       24.439        0.027      344.547       21.446      866.037
07/31/2014  00:22:00     -104.202     -122.287       -8.491       40.314       37.659       21.887     1625.200     1418.188      479.021        1.470        0.176      160.662       16.899        0.011      344.534       21.420      866.028
07/31/2014  00:23:00      -69.451      -64.992        0.834       34.814       37.186       19.915     1212.014     1382.794      396.598        0.602        0.150       95.118       12.307        0.017      344.500       21.362      866.034
07/31/2014  00:24:00      -88.331      -90.932       -0.132       41.020       44.680       18.323     1682.629     1996.277      335.740        1.004        0.201      126.771       22.166        0.031      344.512       21.384      866.030
07/31/2014  00:25:00      -78.519      -89.687       -3.699       25.393       37.841       22.222      644.828     1431.973      493.809        0.840        0.129      119.201       18.110        0.023      344.518       21.395      866.024
07/31/2014  00:26:00      -48.404      -62.152        5.858       43.656       37.431       21.133     1905.837     1401.109      446.618        0.500        0.188       78.778       21.612        0.075      344.572       21.488      866.018
07/31/2014  00:27:00      -58.515      -71.730       -3.698       44.269       39.566       21.971     1959.717     1565.445      482.707        0.629        0.200       92.570       22.901        0.061      344.506       21.373      866.016
07/31/2014  00:28:00      -42.883      -70.443       -2.039       42.844       40.534       25.263     1835.581     1643.018      638.237        0.546        0.206       82.469       25.588        0.096      344.581       21.502      866.020
07/31/2014  00:29:00      -23.166      -73.038        4.065       19.803       34.295       13.761      392.151     1176.157      189.365        0.382        0.088       76.624        8.999        0.014      344.536       21.425      866.044
07/31/2014  00:30:00      -35.576      -52.873       16.271       31.172       27.501       20.025      971.687      756.284      401.015        0.323        0.106       63.727       19.446        0.093      344.524       21.407      866.042
07/31/2014  00:31:00      -45.604      -79.436        3.395       28.549       33.359       17.573      815.052     1112.810      308.826        0.532        0.112       91.596       10.676        0.014      344.547       21.444      866.043
07/31/2014  00:32:00      -53.514      -91.128       -6.676       36.995       34.782       18.974     1368.627     1209.768      360.030        0.707        0.147      105.679       10.729        0.010      344.543       21.438      866.036
07/31/2014  00:33:00      -59.853      -28.998        7.569       37.110       39.624       20.447     1377.156     1570.071      418.062        0.392        0.168       66.508       20.342        0.094      344.539       21.430      866.038
07/31/2014  00:34:00        2.300      -26.898        6.561       10.182       21.092       12.237      103.667      444.884      149.733        0.073        0.035       26.996       10.597        0.154      344.523       21.404      866.042
07/31/2014  00:35:00       -1.809      -43.080        1.736       17.418       15.248       13.385      303.375      232.504      179.163        0.129        0.036       43.118        8.504        0.039      344.569       21.480      866.048
07/31/2014  00:36:00      -85.634      -68.725       -9.117       34.433       31.768       19.468     1185.631     1009.216      379.003        0.736        0.129      109.801       13.574        0.015      344.493       21.351      866.045
07/31/2014  00:37:00     -106.264      -45.574        0.486       44.350       46.238       26.238     1966.956     2137.928      688.429        0.908        0.240      115.624       26.371        0.052      344.433       21.249      866.029
07/31/2014  00:38:00      -87.411      -36.485        0.687       50.964       37.886       18.370     2597.286     1435.312      337.440        0.667        0.219       94.720       14.516        0.023      344.426       21.237      866.033
07/31/2014  00:39:00      -18.391      -32.307       11.519       25.935       37.781       19.139      672.616     1427.412      366.318        0.199        0.123       37.175       14.622        0.155      344.467       21.304      866.038
07/31/2014  00:40:00      -53.765      -66.522        3.294       40.491       45.224       19.260     1639.539     2045.245      370.957        0.569        0.203       85.533       21.815        0.065      344.472       21.315      866.038
07/31/2014  00:41:00      -65.690      -73.711        5.473       44.948       36.074       25.029     2020.335     1301.301      626.467        0.686        0.197       98.735       27.508        0.078      344.463       21.300      866.045
07/31/2014  00:42:00      -85.851      -97.185       -7.179       38.941       27.666       22.726     1516.428      765.380      516.483        0.983        0.140      129.674       22.332        0.030      344.450       21.278      866.043
07/31/2014  00:43:00      -76.895      -57.920        1.112       33.403       29.964       16.630     1115.793      897.844      276.560        0.578        0.115       96.268       16.293        0.029      344.432       21.247      866.031
07/31/2014  00:44:00      -70.658      -69.309        2.353       35.527       40.872       20.635     1262.188     1670.494      425.819        0.658        0.168       98.976       19.519        0.039      344.406       21.200      866.021
07/31/2014  00:45:00      -96.416      -82.850       -4.055       31.741       34.910       18.447     1007.495     1218.731      340.275        0.937        0.128      127.122       17.802        0.020      344.409       21.205      865.999
07/31/2014  00:46:00      -88.068      -26.169        0.299       29.253       41.177       17.637      855.716     1695.545      311.047        0.565        0.143       91.874       18.638        0.041      344.381       21.160      865.981
07/31/2014  00:47:00      -86.889       -6.131        5.835       42.537       37.228       24.825     1809.399     1385.939      616.259        0.572        0.191       87.105       23.195        0.071      344.360       21.123      865.965
07/31/2014  00:48:00     -123.125      -48.229       -7.177       30.350       27.659       17.041      921.124      765.001      290.412        0.976        0.099      132.234       15.586        0.014      344.356       21.116      865.950
07/31/2014  00:49:00      -76.761       -7.008        0.386       40.876       35.376       17.871     1670.837     1251.492      319.374        0.459        0.162       77.080       22.981        0.089      344.276       20.981      865.932
07/31/2014  00:50:00      -48.108       -9.160        3.723       36.675       28.360       22.223     1345.068      804.318      493.883        0.253        0.132       48.972       19.555        0.159      344.210       20.868      865.928
07/31/2014  00:51:00      -88.037      -38.694        0.105       25.662       27.441       16.704      658.524      753.030      279.037        0.547        0.085       96.165       15.219        0.025      344.271       20.971      865.931
07/31/2014  00:52:00      -70.960      -26.215        0.715       23.431       25.523       15.548      549.011      651.410      241.747        0.358        0.072       75.647       11.122        0.022      344.259       20.951      865.923
07/31/2014  00:53:00      -92.914        0.820       -2.658       28.525       24.303       20.052      813.665      590.624      402.068        0.522        0.090       92.918       17.266        0.035      344.214       20.873      865.917
07/31/2014  00:54:00      -71.826        6.104       -4.204       41.645       34.594       25.004     1734.317     1196.735      625.186        0.438        0.178       72.085       24.890        0.119      344.105       20.688      865.905
07/31/2014  00:55:00      -95.122        5.080       -6.511       32.798       31.482       20.011     1075.689      991.121      400.438        0.579        0.123       95.258       17.286        0.033      344.046       20.587      865.899
07/31/2014  00:56:00      -88.836        7.320       -5.443       37.736       28.093       18.140     1423.989      789.242      329.066        0.526        0.127       89.137       18.347        0.042      344.028       20.555      865.910
07/31/2014  00:57:00     -113.541        8.829       -6.503       33.566       25.405       19.521     1126.651      645.402      381.061        0.758        0.108      113.884       16.239        0.020      344.008       20.522      865.912
07/31/2014  00:58:00      -89.383      -18.035       -5.031       26.957       20.974       13.394      726.675      439.897      179.397        0.484        0.067       91.185       11.905        0.017      344.028       20.557      865.909
07/31/2014  00:59:00     -105.984      -14.054        1.039       31.704       22.699       20.121     1005.149      515.228      404.840        0.668        0.096      106.912       18.275        0.029      344.045       20.584      865.904
07/31/2014  01:00:00      -96.638      -24.191        0.284       32.565       34.497       16.990     1060.504     1190.018      288.674        0.623        0.127       99.620       17.272        0.030      344.082       20.649      865.905
07/31/2014  01:01:00      -63.381      -29.354        9.689       36.372       24.593       21.390     1322.910      604.825      457.540        0.368        0.119       69.849       19.214        0.076      344.047       20.588      865.912
07/31/2014  01:02:00     -104.262      -51.824       -1.797       51.944       18.763       16.000     2698.230      352.053      256.014        0.843        0.165      116.431       21.497        0.034      344.090       20.662      865.921
07/31/2014  01:03:00      -74.520      -57.767        4.875       43.789       33.089       20.285     1917.517     1094.883      411.485        0.617        0.171       94.288       20.692        0.048      344.070       20.629      865.919
07/31/2014  01:04:00      -82.091      -45.509        3.572       37.958       31.443       19.898     1440.791      988.637      395.935        0.582        0.141       93.861       17.245        0.034      344.083       20.650      865.927
07/31/2014  01:05:00      -93.282      -48.586       -2.618       31.249       24.899       14.545      976.504      619.938      211.554        0.644        0.090      105.177        8.690        0.007      344.092       20.664      865.917
07/31/2014  01:06:00      -70.373      -20.240        0.423       17.359       17.696       10.999      301.330      313.145      120.970        0.305        0.037       73.226       10.865        0.022      344.054       20.601      865.925
07/31/2014  01:07:00      -53.130      -16.733       -2.851       19.265       21.788       12.126      371.136      474.716      147.051        0.205        0.050       55.703        6.845        0.015      344.103       20.686      865.934
07/31/2014  01:08:00      -41.829      -24.533       -0.219       18.846       12.938       11.535      355.169      167.397      133.064        0.150        0.033       48.493       10.554        0.047      344.077       20.641      865.938
07/31/2014  01:09:00      -37.152      -26.725       -1.474       23.725       14.897       10.149      562.888      221.925      102.993        0.149        0.044       45.766       12.329        0.073      344.169       20.796      865.935
07/31/2014  01:10:00      -53.234      -12.507       -6.414       15.868       17.213       10.051      251.781      296.301      101.032        0.184        0.032       54.683        8.571        0.025      344.197       20.846      865.933
07/31/2014  01:11:00      -82.618      -26.146       -8.167        9.546       12.935        8.892       91.126      167.323       79.068        0.396        0.017       86.657        6.534        0.006      344.143       20.755      865.923
07/31/2014  01:12:00      -94.837      -32.912      -10.462       14.846       19.401        9.776      220.392      376.400       95.580        0.544        0.035      100.386        9.905        0.010      344.086       20.655      865.918
07/31/2014  01:13:00      -96.647      -35.532       -9.119       17.400       16.240       13.456      302.770      263.745      181.052        0.572        0.037      102.972        9.698        0.009      344.006       20.518      865.913
07/31/2014  01:14:00      -91.082      -53.397       -2.605       29.565       16.198       13.278      874.072      262.368      176.297        0.623        0.066      105.580       13.060        0.015      343.954       20.430      865.905
07/31/2014  01:15:00      -58.848      -42.853        0.592       40.292       18.241       15.320     1623.453      332.741      234.700        0.374        0.110       72.797       19.013        0.068      343.970       20.456      865.890
07/31/2014  01:16:00      -61.139      -45.874       -1.854       30.273       17.452       15.454      916.474      304.587      238.828        0.365        0.073       76.436       13.957        0.033      344.023       20.546      865.889
07/31/2014  01:17:00      -42.370      -46.032        0.963       29.401       22.038       15.010      864.404      485.654      225.309        0.274        0.079       62.563       16.322        0.068      344.053       20.598      865.893
07/31/2014  01:18:00      -38.397      -70.990        3.114       16.319       16.957       12.874      266.299      287.527      165.735        0.362        0.036       80.709       11.755        0.021      344.121       20.713      865.887
07/31/2014  01:19:00      -28.836      -79.416       -3.723       13.139       17.548       10.311      172.627      307.934      106.315        0.387        0.029       84.489       10.036        0.014      344.155       20.773      865.890
07/31/2014  01:20:00      -36.722      -39.219        1.201       35.299       19.114       15.046     1246.041      365.327      226.394        0.236        0.092       53.728       15.695        0.085      344.170       20.799      865.883
07/31/2014  01:21:00      -40.662      -24.648        6.828       50.825       22.175       18.115     2583.151      491.739      328.161        0.285        0.170       47.549       17.161        0.130      344.092       20.665      865.884
07/31/2014  01:22:00      -36.677      -24.299        6.944       29.226       32.260       21.845      854.182     1040.700      477.198        0.218        0.119       43.996       18.753        0.182      344.085       20.655      865.887
07/31/2014  01:23:00      -36.461      -28.084        1.921       27.367       24.156       17.243      748.928      583.499      297.317        0.188        0.081       46.023       12.870        0.078      344.077       20.641      865.886
07/31/2014  01:24:00      -20.355      -37.205       -2.014       31.069       19.023       15.978      965.268      361.885      255.285        0.169        0.079       42.409        4.845        0.013      344.154       20.770      865.889
07/31/2014  01:25:00      -24.170      -65.479       -8.978       41.241       16.193       11.617     1700.828      262.203      134.950        0.352        0.105       69.797        5.220        0.006      344.209       20.866      865.905
07/31/2014  01:26:00       -6.651      -57.879        7.033       25.892       28.476       22.547      670.395      810.868      508.359        0.272        0.099       58.259       17.603        0.091      344.194       20.840      865.907
07/31/2014  01:27:00      -15.040      -50.533      -10.292       25.587       28.962       13.180      654.674      838.819      173.701        0.228        0.083       52.724       10.460        0.039      344.241       20.921      865.920
07/31/2014  01:28:00      -27.223      -25.116        2.794       27.948       19.771       13.923      781.107      390.912      193.859        0.137        0.068       37.039       13.005        0.123      344.177       20.810      865.921
07/31/2014  01:29:00      -49.956      -24.911       -1.455       22.667       23.621       14.727      513.770      557.947      216.881        0.220        0.064       55.822       14.801        0.070      344.169       20.797      865.917
07/31/2014  01:30:00      -18.665      -39.740        4.083       28.073       16.988       12.506      788.099      288.590      156.403        0.159        0.062       43.905        8.018        0.033      344.157       20.777      865.913
07/31/2014  01:31:00      -30.608      -33.918       -2.511       27.056       26.612       17.553      732.010      708.209      308.115        0.192        0.087       45.687       11.815        0.067      344.153       20.769      865.910
07/31/2014  01:32:00      -60.638      -20.850        1.912       45.198       27.065       15.855     2042.814      732.524      251.371        0.357        0.151       64.123       16.143        0.063      344.164       20.789      865.905
07/31/2014  01:33:00      -87.877      -54.813       -2.818       27.178       20.456       17.731      738.621      418.451      314.374        0.610        0.074      103.570       16.197        0.024      344.111       20.698      865.908
07/31/2014  01:34:00      -80.043      -28.309       -3.476       21.888       13.987       12.605      479.082      195.624      158.876        0.403        0.042       84.901       10.119        0.014      344.125       20.721      865.900
07/31/2014  01:35:00      -71.467      -27.315       -8.781        8.407       13.607        8.329       70.675      185.141       69.379        0.313        0.016       76.509        5.962        0.006      344.119       20.710      865.891
07/31/2014  01:36:00      -76.493      -11.397       -4.730       13.140       16.355        9.438      172.671      267.483       89.067        0.327        0.026       77.337        5.639        0.005      344.066       20.620      865.892
07/31/2014  01:37:00      -67.531       -8.042        1.171       23.541       17.441       12.137      554.173      304.193      147.306        0.282        0.050       68.009       11.196        0.027      344.048       20.590      865.891
07/31/2014  01:38:00      -92.490      -22.437       -3.941       19.831       18.097       13.147      393.281      327.484      172.836        0.498        0.045       95.173       10.851        0.013      344.032       20.564      865.890
07/31/2014  01:39:00      -88.494      -11.422       -6.396       27.387       19.399       17.203      750.031      376.309      295.941        0.471        0.071       89.228       16.093        0.033      343.952       20.425      865.889
07/31/2014  01:40:00      -73.877      -23.504        2.570       28.535       20.773       17.281      814.230      431.533      298.646        0.378        0.077       77.526       18.071        0.054      343.919       20.370      865.889
07/31/2014  01:41:00      -95.394      -20.915        2.121       28.845       21.356       16.687      832.019      456.069      278.452        0.555        0.078       97.660       13.158        0.018      343.815       20.191      865.889
07/31/2014  01:42:00      -81.314       -9.468       -2.087       41.422       28.657       20.530     1715.749      821.231      421.475        0.483        0.148       81.864       23.135        0.080      343.760       20.098      865.894
07/31/2014  01:43:00     -105.758      -34.650       -2.169       31.463       29.297       19.276      989.936      858.294      371.550        0.730        0.111      111.290       17.306        0.024      343.793       20.155      865.887
07/31/2014  01:44:00     -110.465      -43.190       -0.293       44.218       36.172       21.627     1955.262     1308.388      467.735        0.890        0.187      118.608       21.059        0.032      343.855       20.259      865.886
07/31/2014  01:45:00      -92.904       -5.090        5.092       49.088       36.051       26.566     2409.655     1299.673      705.738        0.655        0.221       93.044       25.674        0.076      343.829       20.216      865.870
07/31/2014  01:46:00      -88.165      -33.726        7.984       72.593       38.282       26.201     5269.813     1465.487      686.497        0.820        0.371       94.396       29.129        0.095      343.791       20.151      865.860
07/31/2014  01:47:00     -151.740      -33.143       10.715       53.350       43.124       26.927     2846.268     1859.650      725.064        1.483        0.272      155.317       29.587        0.036      343.785       20.141      865.841
07/31/2014  01:48:00     -167.711      -73.534        5.786       68.692       52.606       29.333     4718.636     2767.427      860.420        2.096        0.417      183.123       30.495        0.028      343.816       20.193      865.833
07/31/2014  01:49:00     -161.397      -87.490        1.839       54.076       57.827       33.497     2924.240     3343.939     1122.017        2.055        0.370      183.585       34.194        0.035      343.841       20.236      865.818
07/31/2014  01:50:00     -195.830      -60.125       -3.259       77.911       50.417       34.587     6070.058     2541.916     1196.280        2.589        0.490      204.852       37.598        0.034      343.800       20.163      865.801
07/31/2014  01:51:00     -146.058      -28.833       10.256       78.143       49.985       37.930     6106.336     2498.524     1438.708        1.615        0.502      148.877       44.739        0.090      343.792       20.153      865.788
07/31/2014  01:52:00     -173.320      -40.855        5.411       63.893       48.719       34.592     4082.369     2373.498     1196.577        1.969        0.383      178.070       37.102        0.043      343.810       20.183      865.786
07/31/2014  01:53:00     -139.230      -62.477        0.285       75.853       45.289       29.241     5753.709     2051.066      855.055        1.597        0.433      152.605       36.459        0.057      343.779       20.130      865.785
07/31/2014  01:54:00     -114.118      -30.916       -4.042       44.293       41.489       22.752     1961.889     1721.335      517.660        0.910        0.210      118.231       17.578        0.022      343.816       20.195      865.786
07/31/2014  01:55:00      -71.190      -10.087       -0.940       37.818       33.377       25.929     1430.192     1114.044      672.322        0.419        0.161       71.901       24.319        0.114      343.839       20.234      865.795
07/31/2014  01:56:00        1.106      -27.915        3.179       15.510       12.208       12.813      240.552      149.033      164.165        0.067        0.028       27.937        9.843        0.124      343.869       20.283      865.809
07/31/2014  01:57:00        0.798        9.606        9.501       14.741       12.835       10.206      217.300      164.744      104.155        0.033        0.024        9.639        8.356        0.752      343.921       20.373      865.823
07/31/2014  01:58:00       10.151        4.979        4.281       10.737       18.701       12.549      115.290      349.733      157.469        0.038        0.031       11.306        9.431        0.696      343.959       20.438      865.833
07/31/2014  01:59:00       29.943       10.902        7.869        9.532       16.110       13.624       90.851      259.542      185.609        0.081        0.027       31.866       12.260        0.148      343.942       20.410      865.833
07/31/2014  02:00:00       51.386       42.832       -6.998       23.487       14.635       19.754      551.651      214.193      390.203        0.284        0.058       66.896       15.629        0.055      343.926       20.379      865.829
07/31/2014  02:01:00       71.408       26.289       -7.191       27.319       26.919       17.096      746.309      724.655      292.264        0.380        0.088       76.094        6.618        0.008      343.936       20.399      865.824
07/31/2014  02:02:00       60.525       44.012       -8.617       19.939       13.566       16.669      397.572      184.038      277.844        0.327        0.043       74.835        9.078        0.015      343.881       20.306      865.823
07/31/2014  02:03:00       24.937       29.087        4.451       24.432       14.564       14.575      596.929      212.111      212.433        0.125        0.051       38.313       13.064        0.116      343.844       20.240      865.819
07/31/2014  02:04:00      -18.583      -37.121        6.180       10.207       14.321       12.986      104.175      205.097      168.641        0.112        0.024       41.513        9.449        0.052      344.071       20.630      865.798
07/31/2014  02:05:00       -1.404      -27.162      -10.947       14.068       16.919        8.837      197.915      286.263       78.093        0.071        0.028       27.198        6.536        0.058      344.104       20.686      865.782
07/31/2014  02:06:00      -24.287      -22.615        3.907       31.233       13.562       10.864      975.521      183.923      118.036        0.120        0.064       33.186        4.667        0.020      344.100       20.680      865.772
07/31/2014  02:07:00      -14.314      -23.487       12.945       33.112       24.935       19.639     1096.394      621.754      385.675        0.151        0.105       27.506       20.582        0.560      344.047       20.591      865.759
07/31/2014  02:08:00      -37.238      -30.630        1.550       15.107       22.328       11.268      228.226      498.555      126.965        0.159        0.043       48.216       12.065        0.063      344.014       20.535      865.758
07/31/2014  02:09:00      -19.522       11.400        1.379       15.999       15.019       15.581      255.968      225.565      242.759        0.062        0.036       22.607       10.712        0.225      344.084       20.653      865.765
07/31/2014  02:10:00        6.618        7.977       11.992       14.360        9.821       14.734      206.217       96.444      217.095        0.039        0.026       10.365        8.113        0.613      344.061       20.614      865.783
07/31/2014  02:11:00       -6.525       -4.410        4.926        5.319        5.183        6.886       28.289       26.866       47.421        0.009        0.005        7.875        2.125        0.073      344.009       20.524      865.788
07/31/2014  02:12:00      -10.522        7.299        2.806        4.908        6.568        5.151       24.086       43.140       26.533        0.013        0.005       12.806        2.262        0.031      343.979       20.476      865.788
07/31/2014  02:13:00       -6.000       15.162        2.547        5.279        4.159        3.889       27.866       17.296       15.122        0.017        0.003       16.306        0.314        0.000      344.052       20.598      865.794
07/31/2014  02:14:00      -21.069        7.831       -1.651        6.574        8.641        3.921       43.219       74.663       15.375        0.032        0.007       22.477        3.828        0.029      344.056       20.599      865.783
07/31/2014  02:15:00      -49.816      -19.550       -4.847       10.657       11.778        5.746      113.579      138.710       33.018        0.159        0.014       53.514        5.811        0.012      344.051       20.595      865.771
07/31/2014  02:16:00      -26.445       -5.607        2.096       20.468       10.745        8.860      418.939      115.450       78.499        0.067        0.031       27.033        8.344        0.095      344.021       20.545      865.759
07/31/2014  02:17:00      -37.972        8.632       -5.184       13.270       14.777        6.573      176.081      218.349       43.199        0.099        0.022       38.941        4.007        0.011      343.984       20.480      865.751
07/31/2014  02:18:00      -47.030       17.648       -7.545        7.741        6.881        4.911       59.926       47.354       24.118        0.136        0.007       50.232        3.039        0.004      344.015       20.533      865.751
07/31/2014  02:19:00      -26.207       -3.013       -3.128        3.739        5.877        4.188       13.982       34.533       17.538        0.039        0.003       26.380        4.557        0.030      344.062       20.615      865.745
07/31/2014  02:20:00      -16.926        0.836        1.908        9.547       10.238        8.038       91.154      104.821       64.605        0.028        0.013       16.947        5.273        0.097      344.101       20.681      865.734
07/31/2014  02:21:00       14.379        6.200       12.913       21.813       12.601        8.208      475.796      158.796       67.370        0.056        0.035       15.658        5.678        0.131      344.174       20.806      865.727
07/31/2014  02:22:00       32.897       23.718       14.996       13.423       11.210       10.245      180.174      125.658      104.960        0.114        0.021       40.555        6.270        0.024      344.162       20.782      865.717
07/31/2014  02:23:00       -8.144      -21.792        2.934       22.176       29.265       10.883      491.779      856.467      118.442        0.101        0.073       23.264       13.126        0.318      344.183       20.820      865.703
07/31/2014  02:24:00        6.144      -51.070      -11.859       15.883       16.487        7.900      252.268      271.809       62.402        0.169        0.029       51.438        7.365        0.020      344.297       21.016      865.683
07/31/2014  02:25:00      -29.483       -6.117        8.732       34.968       27.020       14.307     1222.791      730.100      204.683        0.157        0.108       30.111       17.813        0.350      344.210       20.867      865.666
07/31/2014  02:26:00       -8.338      -11.097        8.885       23.162       16.823       13.294      536.479      282.997      176.736        0.063        0.050       13.880        9.272        0.446      344.209       20.866      865.661
07/31/2014  02:27:00       22.491      -45.317       -3.857       21.574       20.404       16.278      465.436      416.305      264.968        0.186        0.057       50.591        7.202        0.020      344.294       21.012      865.665
07/31/2014  02:28:00       -3.515      -30.341        9.160       16.115       20.718       14.605      259.692      429.222      213.296        0.096        0.045       30.544       12.695        0.173      344.313       21.043      865.670
07/31/2014  02:29:00       21.391      -28.237        4.416       31.994       36.707       29.581     1023.586     1347.384      875.034        0.226        0.162       35.425       28.477        0.646      344.271       20.971      865.677
07/31/2014  02:30:00       60.355      -91.022      -10.945       26.276       19.110       13.829      690.453      365.201      191.230        0.665        0.062      109.214       14.603        0.018      344.268       20.965      865.687
07/31/2014  02:31:00       41.346      -50.236      -12.345       32.953       40.900       23.595     1085.888     1672.805      556.722        0.385        0.166       65.063       21.850        0.113      344.290       21.006      865.696
07/31/2014  02:32:00       41.237      -67.581        5.868       24.326       32.863       15.956      591.747     1079.957      254.601        0.411        0.096       79.169       16.029        0.041      344.346       21.100      865.704
07/31/2014  02:33:00       47.798      -33.748        0.001       18.318       18.005       12.058      335.559      324.197      145.390        0.211        0.040       58.511        8.768        0.022      344.253       20.942      865.699
07/31/2014  02:34:00       28.736      -48.411       -6.637       10.385       17.394       10.545      107.854      302.540      111.191        0.187        0.026       56.297        8.270        0.022      344.350       21.108      865.697
07/31/2014  02:35:00       -5.476      -31.446       -0.526       20.793       16.721        8.218      432.368      279.590       67.539        0.090        0.039       31.919        7.828        0.060      344.338       21.088      865.692
07/31/2014  02:36:00       -9.591       12.730        7.643       15.261       19.862        9.821      232.898      394.516       96.443        0.052        0.036       15.938        6.895        0.187      344.291       21.007      865.682
07/31/2014  02:37:00      -30.236       28.002       -1.970       10.742       13.593        7.028      115.398      184.767       49.386        0.103        0.017       41.211        4.019        0.010      344.312       21.041      865.665
07/31/2014  02:38:00      -29.187       11.103       -4.314        9.461       11.631        7.726       89.514      135.280       59.689        0.064        0.014       31.227        3.103        0.010      344.334       21.078      865.644
07/31/2014  02:39:00      -45.838       -1.329       -4.729        8.085        5.899        5.698       65.371       34.800       32.466        0.113        0.007       45.857        5.033        0.012      344.294       21.013      865.622
07/31/2014  02:40:00      -31.415       -1.874       -3.539       11.509        6.537        5.385      132.458       42.739       28.995        0.060        0.010       31.471        5.068        0.026      344.330       21.072      865.615
07/31/2014  02:41:00      -15.819        4.544       -1.677       14.858       11.274        7.081      220.756      127.104       50.135        0.034        0.020       16.459        7.515        0.208      344.358       21.119      865.613
07/31/2014  02:42:00       27.783       21.797        9.363       13.550       10.088       10.245      183.611      101.767      104.958        0.086        0.020       35.313        5.916        0.028      344.428       21.238      865.627
07/31/2014  02:43:00       37.111       31.483       30.617       14.246       13.149       11.282      202.952      172.907      127.283        0.190        0.025       48.666        6.151        0.016      344.356       21.116      865.651
07/31/2014  02:44:00       24.509       22.849       24.132       16.610       13.542       16.811      275.893      183.392      282.593        0.122        0.037       33.508        7.636        0.052      344.387       21.169      865.675
07/31/2014  02:45:00       -1.491       19.203       36.933       13.335       16.296       11.272      177.820      265.549      127.053        0.115        0.029       19.260        9.200        0.228      344.428       21.238      865.705
07/31/2014  02:46:00       -0.708       -0.070       23.373        8.147       10.629        9.359       66.377      112.976       87.590        0.041        0.013        0.712        4.773       44.963      344.423       21.233      865.725
07/31/2014  02:47:00        0.628       -3.735       16.001        9.777       13.601       12.795       95.595      184.985      163.713        0.036        0.022        3.787        7.742        4.180      344.427       21.237      865.726
07/31/2014  02:48:00        0.233      -42.209      -13.297       19.555       15.104       11.660      382.387      228.122      135.957        0.135        0.037       42.209        4.783        0.013      344.416       21.217      865.722
07/31/2014  02:49:00      -15.458      -22.774       -8.909        9.591        9.111        8.189       91.991       83.017       67.056        0.054        0.012       27.525        4.992        0.033      344.334       21.078      865.708
07/31/2014  02:50:00      -32.788      -14.151       -7.204        9.811        9.226        6.187       96.254       85.110       38.275        0.077        0.011       35.711        5.227        0.021      344.257       20.947      865.696
07/31/2014  02:51:00      -59.922      -12.714       -1.813       17.582       16.348       11.502      309.110      267.255      132.287        0.223        0.035       61.256        6.069        0.010      344.237       20.913      865.683
07/31/2014  02:52:00      -66.392      -22.348       -2.949       17.817       14.516        8.714      317.438      210.709       75.929        0.276        0.030       70.052        6.064        0.007      344.171       20.801      865.669
07/31/2014  02:53:00      -66.981      -41.418       -3.020       16.517       10.617       11.370      272.823      112.713      129.274        0.336        0.026       78.752        6.987        0.008      344.190       20.832      865.656
07/31/2014  02:54:00      -64.539      -29.252       -1.328       21.148       21.789       10.161      447.226      474.748      103.255        0.302        0.051       70.858        7.899        0.012      344.146       20.759      865.647
07/31/2014  02:55:00      -62.433       -3.628        1.193       20.356       20.488       11.229      414.386      419.744      126.079        0.244        0.048       62.539       11.844        0.036      344.113       20.702      865.632
07/31/2014  02:56:00      -76.282      -14.585       -4.137       19.397       18.720       12.651      376.248      350.432      160.057        0.347        0.044       77.664       11.012        0.020      344.162       20.786      865.624
07/31/2014  02:57:00      -79.481      -47.875        0.178       24.202       20.789       10.105      585.742      432.180      102.115        0.486        0.056       92.786        9.185        0.010      344.192       20.836      865.615
07/31/2014  02:58:00      -79.882      -23.814        1.006       25.396       22.134       14.458      644.934      489.920      209.029        0.415        0.067       83.356       14.128        0.029      344.157       20.776      865.607
07/31/2014  02:59:00      -70.981        0.515        2.461       25.239       19.689       16.640      637.000      387.662      276.885        0.317        0.065       70.983       12.487        0.031      344.032       20.562      865.607
07/31/2014  03:00:00      -95.583      -21.622       -5.878       23.095       21.477       21.371      533.358      461.282      456.720        0.554        0.073       97.998       18.333        0.035      344.264       20.959      865.605
07/31/2014  03:01:00      -42.195       30.922       -5.636       23.920       31.740       15.790      572.153     1007.414      249.330        0.230        0.091       52.313       18.408        0.124      344.363       21.128      865.601
07/31/2014  03:02:00      -75.527       46.492      -14.001       20.328       22.269       13.994      413.214      495.913      195.833        0.458        0.055       88.689       13.591        0.023      344.278       20.985      865.599
07/31/2014  03:03:00      -85.980       45.176      -16.672       28.339       48.618       22.118      803.076     2363.740      489.196        0.668        0.183       97.126       26.968        0.077      344.372       21.144      865.600
07/31/2014  03:04:00      -79.099       52.151      -11.981       23.387       37.322       20.488      546.974     1392.966      419.774        0.574        0.118       94.744       19.335        0.042      344.388       21.173      865.600
07/31/2014  03:05:00      -50.109       24.494       -5.259       27.886       19.224       12.307      777.655      369.559      151.473        0.222        0.065       55.775       10.484        0.035      344.363       21.128      865.603
07/31/2014  03:06:00      -48.507      -19.342       -7.236       23.741       32.144       11.267      563.636     1033.211      126.949        0.225        0.086       52.221       14.421        0.076      344.323       21.061      865.608
07/31/2014  03:07:00      -16.143       43.896        7.074       28.371       49.011       19.486      804.886     2402.115      379.685        0.291        0.179       46.770       13.890        0.088      344.272       20.972      865.611
07/31/2014  03:08:00      -46.555      -27.089        1.815       30.750       23.046       14.987      945.571      531.120      224.609        0.230        0.085       53.862        8.920        0.027      344.260       20.953      865.615
07/31/2014  03:09:00      -22.733      -31.292       -2.716       24.192       17.315       13.864      585.253      299.821      192.224        0.129        0.054       38.678       13.671        0.125      344.251       20.937      865.615
07/31/2014  03:10:00      -51.625      -49.527       -1.840       22.493       18.270       13.915      505.918      333.777      193.634        0.308        0.052       71.541       10.987        0.024      344.212       20.870      865.616
07/31/2014  03:11:00      -50.951      -51.691       -5.167       21.924       18.302       18.232      480.648      334.973      332.404        0.322        0.057       72.581       11.388        0.025      344.158       20.777      865.624
07/31/2014  03:12:00      -68.792      -38.953        3.634       34.997       30.330       18.883     1224.761      919.930      356.553        0.438        0.125       79.055       17.030        0.046      344.089       20.661      865.627
07/31/2014  03:13:00      -82.678      -29.381       -7.570       29.009       21.420       14.004      841.493      458.822      196.113        0.463        0.075       87.744        3.784        0.002      344.090       20.662      865.640
07/31/2014  03:14:00      -58.750       -5.580      -10.937       18.673       25.867       14.717      348.680      669.117      216.583        0.242        0.062       59.014        7.138        0.015      344.020       20.542      865.640
07/31/2014  03:15:00      -80.009        1.379      -13.943       16.906       14.538       11.094      285.806      211.347      123.076        0.361        0.031       80.021        3.729        0.002      343.921       20.373      865.632
07/31/2014  03:16:00      -99.942       -2.487       -7.512       19.579       13.852       11.421      383.342      191.885      130.439        0.538        0.035       99.973       11.198        0.013      343.934       20.395      865.615
07/31/2014  03:17:00      -72.252      -16.174        2.325       29.879       16.487       13.722      892.759      271.824      188.288        0.342        0.068       74.041       16.975        0.053      343.848       20.249      865.599
07/31/2014  03:18:00      -51.585      -17.870        2.271       23.848       12.855       10.525      568.723      165.259      110.770        0.191        0.042       54.592       10.077        0.034      343.800       20.167      865.590
07/31/2014  03:19:00      -96.739      -22.278       -9.587       12.620       10.977       10.046      159.267      120.484      100.923        0.516        0.019       99.272        7.773        0.006      343.834       20.226      865.588
07/31/2014  03:20:00      -89.122      -27.285       -5.759       17.476       12.030       11.900      305.403      144.720      141.618        0.466        0.030       93.205       10.356        0.012      343.764       20.105      865.597
07/31/2014  03:21:00      -73.489      -10.044       -2.332       18.742       19.558       14.654      351.252      382.497      214.746        0.323        0.047       74.172       10.532        0.020      343.644       19.900      865.598
07/31/2014  03:22:00      -83.962       -1.583       -2.475       32.439       30.292       18.630     1052.270      917.631      347.064        0.469        0.116       83.977       19.382        0.053      343.606       19.836      865.594
07/31/2014  03:23:00      -85.223        3.308        0.348       24.227       17.273       16.843      586.972      298.352      283.673        0.422        0.058       85.287       14.973        0.031      343.477       19.617      865.590
07/31/2014  03:24:00      -99.669       14.804      -12.018       21.844       22.127       14.385      477.171      489.605      206.921        0.574        0.059      100.762       11.251        0.012      343.474       19.610      865.586
07/31/2014  03:25:00      -85.944      -17.537       -8.402       25.104       19.351       12.401      630.225      374.455      153.773        0.446        0.058       87.715        7.680        0.008      343.474       19.611      865.575
07/31/2014  03:26:00      -99.136      -22.504       -8.828       15.230       18.260       11.382      231.940      333.441      129.554        0.555        0.035      101.658        7.451        0.005      343.574       19.781      865.556
07/31/2014  03:27:00      -65.394      -40.717        0.507       31.458       17.851       14.682      989.619      318.674      215.570        0.373        0.076       77.034       16.964        0.048      343.623       19.866      865.552
07/31/2014  03:28:00      -50.042      -32.737        0.286       26.441       20.175       13.404      699.103      407.048      179.668        0.243        0.064       59.799       12.302        0.042      343.678       19.958      865.549
07/31/2014  03:29:00      -32.649      -37.616        1.382       30.886       25.205       14.108      953.926      635.302      199.023        0.214        0.089       49.809       14.804        0.088      343.698       19.993      865.548
07/31/2014  03:30:00      -60.179      -37.575        1.548       24.956       14.379       12.073      622.799      206.766      145.765        0.301        0.049       70.946        9.049        0.016      343.728       20.045      865.546
07/31/2014  03:31:00      -69.480      -24.407       -3.806       23.163       11.874       12.027      536.535      140.984      144.638        0.313        0.041       73.642       13.304        0.033      343.727       20.043      865.544
07/31/2014  03:32:00      -79.112      -14.156        0.693       18.786       18.776       14.164      352.906      352.545      200.610        0.368        0.045       80.369       11.153        0.019      343.658       19.924      865.547
07/31/2014  03:33:00      -87.825      -31.637        3.022       26.114       21.740       13.288      681.919      472.631      176.564        0.503        0.067       93.350       13.948        0.022      343.692       19.981      865.562
07/31/2014  03:34:00      -84.748      -28.966        1.403       12.777       16.781        9.166      163.261      281.600       84.007        0.428        0.026       89.561        7.161        0.006      343.630       19.877      865.573
07/31/2014  03:35:00      -51.853      -26.177        4.183       17.931       15.258       10.913      321.505      232.801      119.091        0.203        0.034       58.086        8.870        0.023      343.548       19.737      865.583
07/31/2014  03:36:00      -28.315      -20.035        0.806       16.618        9.663        5.775      276.154       93.377       33.356        0.080        0.020       34.687        5.483        0.025      343.601       19.827      865.597
07/31/2014  03:37:00      -15.695      -16.132        2.699       13.966       11.937        9.005      195.058      142.499       81.083        0.047        0.021       22.507        9.428        0.175      343.585       19.799      865.616
07/31/2014  03:38:00      -17.058      -10.443       -5.167       10.009        8.087        5.678      100.176       65.394       32.238        0.031        0.010       20.000        3.586        0.032      343.569       19.770      865.630
07/31/2014  03:39:00      -32.575       -9.741       -2.843        6.683        8.378        3.657       44.661       70.186       13.373        0.065        0.006       34.000        3.404        0.010      343.573       19.779      865.632
07/31/2014  03:40:00      -25.151      -18.494        0.594       10.124        8.458        7.469      102.505       71.545       55.782        0.060        0.011       31.219        2.556        0.007      343.664       19.934      865.627
07/31/2014  03:41:00      -46.800      -14.770       -7.511        6.897       10.301        6.520       47.575      106.121       42.507        0.133        0.010       49.075        3.146        0.004      343.664       19.935      865.625
07/31/2014  03:42:00      -63.429      -10.501       -8.696        7.434       11.911        6.305       55.265      141.880       39.752        0.222        0.012       64.292        3.760        0.003      343.511       19.675      865.626
07/31/2014  03:43:00      -78.331      -22.860       -6.527       14.924       10.451        7.324      222.720      109.226       53.639        0.354        0.019       81.599        5.462        0.004      343.480       19.621      865.610
07/31/2014  03:44:00      -93.584      -37.400       -3.427       13.723       12.940        7.194      188.320      167.433       51.756        0.529        0.020      100.781        5.630        0.003      343.447       19.567      865.605
07/31/2014  03:45:00      -65.437      -29.269       -1.107       22.128       14.925       10.783      489.665      222.742      116.277        0.298        0.041       71.685       10.390        0.021      343.396       19.479      865.592
07/31/2014  03:46:00      -11.489      -11.755        1.851       15.096       13.721       10.061      227.899      188.271      101.232        0.040        0.026       16.437        9.838        0.358      343.370       19.434      865.582
07/31/2014  03:47:00      -19.627       -8.165       -0.682       16.157       12.623        7.396      261.041      159.338       54.694        0.046        0.024       21.258        4.961        0.054      343.362       19.421      865.583
07/31/2014  03:48:00      -29.562      -21.646       -1.251       17.767       12.114        6.765      315.675      146.752       45.761        0.093        0.025       36.639        5.538        0.023      343.346       19.393      865.595
07/31/2014  03:49:00      -74.872      -31.520       -5.751        7.724       11.014        5.393       59.653      121.303       29.086        0.342        0.011       81.237        2.377        0.001      343.408       19.496      865.587
07/31/2014  03:50:00      -59.995       -2.441       -1.561       19.338       15.620        8.468      373.974      243.993       71.700        0.215        0.034       60.045        9.214        0.024      343.290       19.299      865.588
07/31/2014  03:51:00      -48.380       -6.432       -2.805       16.523       11.341        8.696      273.022      128.626       75.623        0.143        0.024       48.806        5.574        0.013      343.273       19.268      865.580
07/31/2014  03:52:00      -63.947      -21.310       -2.538       10.390        8.827        8.024      107.949       77.919       64.382        0.240        0.013       67.404        5.052        0.006      343.374       19.440      865.580
07/31/2014  03:53:00      -71.710      -22.768       -3.434       18.251       11.613       10.346      333.116      134.852      107.043        0.312        0.029       75.238        7.637        0.010      343.324       19.356      865.580
07/31/2014  03:54:00      -83.435      -25.040        3.211       28.152       15.456       13.030      792.519      238.886      169.781        0.440        0.060       87.111       13.581        0.024      343.211       19.164      865.576
07/31/2014  03:55:00      -88.478      -29.390       -3.446       23.217       20.893       13.187      539.013      436.528      173.884        0.493        0.057       93.231       11.992        0.017      343.157       19.071      865.579
07/31/2014  03:56:00      -77.531      -27.051        2.016       20.044       17.571       14.494      401.750      308.752      210.072        0.383        0.046       82.115       12.333        0.023      343.204       19.152      865.575
07/31/2014  03:57:00      -69.439      -32.176        1.760       21.316       14.471       12.482      454.355      209.422      155.812        0.334        0.041       76.531        8.360        0.012      343.306       19.324      865.581
07/31/2014  03:58:00      -73.966      -46.528        2.519       26.316       24.240       15.836      692.551      587.590      250.783        0.459        0.077       87.383       15.824        0.033      343.314       19.339      865.584
07/31/2014  03:59:00      -72.618      -35.487        0.178       19.169       17.757       14.135      367.435      315.327      199.799        0.371        0.044       80.825       12.947        0.026      343.324       19.356      865.585
07/31/2014  04:00:00      -68.291      -38.670       -2.471       19.479       16.365       12.472      379.417      267.803      155.552        0.348        0.040       78.480        9.347        0.014      343.272       19.267      865.583
07/31/2014  04:01:00      -56.218      -48.405        0.787       22.214       23.005       14.381      493.444      529.230      206.812        0.337        0.061       74.185       12.600        0.029      343.295       19.307      865.575
07/31/2014  04:02:00      -50.069      -29.842       -1.646       47.048       29.243       19.706     2213.480      855.126      388.311        0.343        0.173       58.288       23.111        0.157      343.211       19.163      865.560
07/31/2014  04:03:00      -84.288      -49.269        4.142       39.039       30.064       18.285     1524.053      903.834      334.340        0.616        0.138       97.632       17.727        0.033      343.169       19.091      865.560
07/31/2014  04:04:00      -87.405      -36.074        8.666       34.050       26.112       17.678     1159.414      681.820      312.500        0.558        0.108       94.556       17.911        0.036      343.132       19.029      865.564
07/31/2014  04:05:00      -89.036      -61.712        2.153       36.753       28.261       16.144     1350.814      798.702      260.641        0.707        0.121      108.332       14.729        0.018      343.112       18.995      865.576
07/31/2014  04:06:00      -93.899      -46.505        0.994       37.223       24.638       20.795     1385.531      607.035      432.427        0.670        0.121      104.784       17.050        0.026      343.074       18.929      865.579
07/31/2014  04:07:00      -47.561      -49.012        8.609       40.578       22.378       22.217     1646.569      500.785      493.612        0.369        0.132       68.295       19.794        0.084      343.144       19.048      865.580
07/31/2014  04:08:00     -106.861      -55.633        5.649       42.638       27.947       22.295     1817.973      781.043      497.061        0.882        0.155      120.475       17.588        0.021      343.130       19.026      865.586
07/31/2014  04:09:00     -102.940      -47.208        0.674       52.950       30.588       21.983     2803.708      935.597      483.247        0.852        0.211      113.249       26.503        0.055      343.129       19.022      865.591
07/31/2014  04:10:00     -126.868      -50.357       -2.443       33.424       30.318       20.426     1117.161      919.187      417.213        1.054        0.123      136.496       17.572        0.017      343.093       18.962      865.590
07/31/2014  04:11:00     -105.895      -59.199       -2.793       53.562       33.306       21.700     2868.880     1109.281      470.903        0.959        0.222      121.319       23.061        0.036      343.026       18.847      865.584
07/31/2014  04:12:00      -84.510      -40.907        0.202       51.499       31.519       21.238     2652.192      993.459      451.066        0.646        0.205       93.890       25.431        0.073      342.979       18.769      865.579
07/31/2014  04:13:00     -107.012      -72.254       -3.781       42.777       37.725       23.037     1829.871     1423.176      530.721        1.023        0.189      129.121       22.293        0.030      343.049       18.886      865.580
07/31/2014  04:14:00     -116.755      -60.152       -2.694       30.866       32.040       20.955      952.720     1026.556      439.128        0.984        0.121      131.339       18.256        0.019      342.990       18.786      865.581
07/31/2014  04:15:00      -90.508      -60.310       -1.710       41.625       32.438       23.208     1732.651     1052.217      538.601        0.758        0.166      108.761       19.139        0.031      342.984       18.775      865.583
07/31/2014  04:16:00      -92.930      -59.549        4.174       50.047       29.430       22.317     2504.751      866.123      498.064        0.803        0.193      110.372       14.516        0.017      342.968       18.749      865.589
07/31/2014  04:17:00      -48.291      -54.460       -4.346       29.124       33.509       13.347      848.207     1122.857      178.129        0.373        0.107       72.787        7.246        0.010      342.989       18.786      865.602
07/31/2014  04:18:00     -116.828      -74.504        0.311       47.949       55.962       27.582     2299.097     3131.748      760.773        1.269        0.310      138.563       24.201        0.031      342.934       18.692      865.600
07/31/2014  04:19:00     -150.971      -52.655       -9.302       32.716       39.635       24.853     1070.336     1570.968      617.672        1.445        0.163      159.890       21.731        0.018      342.937       18.694      865.580
07/31/2014  04:20:00     -120.744      -55.712        6.004       37.481       38.648       21.846     1404.814     1493.639      477.244        1.055        0.169      132.977       20.093        0.023      342.896       18.625      865.586
07/31/2014  04:21:00     -111.714      -49.842        0.887       37.818       37.757       21.994     1430.235     1425.618      483.749        0.915        0.167      122.328       18.307        0.022      342.867       18.577      865.577
07/31/2014  04:22:00     -109.977      -50.347       -5.943       43.036       31.042       22.369     1852.133      963.602      500.377        0.899        0.166      120.953       11.212        0.009      342.861       18.567      865.558
07/31/2014  04:23:00      -89.052      -45.205        5.960       40.339       25.783       20.954     1627.246      664.745      439.075        0.637        0.137       99.869       18.932        0.036      342.815       18.489      865.560
07/31/2014  04:24:00      -95.417      -54.533        6.138       43.972       36.679       23.081     1933.553     1345.339      532.711        0.796        0.191      109.901       21.660        0.039      342.842       18.535      865.546
07/31/2014  04:25:00      -78.584      -36.674        7.344       49.923       27.615       19.167     2492.343      762.594      367.383        0.560        0.181       86.720       19.355        0.050      342.825       18.504      865.532
07/31/2014  04:26:00     -105.904      -42.047        0.373       26.135       30.361       13.946      683.024      921.803      194.486        0.739        0.090      113.945       13.379        0.014      342.823       18.501      865.538
07/31/2014  04:27:00      -98.195      -31.436       -0.920       30.536       26.549       17.557      932.423      704.825      308.241        0.629        0.097      103.104       17.517        0.029      342.793       18.452      865.544
07/31/2014  04:28:00      -96.189      -16.745       -0.063       32.590       25.650       19.784     1062.122      657.928      391.392        0.582        0.106       97.636       17.802        0.033      342.753       18.383      865.548
07/31/2014  04:29:00     -112.243      -20.189       -3.478       40.004       27.810       16.352     1600.340      773.420      267.373        0.783        0.132      114.045       16.809        0.022      342.739       18.360      865.553
07/31/2014  04:30:00     -121.753      -25.720        2.383       40.740       28.903       20.636     1659.745      835.359      425.837        0.921        0.146      124.440       22.594        0.033      342.708       18.306      865.557
07/31/2014  04:31:00     -119.064      -43.775        3.918       45.565       32.050       21.854     2076.189     1027.203      477.605        0.984        0.179      126.856       20.303        0.026      342.732       18.348      865.549
07/31/2014  04:32:00     -122.818      -39.683       -2.251       36.755       34.554       20.767     1350.903     1193.948      431.278        0.982        0.149      129.069       16.324        0.016      342.756       18.389      865.544
07/31/2014  04:33:00     -125.668      -32.666      -13.525       37.385       18.212       14.571     1397.612      331.671      212.314        0.949        0.097      129.844       11.958        0.008      342.702       18.297      865.550
07/31/2014  04:34:00     -109.713      -19.707       -4.592       35.317       18.277       15.635     1247.288      334.036      244.454        0.714        0.091      111.468       18.577        0.028      342.601       18.125      865.542
07/31/2014  04:35:00     -120.192        0.670       -7.104       44.609       24.406       18.409     1989.947      595.651      338.898        0.871        0.146      120.194       20.126        0.028      342.701       18.294      865.535
07/31/2014  04:36:00     -136.972       23.413      -13.698       21.348       20.882       14.482      455.720      436.050      209.736        1.030        0.055      138.958       11.647        0.007      342.857       18.559      865.538
07/31/2014  04:37:00     -136.081       12.152       -6.832       29.023       19.523       15.379      842.342      381.137      236.512        1.009        0.073      136.623       13.867        0.010      342.896       18.626      865.549
07/31/2014  04:38:00     -152.454       11.278      -10.264       22.970       21.594       16.956      527.628      466.290      287.505        1.238        0.064      152.870       12.688        0.007      342.891       18.618      865.552
07/31/2014  04:39:00     -148.491       23.298      -14.611       29.419       25.250       18.927      865.462      637.544      358.215        1.233        0.093      150.307       11.675        0.006      342.884       18.607      865.545
07/31/2014  04:40:00     -167.085       20.578      -11.545       24.562       21.974       20.047      603.297      482.866      401.869        1.498        0.074      168.348       13.532        0.006      342.909       18.648      865.548
07/31/2014  04:41:00     -176.367       42.497       -9.678       20.245       20.608       13.526      409.849      424.686      182.951        1.701        0.051      181.415        9.414        0.003      342.927       18.680      865.540
07/31/2014  04:42:00     -176.083       50.123       -7.515       28.503       22.554       19.520      812.409      508.693      381.041        1.764        0.085      183.078       17.724        0.009      342.972       18.755      865.520
07/31/2014  04:43:00     -145.684       49.804       -4.173       35.412       23.187       16.131     1254.041      537.623      260.197        1.289        0.103      153.962        9.726        0.004      342.977       18.766      865.521
07/31/2014  04:44:00     -107.190       34.849       -8.633       43.926       26.933       17.863     1929.506      725.392      319.080        0.788        0.149      112.712       12.730        0.013      342.987       18.782      865.521
07/31/2014  04:45:00      -82.989       10.047       -2.698       27.436       23.540       18.387      752.756      554.143      338.067        0.432        0.082       83.595       13.197        0.025      343.033       18.861      865.518
07/31/2014  04:46:00      -59.157        7.116       -2.004       21.501       17.436       11.506      462.309      304.018      132.388        0.223        0.045       59.583        8.305        0.019      342.977       18.765      865.521
07/31/2014  04:47:00      -64.851      -20.745      -12.114       14.440       19.940       12.590      208.524      397.606      158.502        0.277        0.038       68.089        5.566        0.007      342.923       18.671      865.542
07/31/2014  04:48:00      -98.417      -28.043      -10.118       30.983       21.932       13.774      959.973      481.005      189.710        0.610        0.082      102.334       12.632        0.015      342.788       18.444      865.560
07/31/2014  04:49:00     -118.402      -65.205       -8.147       23.112       20.241       12.611      534.173      409.717      159.034        0.972        0.055      135.169        5.607        0.002      342.670       18.242      865.570
07/31/2014  04:50:00      -34.491      -48.472        5.182       44.589       33.718       19.620     1988.221     1136.879      384.942        0.354        0.176       59.491        9.370        0.025      342.653       18.213      865.588
07/31/2014  04:51:00      -92.204      -82.328        2.951       48.502       43.911       28.793     2352.432     1928.164      829.010        1.020        0.255      123.610       26.751        0.047      342.636       18.184      865.599
07/31/2014  04:52:00     -133.147      -79.134        1.609       62.170       43.757       29.715     3865.134     1914.699      882.988        1.533        0.333      154.888       29.575        0.036      342.607       18.134      865.587
07/31/2014  04:53:00     -127.637      -86.621        3.730       57.510       51.699       28.470     3307.433     2672.747      810.541        1.530        0.340      154.255       24.622        0.025      342.625       18.165      865.591
07/31/2014  04:54:00     -130.664      -73.851        2.895       44.688       51.950       27.335     1997.005     2698.825      747.205        1.399        0.272      150.090       21.519        0.021      342.629       18.172      865.593
07/31/2014  04:55:00     -105.583      -92.190       -4.967       55.963       63.477       26.595     3131.871     4029.275      707.289        1.377        0.393      140.167       34.128        0.059      342.674       18.247      865.592
07/31/2014  04:56:00      -86.897      -72.247        1.141       45.568       43.192       24.348     2076.405     1865.557      592.846        0.865        0.227      113.008       16.744        0.022      342.678       18.256      865.594
07/31/2014  04:57:00      -97.709      -83.134      -17.509       34.275       46.561       24.261     1174.776     2167.931      588.585        1.035        0.197      128.290       13.884        0.012      342.681       18.261      865.596
07/31/2014  04:58:00      -57.810      -29.173        1.280       43.331       33.219       22.114     1877.583     1103.476      489.030        0.383        0.174       64.754       20.569        0.101      342.607       18.136      865.590
07/31/2014  04:59:00      -80.715      -73.983       -9.482       39.999       33.208       20.987     1599.943     1102.739      440.444        0.761        0.157      109.491       20.053        0.034      342.673       18.247      865.602
07/31/2014  05:00:00      -42.284      -52.591       -1.270       30.233       30.536       17.430      914.029      932.423      303.806        0.335        0.108       67.481       18.202        0.073      342.717       18.321      865.624
07/31/2014  05:01:00      -22.967      -45.282        8.495       38.393       28.957       19.434     1474.049      838.487      377.673        0.267        0.135       50.774       18.139        0.128      342.762       18.399      865.640
07/31/2014  05:02:00      -85.746      -94.845       -5.169       26.723       33.969       21.018      714.134     1153.897      441.749        0.934        0.115      127.859       16.986        0.018      342.774       18.418      865.654
07/31/2014  05:03:00      -37.177      -65.020       13.145       33.926       51.706       16.220     1150.997     2673.531      263.088        0.493        0.204       74.898       21.278        0.081      342.721       18.327      865.669
07/31/2014  05:04:00      -82.175      -73.414       -0.452       39.599       34.661       20.036     1568.044     1201.390      401.426        0.766        0.159      110.193       19.570        0.032      342.728       18.341      865.675
07/31/2014  05:05:00      -79.049      -64.917       -1.828       61.964       45.385       22.472     3839.544     2059.771      504.972        0.843        0.320      102.288       24.424        0.057      342.695       18.285      865.659
07/31/2014  05:06:00      -96.679      -74.207       -0.291       45.616       29.249       21.806     2080.783      855.493      475.514        0.913        0.171      121.875       24.580        0.041      342.606       18.132      865.651
07/31/2014  05:07:00     -108.579      -94.098       -1.517       53.417       42.949       23.816     2853.418     1844.586      567.223        1.295        0.263      143.680       25.644        0.032      342.603       18.127      865.642
07/31/2014  05:08:00     -147.493     -104.395       -3.625       37.339       33.004       24.877     1394.166     1089.272      618.882        1.788        0.155      180.700       20.650        0.013      342.607       18.133      865.619
07/31/2014  05:09:00     -159.931      -98.796       -2.792       49.793       38.306       22.037     2479.308     1467.338      485.641        1.989        0.222      187.985       17.921        0.009      342.622       18.159      865.592
07/31/2014  05:10:00     -141.182      -84.985       -6.038       38.722       42.473       25.695     1499.422     1803.971      660.222        1.558        0.198      164.787       23.229        0.020      342.605       18.130      865.564
07/31/2014  05:11:00     -102.660      -68.054       -2.396       39.853       31.446       25.474     1588.241      988.841      648.914        0.920        0.161      123.168       19.109        0.024      342.585       18.098      865.549
07/31/2014  05:12:00      -77.537      -16.585        4.318       45.106       29.613       21.929     2034.554      876.958      480.878        0.485        0.170       79.291       23.846        0.090      342.546       18.029      865.534
07/31/2014  05:13:00     -108.610      -54.720       -1.570       52.314       36.692       21.054     2736.754     1346.289      443.263        0.966        0.226      121.616       24.110        0.039      342.581       18.090      865.524
07/31/2014  05:14:00     -106.274      -83.409       -1.871       43.372       31.078       24.814     1881.097      965.865      615.721        1.086        0.173      135.097       24.793        0.034      342.583       18.094      865.526
07/31/2014  05:15:00      -62.922      -51.668       -2.189       21.173       34.174       12.958      448.284     1167.837      167.907        0.421        0.089       81.417        5.177        0.004      342.582       18.094      865.546
07/31/2014  05:16:00      -75.653      -80.854       -3.596       35.078       47.212       20.323     1230.445     2228.933      413.028        0.807        0.194      110.728       22.187        0.040      342.577       18.082      865.568
07/31/2014  05:17:00      -49.204      -60.230        0.805       32.617       19.596       22.992     1063.849      383.996      528.639        0.401        0.099       77.773       21.228        0.075      342.585       18.099      865.590
07/31/2014  05:18:00       -6.367      -36.346        9.421       15.184       21.439       12.577      230.567      459.611      158.189        0.115        0.042       36.899        8.465        0.053      342.599       18.124      865.594
07/31/2014  05:19:00      -27.481      -49.315       -0.810       29.632       31.020       23.345      878.063      962.220      544.982        0.279        0.119       56.455       13.659        0.059      342.615       18.148      865.599
07/31/2014  05:20:00      -52.904      -46.032       -3.633       38.235       24.617       20.037     1461.888      605.976      401.497        0.370        0.123       70.127       10.373        0.022      342.580       18.088      865.600
07/31/2014  05:21:00     -106.690      -77.853       -2.742       41.647       34.190       23.330     1734.484     1168.934      544.302        1.045        0.172      132.075       21.276        0.026      342.514       17.977      865.589
07/31/2014  05:22:00     -100.655      -81.001        3.344       40.645       34.135       22.966     1652.023     1165.175      527.418        1.002        0.167      129.200       19.731        0.023      342.466       17.894      865.577
07/31/2014  05:23:00     -109.940     -101.198       -6.460       38.079       42.773       23.875     1449.977     1829.561      570.000        1.311        0.192      149.425       23.154        0.024      342.404       17.790      865.567
07/31/2014  05:24:00     -162.950     -130.768      -16.279       33.127       33.388       20.552     1097.400     1114.738      422.382        2.328        0.132      208.933       12.665        0.004      342.413       17.804      865.563
07/31/2014  05:25:00     -160.889      -74.879       -1.408       56.320       46.907       23.353     3171.979     2200.271      545.367        1.870        0.296      177.460       24.366        0.019      342.393       17.770      865.552
07/31/2014  05:26:00     -144.983     -107.047       -5.959       38.619       33.594       26.276     1491.422     1128.578      690.408        1.791        0.166      180.219       18.706        0.011      342.423       17.821      865.534
07/31/2014  05:27:00     -120.104      -23.471       -7.184       47.081       37.953       26.087     2216.575     1440.446      680.531        0.968        0.217      122.376       24.765        0.041      342.330       17.665      865.515
07/31/2014  05:28:00     -135.471       -5.835       -8.828       53.103       42.486       28.713     2819.877     1805.059      824.424        1.196        0.272      135.597       26.832        0.039      342.148       17.355      865.504
07/31/2014  05:29:00      -72.967      -24.643        2.500       54.474       38.142       25.808     2967.370     1454.826      666.030        0.551        0.254       77.016       18.777        0.059      342.059       17.203      865.506
07/31/2014  05:30:00      -99.720      -44.449        5.269       40.370       35.067       22.976     1629.737     1229.729      527.912        0.767        0.169      109.178       22.794        0.044      342.156       17.371      865.536
07/31/2014  05:31:00      -75.393      -70.121        5.821       36.855       28.639       21.097     1358.313      820.195      445.103        0.663        0.131      102.961       17.936        0.030      342.253       17.534      865.557
07/31/2014  05:32:00      -54.067      -72.960       -3.931       33.730       20.124       17.908     1137.682      404.972      320.691        0.506        0.093       90.810       15.808        0.030      342.381       17.753      865.583
07/31/2014  05:33:00      -34.747      -55.036        6.028       33.988       23.997       22.175     1155.163      575.862      491.717        0.325        0.111       65.087       18.731        0.083      342.404       17.789      865.594
07/31/2014  05:34:00      -64.544      -54.515        0.546       31.840       37.712       22.724     1013.796     1422.204      516.379        0.504        0.148       84.485       21.308        0.064      342.385       17.760      865.599
07/31/2014  05:35:00      -89.964      -45.063        4.866       47.513       32.864       30.227     2257.448     1080.060      913.697        0.720        0.213      100.619       28.031        0.078      342.397       17.777      865.598
07/31/2014  05:36:00      -84.009      -77.719        6.081       46.768       50.003       20.756     2187.280     2500.308      430.831        0.913        0.256      114.446       13.774        0.014      342.415       17.808      865.591
07/31/2014  05:37:00     -103.641      -52.960       -8.164       34.493       30.459       18.753     1189.744      927.752      351.659        0.804        0.123      116.389       12.367        0.011      342.371       17.732      865.592
07/31/2014  05:38:00      -86.434      -41.189        1.722       44.514       27.635       25.472     1981.470      763.719      648.824        0.628        0.170       95.746       18.137        0.036      342.322       17.652      865.589
07/31/2014  05:39:00      -86.303      -39.031       -8.550       34.007       29.048       17.361     1156.496      843.783      301.408        0.567        0.115       94.719       14.714        0.024      342.320       17.647      865.580
07/31/2014  05:40:00      -43.968      -54.312        6.330       36.796       22.560       20.315     1353.958      508.948      412.712        0.360        0.114       69.879       18.463        0.070      342.352       17.702      865.577
07/31/2014  05:41:00      -20.407      -41.664        5.915       28.248       23.023       19.547      797.949      530.057      382.073        0.195        0.086       46.393       17.489        0.142      342.457       17.880      865.573
07/31/2014  05:42:00       -2.659      -67.649       -9.253       21.179       24.216       11.632      448.547      586.430      135.297        0.292        0.059       67.702       10.135        0.022      342.506       17.964      865.585
07/31/2014  05:43:00      -15.530      -72.139        3.938       33.175       27.010       15.979     1100.551      729.545      255.320        0.377        0.104       73.792       20.625        0.078      342.486       17.931      865.590
07/31/2014  05:44:00      -20.530      -46.171       -1.515       17.403       30.653       13.971      302.851      939.592      195.181        0.200        0.072       50.530       14.641        0.084      342.570       18.073      865.598
07/31/2014  05:45:00      -28.517      -19.462        3.924       22.840       17.308       12.143      521.670      299.576      147.461        0.109        0.048       34.525        5.093        0.022      342.507       17.967      865.605
07/31/2014  05:46:00      -35.451      -28.168        6.261       36.755       28.769       20.094     1350.914      827.645      403.788        0.234        0.129       45.279       14.765        0.106      342.409       17.798      865.610
07/31/2014  05:47:00      -46.249      -60.477        5.275       32.079       22.587       18.099     1029.072      510.185      327.590        0.385        0.093       76.135        8.200        0.012      342.399       17.782      865.616
07/31/2014  05:48:00      -30.218      -74.380       -0.266       35.292       45.492       24.165     1245.553     2069.499      583.957        0.517        0.195       80.284        7.220        0.008      342.412       17.803      865.619
07/31/2014  05:49:00      -86.602      -81.594        3.135       62.125       48.287       24.089     3859.508     2331.600      580.282        1.047        0.339      118.985       21.745        0.033      342.329       17.660      865.623
07/31/2014  05:50:00      -59.139      -41.562       12.120       52.713       34.007       23.927     2778.641     1156.458      572.492        0.494        0.225       72.283       28.059        0.151      342.266       17.555      865.622
07/31/2014  05:51:00      -66.988      -31.475        7.467       50.918       35.240       26.989     2592.616     1241.831      728.385        0.505        0.228       74.014       24.751        0.112      342.256       17.539      865.602
07/31/2014  05:52:00     -100.731      -76.362       -0.381       41.185       42.233       25.069     1696.184     1783.592      628.460        1.004        0.205      126.403       24.896        0.039      342.243       17.517      865.591
07/31/2014  05:53:00     -105.725      -88.723       -3.911       36.095       31.964       21.523     1302.872     1021.677      463.241        1.093        0.139      138.020       20.537        0.022      342.233       17.498      865.581
07/31/2014  05:54:00     -117.864      -78.527       -3.996       26.756       27.085       19.770      715.896      733.581      390.849        1.096        0.092      141.628       12.955        0.008      342.257       17.542      865.570
07/31/2014  05:55:00     -113.955      -73.140        2.979       35.348       30.346       20.840     1249.447      920.890      434.297        1.047        0.130      135.407       19.093        0.020      342.273       17.567      865.573
07/31/2014  05:56:00     -110.732      -84.961       -4.815       47.542       39.408       22.184     2260.260     1552.958      492.114        1.190        0.215      139.570       20.596        0.022      342.315       17.638      865.582
07/31/2014  05:57:00      -97.116      -76.397       -2.111       53.677       32.241       24.978     2881.213     1039.469      623.925        0.991        0.227      123.564       25.642        0.043      342.320       17.648      865.578
07/31/2014  05:58:00     -104.111      -66.000       -2.933       44.634       40.190       24.373     1992.192     1615.240      594.033        0.970        0.210      123.269       19.471        0.025      342.309       17.628      865.580
07/31/2014  05:59:00      -78.836      -61.409        8.662       59.910       26.227       24.154     3589.228      687.863      583.403        0.746        0.243       99.931       26.509        0.070      342.313       17.635      865.592
07/31/2014  06:00:00      -46.223      -54.070        4.203       31.648       35.463       19.132     1001.595     1257.632      366.042        0.385        0.131       71.134       12.374        0.030      342.301       17.615      865.611
07/31/2014  06:01:00      -62.429      -92.409        2.095       38.243       53.177       28.364     1462.492     2827.745      804.504        0.877        0.255      111.520       27.695        0.062      342.289       17.595      865.640
07/31/2014  06:02:00      -95.179     -107.215       -8.013       42.385       53.932       22.574     1796.448     2908.688      509.569        1.292        0.261      143.367       17.206        0.014      342.233       17.500      865.663
07/31/2014  06:03:00      -91.023     -128.289       -6.437       34.728       40.825       20.575     1206.064     1666.679      423.330        1.404        0.165      157.300        9.362        0.004      342.210       17.460      865.681
07/31/2014  06:04:00      -54.420      -96.735        7.158       73.310       77.801       29.686     5374.394     6053.057      881.230        1.234        0.615      110.992       34.485        0.097      342.224       17.482      865.686
07/31/2014  06:05:00      -60.710     -110.550        1.376       53.937       68.311       31.483     2909.154     4666.335      991.205        1.224        0.428      126.123       31.262        0.061      342.224       17.483      865.688
07/31/2014  06:06:00      -93.459     -122.499       -9.750       40.483       53.775       25.169     1638.901     2891.704      633.463        1.450        0.258      154.080       23.282        0.023      342.250       17.528      865.687
07/31/2014  06:07:00     -100.887      -98.149       -8.136       60.116       61.765       28.468     3613.988     3814.913      810.431        1.406        0.412      140.753       27.752        0.039      342.231       17.494      865.682
07/31/2014  06:08:00      -78.926      -53.485        6.883       46.941       39.433       26.738     2203.461     1554.925      714.939        0.680        0.224       95.341       21.374        0.050      342.240       17.512      865.695
07/31/2014  06:09:00      -96.262      -60.748       -1.304       49.253       41.670       32.850     2425.818     1736.430     1079.104        0.910        0.262      113.827       29.102        0.065      342.236       17.503      865.695
07/31/2014  06:10:00      -79.251      -79.993        0.298       43.691       50.303       26.082     1908.903     2530.430      680.292        0.890        0.256      112.604       30.753        0.075      342.217       17.471      865.690
07/31/2014  06:11:00     -113.601      -68.691       -7.152       31.387       40.277       20.145      985.151     1622.248      405.820        1.034        0.151      132.754       14.513        0.012      342.217       17.472      865.697
07/31/2014  06:12:00      -67.566      -59.278        6.252       46.281       52.910       25.471     2141.885     2799.480      648.768        0.685        0.280       89.884       27.941        0.097      342.196       17.436      865.707
07/31/2014  06:13:00      -93.346      -65.398       10.764       87.970       53.264       35.768     7738.744     2837.004     1279.377        1.248        0.593      113.975       43.924        0.149      342.201       17.443      865.723
07/31/2014  06:14:00      -80.562      -88.687        4.984       61.636       44.536       33.155     3799.051     1983.480     1099.287        1.063        0.344      119.815       30.351        0.064      342.224       17.482      865.735
07/31/2014  06:15:00     -105.139      -67.644       -4.327       47.667       44.501       22.922     2272.114     1980.374      525.426        1.021        0.239      125.019       11.376        0.008      342.200       17.445      865.737
07/31/2014  06:16:00      -92.822     -102.166       -2.806       49.207       48.238       22.241     2421.359     2326.891      494.646        1.215        0.262      138.036       27.838        0.041      342.211       17.461      865.735
07/31/2014  06:17:00      -86.260      -64.480        1.273       41.047       41.010       24.933     1684.862     1681.817      621.666        0.779        0.199      107.696       26.064        0.059      342.224       17.484      865.744
07/31/2014  06:18:00     -128.357      -67.002       -8.224       53.163       38.777       25.762     2826.321     1503.676      663.688        1.301        0.250      144.792       16.501        0.013      342.186       17.419      865.741
07/31/2014  06:19:00      -98.093      -65.975        2.377       51.788       52.519       30.666     2682.044     2758.206      940.428        1.018        0.319      118.215       24.202        0.042      342.164       17.381      865.727
07/31/2014  06:20:00     -152.599     -119.960       -5.117       64.520       51.181       34.740     4162.833     2619.542     1206.876        2.284        0.399      194.105       30.648        0.025      342.140       17.338      865.716
07/31/2014  06:21:00     -142.482     -111.083       -1.806       54.417       37.069       30.282     2961.183     1374.087      916.972        1.895        0.263      180.667       30.658        0.029      342.131       17.326      865.712
07/31/2014  06:22:00     -113.868      -70.171        1.453       26.685       39.398       19.971      712.113     1552.213      398.843        1.028        0.133      133.753       14.961        0.013      342.138       17.336      865.727
07/31/2014  06:23:00      -89.759      -47.248        2.613       50.461       27.416       22.229     2546.285      751.641      494.119        0.704        0.190      101.435       22.194        0.048      342.101       17.274      865.748
07/31/2014  06:24:00      -85.661      -12.932        1.113       42.962       25.924       20.452     1845.730      672.033      418.268        0.522        0.147       86.632       23.559        0.074      341.929       16.982      865.763
07/31/2014  06:25:00     -109.393      -18.429       -4.962       27.341       25.765       16.520      747.504      663.823      272.902        0.701        0.084      110.935       11.307        0.010      341.870       16.883      865.773
07/31/2014  06:26:00     -103.667      -23.711        1.327       41.545       27.141       17.069     1725.981      736.644      291.350        0.703        0.138      106.344       12.336        0.013      341.878       16.896      865.785
07/31/2014  06:27:00     -105.338      -42.744       -1.138       28.233       32.498       17.390      797.100     1056.119      302.406        0.754        0.108      113.680       12.582        0.012      341.890       16.917      865.800
07/31/2014  06:28:00     -109.058      -34.985       -1.606       27.259       30.633       20.714      743.028      938.406      429.064        0.761        0.106      114.532       16.707        0.021      341.902       16.938      865.804
07/31/2014  06:29:00     -127.818      -38.155       -7.148       26.699       23.126       16.788      712.811      534.823      281.845        0.969        0.076      133.392       11.775        0.008      341.887       16.911      865.795
07/31/2014  06:30:00     -125.148      -33.899       -0.159       30.339       34.547       18.428      920.473     1193.515      339.576        0.963        0.123      129.658       16.120        0.015      341.844       16.838      865.781
07/31/2014  06:31:00     -122.792      -47.905       -2.592       33.577       26.505       19.592     1127.409      702.497      383.862        0.980        0.111      131.805       14.758        0.013      341.845       16.842      865.771
07/31/2014  06:32:00     -126.354      -43.029       -3.452       29.597       31.213       21.112      875.987      974.230      445.730        1.006        0.115      133.480       17.499        0.017      341.916       16.961      865.770
07/31/2014  06:33:00      -96.875      -19.221        1.761       36.205       33.325       21.267     1310.834     1110.541      452.290        0.631        0.144       98.764       23.689        0.058      341.914       16.959      865.776
07/31/2014  06:34:00     -104.783      -56.265       -2.770       28.624       28.339       12.925      819.311      803.071      167.060        0.797        0.089      118.934       12.546        0.011      341.985       17.078      865.775
07/31/2014  06:35:00      -91.349      -63.967       -1.349       26.796       21.619       16.521      718.034      467.400      272.940        0.695        0.073      111.519       14.907        0.018      342.026       17.147      865.772
07/31/2014  06:36:00      -90.886      -67.694       -7.466       39.142       30.413       19.645     1532.102      924.958      385.934        0.787        0.142      113.326       15.656        0.019      342.033       17.160      865.774
07/31/2014  06:37:00     -104.623      -55.936       -0.524       36.322       34.843       20.558     1319.312     1214.015      422.635        0.851        0.148      118.637       15.516        0.017      342.008       17.118      865.768
07/31/2014  06:38:00      -85.903      -58.294        0.342       46.779       41.658       24.561     2188.316     1735.349      603.263        0.765        0.226      103.814       21.785        0.044      341.995       17.095      865.759
07/31/2014  06:39:00     -102.904      -45.858        4.143       44.982       34.174       19.148     2023.363     1167.855      366.636        0.813        0.178      112.660       20.471        0.033      342.009       17.119      865.745
07/31/2014  06:40:00     -114.157      -48.919        4.213       44.579       25.364       21.121     1987.279      643.353      446.081        0.926        0.154      124.197       22.750        0.034      341.962       17.039      865.729
07/31/2014  06:41:00     -113.063      -56.296        1.190       52.392       36.409       20.506     2744.897     1325.620      420.512        1.022        0.225      126.303       23.235        0.034      341.961       17.037      865.711
07/31/2014  06:42:00     -147.329      -61.515       -2.329       41.059       38.430       16.562     1685.806     1476.894      274.315        1.447        0.172      159.655       13.731        0.007      341.903       16.939      865.692
07/31/2014  06:43:00     -175.659      -68.838        0.331       42.718       35.064       27.139     1824.818     1229.503      736.531        1.969        0.190      188.665       23.053        0.015      341.908       16.946      865.683
07/31/2014  06:44:00     -129.342      -34.647       -6.195       44.655       37.728       23.261     1994.084     1423.411      541.069        1.096        0.198      133.902       23.558        0.031      341.954       17.027      865.680
07/31/2014  06:45:00     -121.173      -39.174       -2.909       45.430       43.608       25.256     2063.845     1901.622      637.875        1.041        0.230      127.348       24.506        0.037      342.016       17.131      865.677
07/31/2014  06:46:00     -128.786      -57.516       -6.682       44.291       44.357       28.017     1961.657     1967.540      784.944        1.233        0.236      141.046       27.710        0.039      342.025       17.146      865.678
07/31/2014  06:47:00     -109.381      -45.570       -8.258       29.125       29.994       20.169      848.261      899.630      406.772        0.813        0.108      118.494       14.169        0.014      342.030       17.155      865.681
07/31/2014  06:48:00      -87.191      -71.748       -2.173       52.241       34.773       24.309     2729.154     1209.134      590.949        0.864        0.226      112.916       22.578        0.040      342.130       17.325      865.686
07/31/2014  06:49:00      -91.286      -54.772       -4.437       54.564       26.118       20.499     2977.208      682.174      420.215        0.772        0.204      106.457       21.178        0.040      342.187       17.420      865.701
07/31/2014  06:50:00      -95.860      -51.834        3.163       45.152       33.986       24.022     2038.702     1155.019      577.044        0.783        0.189      108.976       25.328        0.054      342.211       17.461      865.722
07/31/2014  06:51:00      -73.138      -65.898        1.325       48.802       40.075       21.389     2381.602     1606.038      457.489        0.707        0.222       98.446       30.059        0.093      342.270       17.561      865.730
07/31/2014  06:52:00     -111.149      -75.833       -5.287       32.825       24.784       21.616     1077.513      614.247      467.263        1.015        0.108      134.554       16.562        0.015      342.373       17.737      865.739
07/31/2014  06:53:00      -55.428      -51.068        1.404       23.972       22.565       15.458      574.634      509.164      238.941        0.350        0.066       75.368       14.366        0.036      342.406       17.794      865.750
07/31/2014  06:54:00      -74.559      -22.492       -4.450       33.722       33.330       19.582     1137.173     1110.876      383.446        0.436        0.132       77.877       17.474        0.050      342.423       17.821      865.739
07/31/2014  06:55:00      -71.550      -39.499       -8.400       22.581       19.861       13.195      509.907      394.467      174.120        0.391        0.054       81.729       11.709        0.021      342.466       17.895      865.727
07/31/2014  06:56:00     -103.346      -33.204       -7.071       17.877       22.541       14.268      319.573      508.118      203.574        0.643        0.052      108.549       10.558        0.009      342.495       17.944      865.723
07/31/2014  06:57:00      -84.326      -42.539       -2.861       17.305       23.532       11.006      299.450      553.740      121.130        0.495        0.049       94.448        7.882        0.007      342.522       17.991      865.717
07/31/2014  06:58:00      -71.318      -47.141       -4.244       17.320       10.998        9.363      299.981      120.958       87.671        0.392        0.025       85.490        8.642        0.010      342.618       18.152      865.707
07/31/2014  06:59:00      -65.762      -39.542       -3.631       29.502       12.455       10.206      870.373      155.134      104.155        0.352        0.056       76.734        7.358        0.009      342.509       17.968      865.695
07/31/2014  07:00:00      -36.905      -25.226        5.944       36.668       15.765       14.210     1344.527      248.522      201.935        0.191        0.090       44.703       14.791        0.109      342.630       18.174      865.681
07/31/2014  07:01:00      -39.400      -36.627        5.157       41.931       25.117       18.013     1758.169      630.842      324.457        0.282        0.136       53.795       21.144        0.154      342.588       18.103      865.678
07/31/2014  07:02:00      -93.681      -61.459       -1.545       22.764       31.442       20.943      518.192      988.623      438.622        0.725        0.097      112.041       12.912        0.013      342.674       18.249      865.669
07/31/2014  07:03:00     -101.821      -68.072      -11.656       21.459       16.885       15.006      460.471      285.110      225.192        0.805        0.049      122.479        8.514        0.005      342.722       18.330      865.655
07/31/2014  07:04:00      -82.469      -43.216       -1.211       34.894       37.778       19.900     1217.592     1427.205      396.024        0.585        0.152       93.106       20.004        0.046      342.713       18.313      865.660
07/31/2014  07:05:00      -78.389      -76.003       -4.539       32.129       25.219       19.814     1032.242      636.017      392.581        0.700        0.103      109.185       18.152        0.028      342.822       18.500      865.668
07/31/2014  07:06:00      -30.197      -64.599        8.349       34.747       26.735       21.989     1207.333      714.768      483.512        0.378        0.120       71.309       18.044        0.064      342.809       18.477      865.687
07/31/2014  07:07:00      -49.448     -103.534       -2.577       22.030       29.287       23.467      485.323      857.737      550.721        0.753        0.095      114.736       15.219        0.018      342.704       18.301      865.710
07/31/2014  07:08:00      -38.534      -40.644       10.228       27.166       32.166       19.315      737.991     1034.669      373.073        0.269        0.107       56.007       14.934        0.071      342.767       18.406      865.716
07/31/2014  07:09:00      -29.236      -49.244        2.521       20.584       31.395       14.483      423.696      985.675      209.763        0.245        0.081       57.269       13.123        0.053      342.779       18.427      865.728
07/31/2014  07:10:00      -50.779      -54.173        2.715       16.681       28.154       13.840      278.255      792.656      191.543        0.339        0.063       74.251        5.240        0.005      342.796       18.454      865.733
07/31/2014  07:11:00      -17.360      -36.843       -2.642       25.352       24.319       15.441      642.721      591.437      238.419        0.157        0.074       40.728        5.239        0.017      342.875       18.592      865.739
07/31/2014  07:12:00      -63.646      -43.135       -2.179       13.896       22.936       14.936      193.110      526.067      223.096        0.343        0.047       76.886        6.565        0.007      342.756       18.389      865.744
07/31/2014  07:13:00      -24.467      -56.000        2.973       19.170       22.364       14.226      367.476      500.151      202.378        0.241        0.054       61.111       13.230        0.047      342.727       18.339      865.741
07/31/2014  07:14:00      -15.492      -46.062        2.519       25.044       26.322       15.834      627.216      692.838      250.708        0.197        0.079       48.598       12.843        0.070      342.861       18.566      865.752
07/31/2014  07:15:00       -6.599      -75.875       -0.129       15.101       19.192       13.948      228.055      368.349      194.546        0.330        0.040       76.162        7.969        0.011      342.836       18.525      865.751
07/31/2014  07:16:00      -17.959      -41.669        8.309       25.196       34.151       15.801      634.814     1166.258      249.665        0.209        0.103       45.375       15.498        0.117      342.932       18.689      865.762
07/31/2014  07:17:00      -53.913      -46.251        0.805       25.919       23.467       20.917      671.780      550.724      437.511        0.335        0.083       71.033       15.913        0.050      342.905       18.641      865.762
07/31/2014  07:18:00      -38.228      -37.537        3.545       27.012       31.275       15.827      729.626      978.099      250.482        0.242        0.098       53.577       16.699        0.097      342.946       18.712      865.766
07/31/2014  07:19:00      -93.095      -49.292       -7.012       29.825       21.957       15.731      889.509      482.128      247.469        0.638        0.081      105.339       10.067        0.009      342.916       18.661      865.760
07/31/2014  07:20:00      -65.492      -28.047        5.220       35.693       31.193       22.424     1273.983      973.012      502.847        0.393        0.137       71.245       25.097        0.124      343.054       18.896      865.756
07/31/2014  07:21:00      -81.952      -21.845        1.691       48.394       35.824       24.188     2341.934     1283.341      585.046        0.570        0.211       84.813       24.764        0.085      342.947       18.713      865.762
07/31/2014  07:22:00      -39.104      -32.967        1.986       38.275       24.435       18.323     1464.947      597.060      335.731        0.251        0.120       51.146       18.891        0.136      343.091       18.958      865.767
07/31/2014  07:23:00      -18.354      -67.109       -4.351       18.220       14.413       12.580      331.967      207.740      158.246        0.278        0.035       69.574        9.733        0.020      343.042       18.877      865.787
07/31/2014  07:24:00      -46.293      -26.635       -5.516       22.461       21.530        8.332      504.485      463.546       69.425        0.196        0.052       53.408        3.146        0.003      343.069       18.921      865.797
07/31/2014  07:25:00      -86.627      -48.260       -2.975       27.010       24.914       14.042      729.526      620.715      197.168        0.569        0.077       99.163       10.163        0.011      343.095       18.966      865.806
07/31/2014  07:26:00      -87.743      -68.159       -2.193       32.035       25.546       15.783     1026.233      652.605      249.099        0.714        0.096      111.105       17.878        0.026      343.149       19.056      865.792
07/31/2014  07:27:00      -95.941      -69.172        1.298       27.676       46.920       21.748      765.962     2201.517      472.978        0.872        0.172      118.277       15.969        0.018      343.185       19.118      865.773
07/31/2014  07:28:00      -88.298      -52.389        5.704       32.925       49.033       23.048     1084.084     2404.189      531.229        0.730        0.201      102.670       20.004        0.038      343.241       19.215      865.760
07/31/2014  07:29:00      -78.018      -67.098        0.933       49.680       42.854       30.774     2468.144     1836.434      947.066        0.792        0.263      102.903       25.518        0.061      343.316       19.343      865.748
07/31/2014  07:30:00     -106.064      -96.261       -0.739       64.134       60.271       35.204     4113.199     3632.637     1239.350        1.475        0.449      143.233       40.733        0.081      343.313       19.335      865.741
07/31/2014  07:31:00      -48.946      -65.792       11.121       67.534       49.050       35.031     4560.834     2405.929     1227.153        0.752        0.410       82.002       41.746        0.259      343.385       19.459      865.752
07/31/2014  07:32:00      -61.937      -63.600        9.258       51.073       36.198       32.696     2608.402     1310.320     1069.029        0.648        0.249       88.776       33.936        0.146      343.312       19.336      865.764
07/31/2014  07:33:00      -56.579      -80.104       -5.039       33.394       34.168       18.627     1115.179     1167.472      346.972        0.614        0.131       98.071       13.795        0.020      343.262       19.250      865.777
07/31/2014  07:34:00     -115.810      -52.774        0.269       40.296       44.720       24.966     1623.747     1999.906      623.311        1.022        0.212      127.267       23.943        0.035      343.231       19.198      865.788
07/31/2014  07:35:00      -65.669      -88.883       -3.847       41.310       34.111       19.434     1706.509     1163.577      377.697        0.774        0.162      110.511       18.381        0.028      343.229       19.195      865.790
07/31/2014  07:36:00     -122.555     -122.906       -6.591       73.092       37.849       26.272     5342.492     1432.519      690.211        1.882        0.373      173.567       22.814        0.017      343.155       19.067      865.788
07/31/2014  07:37:00     -117.238      -97.700        1.032       59.538       59.022       29.195     3544.790     3483.636      852.324        1.558        0.394      152.610       27.110        0.032      343.169       19.089      865.777
07/31/2014  07:38:00      -80.464      -89.738        4.963       70.626       61.019       39.957     4988.092     3723.265     1596.590        1.243        0.515      120.530       35.751        0.088      343.296       19.307      865.776
07/31/2014  07:39:00     -128.270     -109.331       -1.132       80.669       52.407       35.993     6507.564     2746.480     1295.483        1.948        0.527      168.542       38.257        0.052      343.240       19.209      865.770
07/31/2014  07:40:00     -112.998     -112.067        1.894       62.813       51.053       38.376     3945.455     2606.407     1472.727        1.668        0.401      159.146       37.713        0.056      343.271       19.264      865.775
07/31/2014  07:41:00      -63.955      -62.875        6.410       39.564       39.005       23.663     1565.274     1521.421      559.942        0.586        0.182       89.686       20.917        0.054      343.405       19.492      865.782
07/31/2014  07:42:00      -99.477      -72.353        8.264       60.790       43.280       28.087     3695.429     1873.126      788.880        1.078        0.318      123.007       26.197        0.045      343.426       19.529      865.797
07/31/2014  07:43:00      -37.322      -35.108       20.034       56.854       36.630       27.055     3232.398     1341.755      731.998        0.417        0.265       51.240       29.401        0.329      343.691       19.981      865.822
07/31/2014  07:44:00      -53.936     -107.555        0.964       28.400       34.995       20.504      806.545     1224.682      420.397        0.846        0.123      120.321       11.002        0.008      343.358       19.412      865.839
07/31/2014  07:45:00      -31.218      -50.664       -6.986       23.253       30.169       20.949      540.718      910.186      438.869        0.274        0.094       59.509       14.450        0.059      343.509       19.670      865.853
07/31/2014  07:46:00      -43.008      -44.508       -0.093       27.448       40.866       14.298      753.387     1670.065      204.439        0.323        0.131       61.892       17.970        0.084      343.594       19.815      865.866
07/31/2014  07:47:00      -68.100      -60.236       -8.048       32.125       30.611       24.296     1032.038      937.005      590.288        0.544        0.128       90.917       16.976        0.035      343.582       19.795      865.871
07/31/2014  07:48:00      -87.663      -59.117        4.817       64.941       49.606       24.228     4217.303     2460.722      587.017        0.923        0.363      105.734       24.788        0.055      343.515       19.682      865.868
07/31/2014  07:49:00     -100.053      -91.751       -3.329       50.964       39.508       30.789     2597.354     1560.845      947.989        1.177        0.255      135.753       20.930        0.024      343.494       19.645      865.863
07/31/2014  07:50:00      -72.982      -61.074        0.678       29.836       39.176       18.379      890.193     1534.750      337.791        0.591        0.138       95.165       11.294        0.014      343.548       19.737      865.850
07/31/2014  07:51:00      -67.009      -63.083        8.724       53.726       35.592       31.198     2886.479     1266.773      973.338        0.684        0.256       92.030       30.844        0.112      343.778       20.128      865.838
07/31/2014  07:52:00      -60.075      -74.393       10.390       52.745       44.199       28.321     2782.016     1953.568      802.079        0.739        0.277       95.620       24.675        0.067      343.719       20.027      865.836
07/31/2014  07:53:00      -85.073      -11.499        3.971       55.238       46.376       26.538     3051.235     2150.770      704.246        0.664        0.295       85.847       26.990        0.099      343.851       20.254      865.840
07/31/2014  07:54:00      -49.342      -27.974        5.827       42.937       35.033       22.987     1843.548     1227.325      528.382        0.342        0.180       56.720       19.536        0.119      343.868       20.283      865.848
07/31/2014  07:55:00      -71.075      -46.666       -5.615       16.800       17.621       15.641      282.246      310.491      244.643        0.405        0.042       85.025        9.177        0.012      343.826       20.212      865.847
07/31/2014  07:56:00      -68.329        8.847       -4.935       42.689       36.510       27.010     1822.328     1332.950      729.553        0.433        0.194       68.900       28.507        0.171      343.904       20.345      865.849
07/31/2014  07:57:00      -71.943      -32.278      -21.985       42.814       42.865       25.227     1833.053     1837.449      636.392        0.550        0.215       78.852       13.591        0.030      343.935       20.398      865.837
07/31/2014  07:58:00      -50.385       22.324       12.395       24.053       25.845       25.492      578.552      667.957      649.863        0.254        0.095       55.109       19.959        0.131      344.260       20.952      865.829
07/31/2014  07:59:00      -42.072       20.657        4.284       17.158       13.716       16.001      294.409      188.133      256.046        0.148        0.037       46.870        8.303        0.031      344.145       20.758      865.816
07/31/2014  08:00:00       -3.062      -46.400      -19.773       29.083       44.506       19.908      845.844     1980.777      396.339        0.289        0.161       46.501       15.549        0.112      344.236       20.911      865.799
07/31/2014  08:01:00      -14.807      -25.171       17.841       23.149       47.782       18.204      535.890     2283.088      331.372        0.216        0.158       29.204       15.727        0.290      344.568       21.481      865.779
07/31/2014  08:02:00      -67.006      -66.020       -2.425       39.478       29.473       27.004     1558.538      868.681      729.217        0.600        0.158       94.066       18.422        0.038      344.288       21.000      865.765
07/31/2014  08:03:00     -134.553      -82.315       -0.930       78.893       57.086       37.858     6224.148     3258.831     1433.197        1.790        0.546      157.735       35.214        0.050      344.339       21.085      865.759
07/31/2014  08:04:00     -116.429     -111.211       -0.856       68.439       52.566       40.279     4683.844     2763.199     1622.421        1.750        0.453      161.008       43.991        0.075      344.359       21.121      865.754
07/31/2014  08:05:00      -27.907     -108.141        7.877       37.233       44.250       27.265     1386.264     1958.094      743.361        0.831        0.204      111.684       21.782        0.038      344.356       21.116      865.757
07/31/2014  08:06:00      -72.438     -148.271       -2.814       48.709       52.211       26.802     2372.597     2725.990      718.350        1.653        0.291      165.020       28.294        0.029      344.368       21.136      865.764
07/31/2014  08:07:00      -53.888     -124.624        9.005       51.638       58.040       27.215     2666.508     3368.679      740.674        1.264        0.339      135.776       31.830        0.055      344.427       21.237      865.778
07/31/2014  08:08:00      -50.062      -35.179      -11.703       45.784       31.292       20.033     2096.175      979.184      401.307        0.368        0.174       61.186       12.394        0.041      344.399       21.189      865.785
07/31/2014  08:09:00       -7.650       -3.920       24.111       38.507       32.084       23.744     1482.771     1029.377      563.785        0.186        0.154        8.596       22.899        7.097      345.045       22.296      865.795
07/31/2014  08:10:00      -57.342      -17.990       -0.686       39.396       31.833       16.827     1552.007     1013.362      283.138        0.323        0.142       60.098       13.262        0.049      344.326       21.066      865.792
07/31/2014  08:11:00      -92.437      -37.764      -10.748       55.720       26.219       20.639     3104.669      687.416      425.954        0.715        0.211       99.853       25.789        0.067      344.363       21.129      865.792
07/31/2014  08:12:00      -64.236      -18.471       -2.244       31.530       24.488       18.386      994.170      599.659      338.046        0.320        0.097       66.838        9.254        0.019      344.316       21.049      865.788
07/31/2014  08:13:00      -71.173      -25.087      -12.702       23.613       26.179       19.125      557.590      685.345      365.765        0.373        0.080       75.465       13.125        0.030      344.295       21.011      865.792
07/31/2014  08:14:00      -69.408      -49.524       -9.520       41.503       42.410       23.074     1722.518     1798.649      532.423        0.571        0.203       85.265       20.736        0.059      344.350       21.106      865.802
07/31/2014  08:15:00      -53.461      -65.405       -1.486       20.852       21.792       20.185      434.804      474.909      407.427        0.423        0.066       84.475       12.724        0.023      344.235       20.909      865.805
07/31/2014  08:16:00      -30.279      -56.189        0.002       25.776       24.911       15.432      664.409      620.575      238.146        0.280        0.076       63.828       12.364        0.038      344.306       21.030      865.803
07/31/2014  08:17:00      -63.666      -55.414        0.252       27.404       37.061       22.061      750.976     1373.554      486.690        0.487        0.131       84.404       19.565        0.054      344.346       21.099      865.806
07/31/2014  08:18:00      -61.622       -6.185       -2.832       34.956       32.691       19.543     1221.910     1068.705      381.916        0.326        0.134       61.931       17.269        0.078      344.496       21.357      865.804
07/31/2014  08:19:00      -33.907       20.213       22.876       30.356       18.560       17.924      921.475      344.482      321.271        0.183        0.079       39.474       10.266        0.068      344.987       22.198      865.812
07/31/2014  08:20:00      -65.719       13.561        4.101       25.778       15.657       14.391      664.514      245.138      207.090        0.282        0.056       67.104       13.195        0.039      344.393       21.179      865.815
07/31/2014  08:21:00      -31.126        0.448       -0.481       27.516       15.181       12.347      757.128      230.459      152.452        0.105        0.057       31.129        6.550        0.044      344.534       21.419      865.828
07/31/2014  08:22:00        1.483      -13.646       17.996       11.103       15.366       14.120      123.278      236.110      199.362        0.054        0.028       13.726       11.619        0.716      345.408       22.919      865.836
07/31/2014  08:23:00       -8.086       -3.355       16.958       22.859       15.487       16.481      522.543      239.848      271.630        0.070        0.052        8.755       11.354        1.682      345.377       22.866      865.849
07/31/2014  08:24:00      -38.378       -8.975       -3.310       32.121       21.165       16.344     1031.743      447.967      267.114        0.166        0.087       39.413       14.296        0.132      344.680       21.671      865.853
07/31/2014  08:25:00      -68.615       -3.347       -1.169       19.159       27.439       22.386      367.058      752.905      501.126        0.317        0.081       68.696       19.530        0.081      344.552       21.454      865.862
07/31/2014  08:26:00      -28.904      -54.934        1.712       39.646       39.495       24.036     1571.774     1559.881      577.722        0.378        0.185       62.074       22.375        0.130      344.666       21.647      865.875
07/31/2014  08:27:00      -62.093      -18.851        0.807       35.252       26.095       20.571     1242.722      680.926      423.175        0.328        0.117       64.892       10.156        0.024      344.622       21.572      865.883
07/31/2014  08:28:00      -89.385      -38.550       -0.945       37.732       24.980       14.829     1423.711      624.020      219.888        0.587        0.113       97.343        7.871        0.007      344.525       21.406      865.891
07/31/2014  08:29:00      -41.493      -46.815        4.949       29.306       38.899       23.685      858.833     1513.165      560.999        0.343        0.147       62.556       17.849        0.081      344.698       21.702      865.898
07/31/2014  08:30:00      -52.964      -56.446       -1.516       24.679       35.216       11.126      609.047     1240.182      123.782        0.398        0.099       77.403       14.987        0.037      344.481       21.332      865.909
07/31/2014  08:31:00      -76.023       -7.315       -6.510       25.691       20.780       18.192      660.051      431.814      330.962        0.365        0.071       76.374       16.665        0.048      344.577       21.495      865.902
07/31/2014  08:32:00      -30.276       15.257       29.590       29.098       23.756       21.795      846.679      564.331      475.014        0.196        0.094       33.902       16.759        0.244      345.232       22.616      865.910
07/31/2014  08:33:00      -19.741       13.387       22.323       26.410       19.524       24.041      697.485      381.179      577.990        0.136        0.083       23.852       17.406        0.532      345.298       22.729      865.914
07/31/2014  08:34:00      -49.950       -0.603        1.629       31.100       26.341       13.536      967.238      693.831      183.219        0.217        0.092       49.954        9.911        0.039      344.886       22.023      865.913
07/31/2014  08:35:00      -57.184      -48.384        5.812       21.820       25.936       19.780      476.113      672.695      391.245        0.359        0.077       74.907       15.740        0.044      344.837       21.938      865.923
07/31/2014  08:36:00      -31.607       -3.822       19.624       28.605       39.816       22.668      818.271     1585.340      513.857        0.216        0.146       31.837       19.973        0.394      345.220       22.594      865.925
07/31/2014  08:37:00      -26.465       10.983       13.885       18.087       18.130       16.365      327.137      328.712      267.804        0.097        0.046       28.653       13.489        0.222      345.430       22.955      865.918
07/31/2014  08:38:00      -28.880       -2.841        6.686       16.590       10.680       12.731      275.236      114.057      162.068        0.072        0.028       29.019       12.122        0.174      345.163       22.499      865.909
07/31/2014  08:39:00       -9.115       -6.078        8.745       31.304       33.923       25.821      979.925     1150.759      666.741        0.150        0.140       10.956       16.312        2.217      345.458       23.005      865.910
07/31/2014  08:40:00      -49.192      -10.742        3.923       21.767       30.341       16.925      473.801      920.582      286.470        0.212        0.084       50.351       13.701        0.074      344.928       22.096      865.912
07/31/2014  08:41:00      -17.699      -28.409       10.164       26.989       33.809       16.858      728.422     1143.072      284.181        0.169        0.108       33.472       19.236        0.330      345.423       22.944      865.909
07/31/2014  08:42:00      -48.361      -12.330       -2.785       25.968       20.110       17.039      674.312      404.397      290.316        0.193        0.068       49.908       13.057        0.068      344.988       22.198      865.906
07/31/2014  08:43:00      -55.782      -67.059        3.352       49.187       52.149       23.985     2419.384     2719.555      575.298        0.667        0.286       87.227       31.978        0.134      345.108       22.403      865.895
07/31/2014  08:44:00      -46.704      -24.238       -5.774       26.130       29.795       14.490      682.765      887.735      209.947        0.229        0.089       52.619       10.176        0.037      344.826       21.920      865.880
07/31/2014  08:45:00      -56.642      -12.838        0.653       34.730       30.057       18.798     1206.145      903.419      353.378        0.292        0.123       58.079       10.146        0.031      344.989       22.200      865.877
07/31/2014  08:46:00      -73.848      -51.108       10.810       45.517       34.975       25.630     2071.819     1223.273      656.879        0.607        0.198       89.808       22.247        0.061      345.080       22.355      865.876
07/31/2014  08:47:00      -48.547      -65.730        8.056       49.604       46.149       24.949     2460.605     2129.749      622.433        0.598        0.261       81.715       23.782        0.085      345.079       22.353      865.874
07/31/2014  08:48:00      -54.462      -68.673       -7.936       19.864       36.944       19.303      394.598     1364.836      372.615        0.494        0.107       87.647        5.975        0.005      344.832       21.932      865.875
07/31/2014  08:49:00      -49.347      -44.800        4.498       37.244       35.968       16.205     1387.121     1293.701      262.608        0.370        0.147       66.650       12.953        0.038      344.952       22.136      865.881
07/31/2014  08:50:00      -73.097      -99.278       -6.104       36.835       31.854       19.725     1356.838     1014.686      389.074        0.900        0.138      123.286       15.056        0.015      344.864       21.985      865.882
07/31/2014  08:51:00      -42.678      -71.777        0.462       28.894       42.083       12.524      834.856     1770.956      156.854        0.487        0.138       83.507       14.937        0.032      344.955       22.141      865.870
07/31/2014  08:52:00      -28.193       -9.268       10.179       36.276       25.823       22.856     1315.931      666.851      522.379        0.174        0.125       29.678       24.434        0.678      345.592       23.232      865.859
07/31/2014  08:53:00      -23.629       -7.828       14.140       44.217       26.296       27.959     1955.182      691.506      781.730        0.212        0.171       24.892       29.046        1.362      345.876       23.720      865.847
07/31/2014  08:54:00      -32.835      -31.189       22.115       48.178       45.398       25.090     2321.086     2060.955      629.532        0.377        0.251       45.287       26.364        0.339      345.672       23.372      865.833
07/31/2014  08:55:00      -96.361      -66.821       -4.138       19.421       30.932       17.039      377.192      956.776      290.337        0.770        0.081      117.262       11.470        0.010      344.981       22.186      865.824
07/31/2014  08:56:00      -59.252      -69.267        3.231       37.389       34.622       24.547     1397.926     1198.652      602.572        0.576        0.160       91.152       25.161        0.076      345.264       22.671      865.805
07/31/2014  08:57:00      -87.209      -32.833       -8.031       26.561       32.918       17.713      705.495     1083.598      313.758        0.543        0.105       93.185        5.151        0.003      345.122       22.427      865.796
07/31/2014  08:58:00      -65.796       17.225        0.930       41.873       29.815       20.558     1753.366      888.941      422.622        0.385        0.153       68.013       17.824        0.069      345.352       22.819      865.783
07/31/2014  08:59:00      -44.394      -34.682        3.138       20.337       19.302       11.313      413.581      372.571      127.989        0.205        0.046       56.336        6.053        0.012      345.368       22.849      865.780
07/31/2014  09:00:00      -19.780       -1.918       23.864       36.889       33.952       26.138     1360.800     1152.765      683.201        0.208        0.160       19.873       24.242        1.488      346.394       24.610      865.772
07/31/2014  09:01:00      -35.059      -31.440        4.017       35.131       48.040       28.555     1234.158     2307.803      815.386        0.329        0.218       47.091       22.185        0.222      345.638       23.311      865.764
07/31/2014  09:02:00      -29.437      -25.658       12.546       37.969       52.414       36.648     1441.674     2747.216     1343.067        0.361        0.277       39.050       41.491        1.129      346.001       23.935      865.769
07/31/2014  09:03:00      -25.720      -46.435       17.439       40.185       46.690       20.402     1614.851     2179.983      416.242        0.367        0.211       53.082       14.526        0.075      345.811       23.609      865.776
07/31/2014  09:04:00      -18.032      -21.496       52.117       26.418       61.533       32.680      697.892     3786.322     1067.953        0.453        0.278       28.058       28.633        1.041      346.318       24.479      865.770
07/31/2014  09:05:00       14.057        2.937       61.395       29.444       41.106       27.404      866.947     1689.672      750.997        0.364        0.165       14.361       26.551        3.418      346.030       23.984      865.781
07/31/2014  09:06:00        8.157       45.993       64.641       29.812       44.712       22.086      888.761     1999.153      487.772        0.487        0.169       46.711       24.873        0.284      345.755       23.513      865.788
07/31/2014  09:07:00       -3.452       19.231       25.675       20.048       37.061       30.590      401.913     1373.522      935.731        0.188        0.136       19.539       23.066        1.394      346.342       24.522      865.798
07/31/2014  09:08:00       -1.299       55.855       81.911       31.960       44.615       35.255     1021.468     1990.477     1242.891        0.704        0.213       55.871       34.960        0.392      346.490       24.776      865.807
07/31/2014  09:09:00       19.370       59.547       80.444       38.828       43.860       28.967     1507.631     1923.741      839.075        0.733        0.214       62.618       27.092        0.187      346.029       23.983      865.809
07/31/2014  09:10:00      -12.051       34.621       71.733       24.521       36.740       24.195      601.283     1349.862      585.401        0.451        0.127       36.658       25.318        0.477      346.387       24.598      865.827
07/31/2014  09:11:00      -37.974      -31.806        2.403       28.134       26.619       18.366      791.530      708.576      337.324        0.215        0.092       49.534       15.184        0.094      345.814       23.613      865.825
07/31/2014  09:12:00      -23.097      -44.924        5.098       30.332       40.738       26.861      920.047     1659.590      721.488        0.294        0.165       50.513       14.302        0.080      345.869       23.708      865.826
07/31/2014  09:13:00      -32.826       -3.419       11.806       16.058       15.786       14.152      257.852      249.188      200.289        0.097        0.035       33.004       13.338        0.163      346.080       24.071      865.830
07/31/2014  09:14:00       55.892      -37.038       15.253       49.014       91.306       50.343     2402.367     8336.701     2534.422        0.900        0.664       67.050       57.612        0.738      346.218       24.308      865.826
07/31/2014  09:15:00        1.472       28.818       52.570       37.102       53.819       33.544     1376.533     2896.505     1125.221        0.450        0.270       28.856        8.026        0.077      346.055       24.027      865.805
07/31/2014  09:16:00      -41.076      -39.038       14.117       47.062       46.984       30.530     2214.875     2207.529      932.088        0.438        0.268       56.667       30.326        0.286      345.866       23.702      865.786
07/31/2014  09:17:00      -33.634      -37.984       17.525       45.253       35.747       22.957     2047.878     1277.883      527.009        0.337        0.193       50.734       26.114        0.265      345.992       23.918      865.771
07/31/2014  09:18:00      -44.287      -19.810       -2.459       15.313       20.644       12.245      234.474      426.182      149.936        0.159        0.041       48.516        9.617        0.039      345.642       23.321      865.745
07/31/2014  09:19:00      -62.594        0.976       -2.923       11.427       12.288        9.133      130.583      151.000       83.406        0.215        0.018       62.602        8.116        0.017      345.584       23.218      865.731
07/31/2014  09:20:00       -2.624      -54.410        0.752       60.649       40.083       27.340     3678.251     1606.633      747.451        0.450        0.302       54.473       28.629        0.276      345.839       23.656      865.708
07/31/2014  09:21:00      -12.757      -35.436       17.978       29.999       42.554       26.824      899.968     1810.869      719.532        0.259        0.172       37.662       23.241        0.381      346.583       24.936      865.688
07/31/2014  09:22:00      -12.926       25.357       32.668       29.894       22.368       21.800      893.641      500.324      475.257        0.187        0.093       28.462       19.280        0.459      346.689       25.118      865.671
07/31/2014  09:23:00       19.907       52.758       63.259       38.545       35.318       28.025     1485.726     1247.392      785.420        0.535        0.176       56.389       21.132        0.140      346.337       24.511      865.654
07/31/2014  09:24:00       29.021       -6.741       16.538       59.510       44.977       39.981     3541.440     2022.941     1598.505        0.416        0.358       29.793       30.031        1.016      346.408       24.634      865.647
07/31/2014  09:25:00       11.660       35.912       71.168       40.821       48.941       38.184     1666.381     2395.190     1458.015        0.600        0.276       37.758       35.104        0.864      346.610       24.982      865.644
07/31/2014  09:26:00       21.455       84.983      105.526       31.633       46.189       23.032     1000.657     2133.430      530.496        1.124        0.183       87.650       27.323        0.097      346.201       24.278      865.639
07/31/2014  09:27:00        3.716       86.891       76.237       24.262       36.129       25.251      588.632     1305.303      637.624        0.795        0.127       86.971       16.263        0.035      346.465       24.732      865.621
07/31/2014  09:28:00       24.177       43.425       29.384       34.669       29.025       38.533     1201.965      842.424     1484.770        0.343        0.176       49.701       21.800        0.192      346.596       24.958      865.620
07/31/2014  09:29:00       16.814       46.777       56.060       36.587       31.088       28.138     1338.637      966.471      791.722        0.435        0.155       49.707       23.493        0.223      346.928       25.530      865.614
07/31/2014  09:30:00        8.432       15.184       54.436       25.367       33.439       20.915      643.472     1118.185      437.443        0.273        0.110       17.368       15.524        0.799      347.217       26.027      865.622
07/31/2014  09:31:00      -10.124        7.276       57.746       16.832       26.478       16.669      283.316      701.104      277.869        0.238        0.063       12.468       15.587        1.563      347.648       26.770      865.614
07/31/2014  09:32:00      -21.693      -30.754        8.254       29.530       28.785       28.472      872.032      828.601      810.656        0.200        0.126       37.635       27.166        0.521      346.745       25.215      865.617
07/31/2014  09:33:00      -35.013      -45.789       -4.687       34.556       25.885       16.985     1194.109      670.056      288.501        0.275        0.108       57.642       13.232        0.053      346.315       24.474      865.607
07/31/2014  09:34:00      -50.609      -36.157       -2.338       19.905       20.841       12.772      396.195      434.352      163.127        0.243        0.050       62.198        9.254        0.022      346.146       24.184      865.601
07/31/2014  09:35:00      -13.534       -5.975       22.531       16.230       20.979       17.843      263.401      440.132      318.362        0.087        0.051       14.794       16.963        1.315      347.151       25.914      865.604
07/31/2014  09:36:00       16.475      -54.255       23.358       38.201       49.086       35.899     1459.333     2409.447     1288.713        0.446        0.258       56.701       19.510        0.118      347.049       25.737      865.597
07/31/2014  09:37:00       16.457      -23.715       36.533       30.031       46.873       31.510      901.884     2197.125      992.905        0.313        0.205       28.866       21.136        0.536      347.427       26.391      865.596
07/31/2014  09:38:00        9.945      -85.778      -14.217       38.674       44.645       30.448     1495.642     1993.205      927.094        0.604        0.221       86.353       16.163        0.035      346.596       24.957      865.597
07/31/2014  09:39:00       -2.556      -43.606       20.806       32.672       37.448       28.087     1067.438     1402.390      788.877        0.280        0.163       43.680       20.391        0.218      346.883       25.454      865.602
07/31/2014  09:40:00      -22.088      -38.768        1.696       27.214       33.138       19.436      740.597     1098.114      377.742        0.210        0.111       44.619        5.989        0.018      346.510       24.811      865.601
07/31/2014  09:41:00       -3.188     -117.841       -4.902       66.931       49.472       39.050     4479.778     2447.476     1524.930        1.118        0.423      117.884       35.661        0.092      346.391       24.605      865.595
07/31/2014  09:42:00        0.677       53.004       83.859       33.969       53.611       37.926     1153.909     2874.098     1438.379        0.765        0.273       53.008       39.205        0.547      346.776       25.268      865.602
07/31/2014  09:43:00      -14.067       24.224       62.862       28.155       40.669       24.176      792.692     1653.952      584.498        0.388        0.152       28.012       24.363        0.756      347.254       26.091      865.595
07/31/2014  09:44:00        6.064       10.514       43.988       25.120       57.742       30.242      631.019     3334.181      914.582        0.348        0.244       12.138       32.873        7.335      346.842       25.382      865.601
07/31/2014  09:45:00       49.879       14.931        5.739       34.414       24.652       31.449     1184.352      607.709      989.022        0.276        0.139       52.066        9.250        0.032      346.437       24.684      865.602
07/31/2014  09:46:00       -3.295       16.934       13.688       16.612       18.995       27.072      275.965      360.811      732.917        0.093        0.068       17.251       21.983        1.624      346.899       25.479      865.609
07/31/2014  09:47:00       41.427       34.196       45.921       33.509       33.507       23.592     1122.836     1122.738      556.564        0.390        0.140       53.717       10.825        0.041      346.808       25.323      865.599
07/31/2014  09:48:00        4.797       10.069       29.928       23.988       42.006       20.746      575.405     1764.534      430.387        0.189        0.139       11.153       16.278        2.130      347.151       25.912      865.605
07/31/2014  09:49:00      -43.094      -77.434       -2.333       39.748       36.157       19.661     1579.917     1307.360      386.557        0.557        0.164       88.618        9.261        0.011      346.300       24.447      865.601
07/31/2014  09:50:00      -48.440      -78.343        5.214       46.057       41.249       26.489     2121.262     1701.470      701.648        0.652        0.226       92.108       30.293        0.108      346.443       24.695      865.602
07/31/2014  09:51:00     -113.129      -53.215      -12.571       30.046       31.698       22.689      902.785     1004.772      514.800        0.910        0.121      125.020       12.282        0.010      346.374       24.576      865.595
07/31/2014  09:52:00      -60.594      -24.934       -4.824       41.066       25.894       15.724     1686.412      670.486      247.256        0.346        0.130       65.524       15.590        0.057      346.414       24.645      865.596
07/31/2014  09:53:00      -85.971      -77.419       -0.478       46.250       34.029       22.221     2139.071     1157.949      493.788        0.859        0.190      115.692       26.444        0.052      346.388       24.599      865.589
07/31/2014  09:54:00      -25.191       -9.117       25.538       39.056       30.911       24.457     1525.367      955.488      598.133        0.222        0.154       26.790       24.998        0.871      347.140       25.894      865.565
07/31/2014  09:55:00      -45.404       20.225       27.160       48.052       30.351       29.193     2309.008      921.188      852.247        0.364        0.204       49.705       31.457        0.401      347.168       25.945      865.560
07/31/2014  09:56:00      -75.966        5.202        1.617       48.365       33.581       16.228     2339.192     1127.701      263.344        0.476        0.187       76.144       13.605        0.032      346.429       24.672      865.546
07/31/2014  09:57:00      -72.530      -13.407       -8.737       38.606       29.277       23.719     1490.444      857.165      562.584        0.421        0.146       73.758       20.953        0.081      346.507       24.805      865.543
07/31/2014  09:58:00      -17.341        0.073       23.199       26.786       31.174       19.249      717.473      971.825      370.521        0.145        0.103       17.341       15.581        0.807      347.361       26.275      865.525
07/31/2014  09:59:00      -11.386      -14.358       17.435       20.085       23.904       24.126      403.407      571.399      582.051        0.110        0.078       18.325       12.848        0.492      347.503       26.519      865.526
07/31/2014  10:00:00       15.130       39.982       63.240       42.281       39.592       34.971     1787.653     1567.515     1222.950        0.520        0.229       42.749       31.489        0.543      347.388       26.320      865.516
07/31/2014  10:01:00       57.670      -26.659       24.592       43.908       51.402       39.091     1927.913     2642.140     1528.144        0.537        0.305       63.534       40.948        0.415      346.913       25.505      865.516
07/31/2014  10:02:00       23.580       16.580       28.641       28.195       28.568       23.542      794.961      816.108      554.240        0.191        0.108       28.826       18.493        0.412      347.262       26.104      865.522
07/31/2014  10:03:00        8.157      -55.624       10.634       28.314       48.298       24.511      801.687     2332.679      600.788        0.350        0.187       56.219       16.813        0.089      347.170       25.946      865.515
07/31/2014  10:04:00       53.279      -55.067        3.049       33.874       56.908       38.930     1147.477     3238.494     1515.533        0.589        0.295       76.622       39.272        0.263      347.053       25.744      865.522
07/31/2014  10:05:00       23.677       58.210       61.271       37.556       33.609       22.548     1410.453     1129.563      508.412        0.538        0.152       62.841       20.187        0.103      347.240       26.066      865.521
07/31/2014  10:06:00        5.732       48.676       83.899       41.143       42.354       19.250     1692.743     1793.825      370.553        0.665        0.193       49.012       15.436        0.099      347.432       26.398      865.518
07/31/2014  10:07:00       23.676       53.917       31.187       36.443       35.070       36.911     1328.099     1229.938     1362.424        0.418        0.196       58.886       20.769        0.124      347.183       25.969      865.526
07/31/2014  10:08:00      -38.779      -54.916       11.327       28.088       35.453       27.230      788.944     1256.920      741.480        0.372        0.139       67.228       13.445        0.040      347.231       26.051      865.523
07/31/2014  10:09:00      -17.684      -37.905       14.887       34.891       63.181       37.178     1217.407     3991.874     1382.237        0.428        0.330       41.828       26.519        0.402      347.274       26.125      865.529
07/31/2014  10:10:00       -5.922       48.934       85.531       19.961       46.677       25.161      398.444     2178.775      633.058        0.648        0.161       49.291       26.703        0.293      347.612       26.707      865.525
07/31/2014  10:11:00       21.469       64.877       88.241       42.276       38.551       24.849     1787.287     1486.153      617.455        0.817        0.195       68.337       26.566        0.151      347.171       25.949      865.525
07/31/2014  10:12:00       29.591       23.587       45.233       41.898       26.463       27.886     1755.437      700.314      777.641        0.336        0.162       37.842       17.498        0.214      347.412       26.363      865.530
07/31/2014  10:13:00       27.803       28.326       32.023       27.147       26.942       21.299      736.947      725.869      453.666        0.226        0.096       39.691       15.239        0.147      347.568       26.632      865.519
07/31/2014  10:14:00        9.108       12.515       32.626       29.061       23.257       20.429      844.545      540.886      417.329        0.155        0.090       15.478       19.185        1.536      347.467       26.459      865.531
07/31/2014  10:15:00      -34.750      -18.505       -0.216       19.652       22.863       15.450      386.181      522.716      238.708        0.135        0.057       39.370       14.180        0.130      347.301       26.172      865.523
07/31/2014  10:16:00       -1.299        7.741       36.657       20.427       27.603       17.159      417.272      761.930      294.438        0.144        0.074        7.849        7.667        0.954      348.226       27.769      865.511
07/31/2014  10:17:00       26.282     -114.932        2.909       47.464       90.294       62.494     2252.852     8153.041     3905.497        1.411        0.716      117.899       67.808        0.331      347.409       26.357      865.502
07/31/2014  10:18:00        3.719       21.876       70.891       26.992       44.784       26.812      728.544     2005.642      718.875        0.448        0.173       22.189       19.921        0.806      348.020       27.413      865.497
07/31/2014  10:19:00       -9.551       11.805       61.791       22.689       39.111       25.183      514.774     1529.690      634.176        0.336        0.134       15.185       25.757        2.877      348.265       27.837      865.494
07/31/2014  10:20:00      -15.099      -27.450       20.902       29.864       35.889       25.413      891.835     1287.992      645.843        0.212        0.141       31.329       19.847        0.401      347.718       26.892      865.484
07/31/2014  10:21:00      -52.989      -99.512       -2.362       42.759       48.507       31.708     1828.343     2352.945     1005.372        0.895        0.259      112.741       22.556        0.040      346.853       25.399      865.485
07/31/2014  10:22:00      -34.076       -7.878       -9.144       21.607       15.330       12.304      466.853      235.016      151.377        0.108        0.043       34.975        6.872        0.039      347.071       25.774      865.462
07/31/2014  10:23:00      -30.861        1.560        5.737       23.680       27.672       22.160      560.724      765.747      491.074        0.140        0.091       30.901       18.766        0.369      347.320       26.204      865.449
07/31/2014  10:24:00      -48.899       -6.480       -3.790       39.537       26.659       22.450     1563.196      710.709      503.998        0.261        0.139       49.327       15.986        0.105      347.138       25.892      865.441
07/31/2014  10:25:00     -115.346      -30.630       -5.842       23.645       46.670       21.335      559.094     2178.111      455.199        0.873        0.160      119.344       17.400        0.021      346.962       25.586      865.433
07/31/2014  10:26:00      -89.376        5.027       -9.489       27.913       17.986       16.877      779.151      323.488      284.842        0.475        0.069       89.517       11.766        0.017      346.884       25.453      865.416
07/31/2014  10:27:00      -49.426       31.717        6.249       36.059       26.007       27.348     1300.263      676.387      747.925        0.311        0.136       58.727       27.462        0.219      347.378       26.305      865.399
07/31/2014  10:28:00       -8.766       32.174       16.104       29.509       57.960       32.165      870.783     3359.369     1034.609        0.332        0.263       33.346       12.535        0.141      347.676       26.820      865.383
07/31/2014  10:29:00      -12.419       22.736       24.324       33.840       33.909       22.821     1145.175     1149.818      520.792        0.204        0.141       25.907       21.298        0.676      348.016       27.406      865.368
07/31/2014  10:30:00      -12.127       68.764       18.685       32.178       62.111       27.795     1035.449     3857.752      772.582        0.544        0.283       69.825       31.638        0.205      348.125       27.594      865.356
07/31/2014  10:31:00      -26.485      -25.829        3.047       16.751       19.828       16.638      280.601      393.132      276.834        0.116        0.048       36.994       11.798        0.102      347.650       26.774      865.357
07/31/2014  10:32:00       23.378       14.865       55.618       58.906       71.200       41.825     3469.867     5069.475     1749.290        0.707        0.514       27.704       46.155        2.776      347.690       26.843      865.349
07/31/2014  10:33:00       25.234       11.436       52.892       57.232       49.132       39.175     3275.556     2413.957     1534.662        0.539        0.361       27.704       40.761        2.165      348.084       27.523      865.342
07/31/2014  10:34:00       44.829      -24.155       41.188       37.236       81.612       47.933     1386.549     6660.472     2297.603        0.732        0.517       50.923       54.579        1.149      347.815       27.058      865.346
07/31/2014  10:35:00       12.166       17.809       52.597       25.237       41.443       29.080      636.894     1717.547      845.653        0.322        0.160       21.568       23.457        1.183      348.317       27.927      865.341
07/31/2014  10:36:00        4.183       11.004       50.525       31.675       48.192       25.952     1003.330     2322.474      673.525        0.334        0.200       11.772       29.800        6.408      347.950       27.290      865.332
07/31/2014  10:37:00        1.352      -88.916      -11.965       31.719       34.054       29.393     1006.091     1159.699      863.934        0.554        0.151       88.926       23.780        0.072      347.693       26.848      865.329
07/31/2014  10:38:00      -19.092      -26.337       23.411       25.807       39.355       19.796      665.999     1548.797      391.877        0.211        0.130       32.529       17.575        0.292      348.251       27.811      865.330
07/31/2014  10:39:00        8.557      -78.194        7.860       41.304       60.030       51.337     1706.017     3603.633     2635.439        0.710        0.397       78.661       28.719        0.133      347.966       27.318      865.315
07/31/2014  10:40:00       24.714     -101.296       -2.774       45.487       65.369       49.804     2069.065     4273.085     2480.434        0.985        0.441      104.267       38.818        0.139      347.808       27.044      865.323
07/31/2014  10:41:00      -54.855      -49.737      -10.331       32.424       53.210       19.691     1051.346     2831.350      387.721        0.493        0.214       74.046        8.259        0.012      347.407       26.354      865.318
07/31/2014  10:42:00      -47.304      -31.536        8.331       38.148       33.999       21.916     1455.273     1155.939      480.290        0.320        0.155       56.852       20.007        0.124      347.842       27.105      865.308
07/31/2014  10:43:00      -23.267      -37.491        6.161       44.181       35.364       31.066     1951.927     1250.585      965.099        0.308        0.208       44.124       27.492        0.388      347.983       27.347      865.294
07/31/2014  10:44:00       -1.136      -43.695        1.927       41.117       42.214       30.824     1690.571     1782.041      950.114        0.317        0.221       43.710       26.523        0.368      348.049       27.464      865.293
07/31/2014  10:45:00      -24.829       18.297        4.491       36.167       35.115       34.509     1308.040     1233.069     1190.894        0.235        0.187       30.842       23.999        0.605      348.268       27.841      865.282
07/31/2014  10:46:00      -34.797       17.337       27.664       23.486       32.827       22.711      551.579     1077.640      515.800        0.221        0.107       38.876       19.206        0.244      348.100       27.549      865.286
07/31/2014  10:47:00      -31.473       -6.851       12.731       24.070       15.673       18.035      579.362      245.635      325.250        0.117        0.058       32.210       17.986        0.312      348.578       28.379      865.283
07/31/2014  10:48:00      -20.453      -34.609       13.799       27.301       30.990       21.122      745.324      960.372      446.131        0.198        0.108       40.201       15.640        0.151      348.263       27.833      865.286
07/31/2014  10:49:00      -33.120      -41.540       12.855       39.351       27.295       22.910     1548.540      745.008      524.864        0.290        0.141       53.128       13.651        0.066      348.065       27.490      865.280
07/31/2014  10:50:00      -69.740      -47.934       -1.628       16.392       22.578       21.180      268.692      509.781      448.595        0.420        0.061       84.625       15.668        0.034      347.496       26.507      865.278
07/31/2014  10:51:00      -48.039      -12.107       -5.637       11.588       11.929       10.042      134.275      142.289      100.836        0.143        0.019       49.541        6.308        0.016      347.500       26.512      865.275
07/31/2014  10:52:00      -48.396        4.205       -0.964       26.854       27.256       21.752      721.145      742.878      473.155        0.215        0.097       48.579       14.869        0.094      347.956       27.301      865.267
07/31/2014  10:53:00      -20.438        9.748       13.509       28.145       20.813       23.311      792.163      433.186      543.383        0.123        0.088       22.644       18.623        0.676      348.631       28.469      865.265
07/31/2014  10:54:00       -6.385       21.964       31.716       46.222       28.776       26.598     2136.467      828.065      707.464        0.260        0.184       22.873       21.578        0.890      349.117       29.312      865.254
07/31/2014  10:55:00       -6.018      133.245        2.969       34.841       51.368       29.433     1213.916     2638.623      866.285        1.126        0.236      133.381       28.415        0.045      348.279       27.859      865.250
07/31/2014  10:56:00       33.070       57.307       20.507       38.820       38.844       38.806     1506.988     1508.861     1505.937        0.466        0.226       66.165       30.524        0.213      348.541       28.312      865.245
07/31/2014  10:57:00       -6.870       56.489        9.853       25.670       49.404       31.080      658.934     2440.716      965.967        0.370        0.203       56.905       26.396        0.215      348.672       28.541      865.241
07/31/2014  10:58:00      -16.099       32.342       20.513       19.256       26.106       29.022      370.788      681.549      842.289        0.181        0.095       36.127       18.292        0.256      349.014       29.133      865.243
07/31/2014  10:59:00       -1.216       79.944        4.822       23.275       46.268       26.382      541.746     2140.682      696.002        0.490        0.169       79.954       15.737        0.039      348.698       28.587      865.230
07/31/2014  11:00:00      -13.080       16.389        8.697       24.017       26.203       30.535      576.807      686.598      932.366        0.136        0.110       20.969       11.225        0.287      348.793       28.749      865.233
07/31/2014  11:01:00      -21.979       83.731        2.814       19.804       40.852       29.154      392.188     1668.903      849.981        0.521        0.146       86.568       23.206        0.072      348.358       27.998      865.221
07/31/2014  11:02:00        1.460       17.200       28.955       18.638       26.080       25.644      347.373      680.156      657.598        0.141        0.084       17.262       18.528        1.152      349.166       29.395      865.211
07/31/2014  11:03:00      -12.638       15.050       13.397       17.872       17.373       19.756      319.418      301.819      390.301        0.079        0.051       19.653       10.002        0.259      348.832       28.816      865.212
07/31/2014  11:04:00      -45.869      -15.294        5.825       21.758       27.114       20.479      473.395      735.143      419.379        0.200        0.081       48.352        5.638        0.014      347.935       27.265      865.197
07/31/2014  11:05:00      -16.997      -57.927       -0.229       15.099       24.700       14.400      227.978      610.072      207.360        0.234        0.052       60.370        5.807        0.009      347.813       27.055      865.199
07/31/2014  11:06:00      -20.381      -82.454        1.495       16.365       21.342       13.426      267.821      455.471      180.269        0.406        0.045       84.935        6.698        0.006      347.788       27.010      865.181
07/31/2014  11:07:00        8.735      -15.078       22.159       16.266       36.215       20.846      264.577     1311.560      434.550        0.140        0.101       17.426       15.881        0.831      348.867       28.879      865.172
07/31/2014  11:08:00        4.449       25.244       11.487       22.236       54.811       22.094      494.449     3004.271      488.153        0.239        0.199       25.633       19.411        0.573      348.744       28.666      865.161
07/31/2014  11:09:00       16.168       42.360       18.593       30.625       57.465       27.552      937.912     3302.180      759.091        0.370        0.250       45.341       32.279        0.507      348.913       28.958      865.143
07/31/2014  11:10:00       34.872       71.130       14.341       57.749       66.138       32.298     3334.934     4374.178     1043.177        0.762        0.438       79.218       31.628        0.159      349.047       29.189      865.143
07/31/2014  11:11:00      104.673       66.159      -10.204       41.462       30.262       43.791     1719.066      915.774     1917.686        0.999        0.228      123.828       17.537        0.020      348.084       27.524      865.131
07/31/2014  11:12:00       27.805       27.721       17.498       32.201       23.593       28.066     1036.911      556.623      787.684        0.211        0.119       39.263       10.349        0.069      348.564       28.353      865.122
07/31/2014  11:13:00       38.214       22.582        2.264       36.842       24.833       28.750     1357.348      616.660      826.572        0.239        0.140       44.387       15.139        0.116      348.344       27.973      865.106
07/31/2014  11:14:00       -8.793       88.153        5.040       25.647       50.754       23.200      657.762     2575.933      538.257        0.582        0.189       88.590       23.734        0.072      348.734       28.647      865.102
07/31/2014  11:15:00       -0.639       70.859        3.615       30.526       54.821       29.378      931.855     3005.309      863.065        0.492        0.240       70.862       29.791        0.177      348.961       29.041      865.091
07/31/2014  11:16:00       58.652       49.750       27.725       36.138       35.922       33.931     1305.943     1290.410     1151.282        0.521        0.187       76.909       21.024        0.075      348.619       28.447      865.084
07/31/2014  11:17:00       46.973       11.133        9.150       33.219       24.607       28.122     1103.508      605.497      790.835        0.246        0.125       48.274       11.126        0.053      348.641       28.486      865.078
07/31/2014  11:18:00      -11.128       51.874       13.364       27.357       47.177       28.755      748.427     2225.661      826.867        0.340        0.190       53.054       22.762        0.184      349.340       29.698      865.077
07/31/2014  11:19:00       -8.762       66.747        4.181       31.100       54.216       32.134      967.238     2939.412     1032.579        0.474        0.247       67.319       30.400        0.204      349.131       29.336      865.068
07/31/2014  11:20:00      -38.819      119.915       -1.591       34.290       41.372       36.251     1175.793     1711.642     1314.157        1.004        0.210      126.042       33.095        0.069      349.007       29.119      865.065
07/31/2014  11:21:00       -8.469       48.748       11.131       26.058       44.465       30.312      679.037     1977.118      918.829        0.307        0.179       49.478       27.212        0.302      349.077       29.241      865.056
07/31/2014  11:22:00       12.912       55.054       17.621       33.971       51.424       30.405     1154.035     2644.391      924.449        0.411        0.236       56.548       28.526        0.254      349.216       29.481      865.059
07/31/2014  11:23:00       39.637       38.381       15.752       34.235       21.127       23.053     1172.046      446.346      531.449        0.272        0.107       55.175       13.454        0.059      348.864       28.873      865.046
07/31/2014  11:24:00       -4.898       43.748        1.861       18.172       24.665       27.912      330.228      608.382      779.057        0.183        0.086       44.021       11.830        0.072      349.128       29.330      865.048
07/31/2014  11:25:00      -39.008       24.824      -35.434       48.295       31.963       19.106     2332.365     1021.609      365.036        0.356        0.186       46.237       10.973        0.056      348.315       27.923      865.043
07/31/2014  11:26:00      -72.506      -11.155      -19.670       29.893       24.488       22.716      893.588      599.647      516.037        0.389        0.100       73.359       20.601        0.079      348.339       27.963      865.037
07/31/2014  11:27:00      -37.660        0.157       22.653       31.385       38.403       24.341      985.022     1474.774      592.468        0.249        0.153       37.660       24.210        0.413      349.084       29.255      865.024
07/31/2014  11:28:00       61.520       47.645       27.997       73.495       57.515       29.366     5401.535     3308.022      862.342        0.820        0.479       77.813       24.484        0.099      349.136       29.343      865.020
07/31/2014  11:29:00      116.414      109.549       43.083       54.099       46.500       44.740     2926.738     2162.275     2001.709        1.725        0.355      159.854       28.504        0.032      348.977       29.066      865.019
07/31/2014  11:30:00       99.140       72.951       30.421       55.070       52.032       38.619     3032.677     2707.362     1491.448        1.165        0.362      123.088       23.981        0.038      349.029       29.158      865.029
07/31/2014  11:31:00       57.114       84.448       -8.571       72.446       40.640       43.142     5248.357     1651.635     1861.258        0.961        0.438      101.949       37.274        0.134      348.569       28.360      865.026
07/31/2014  11:32:00      -66.067       -5.884      -11.776       34.694       58.521       28.405     1203.649     3424.756      806.819        0.499        0.272       66.328       20.326        0.094      348.622       28.452      865.018
07/31/2014  11:33:00        8.245       32.149       24.976       41.440       34.778       34.056     1717.233     1209.500     1159.830        0.291        0.204       33.190       31.342        0.892      349.386       29.776      864.995
07/31/2014  11:34:00      111.731       69.611       20.246       80.902       45.923       40.790     6545.114     2108.950     1663.842        1.403        0.516      131.642       32.612        0.061      349.258       29.552      864.996
07/31/2014  11:35:00      179.850       90.602       15.725       75.088       58.438       51.553     5638.140     3415.036     2657.684        2.625        0.586      201.382       42.296        0.044      348.984       29.076      864.988
07/31/2014  11:36:00      116.950       61.540       21.893       76.918       42.049       39.733     5916.439     1768.119     1578.700        1.360        0.463      132.153       25.272        0.037      348.871       28.883      864.987
07/31/2014  11:37:00       64.616      108.397        2.837       71.728       51.559       44.585     5144.912     2658.314     1987.794        1.286        0.490      126.195       32.110        0.065      349.022       29.143      864.969
07/31/2014  11:38:00       89.063       46.688       -2.833       63.023       54.842       28.563     3971.944     3007.625      815.843        0.896        0.390      100.558       24.006        0.057      348.662       28.521      864.970
07/31/2014  11:39:00       72.121       84.248        7.930       56.477       52.652       49.877     3189.614     2772.228     2487.742        1.040        0.422      110.902       33.013        0.089      349.139       29.346      864.954
07/31/2014  11:40:00       47.320       83.287       -1.891       48.894       50.630       45.295     2390.599     2563.405     2051.665        0.809        0.350       95.791       35.146        0.135      349.059       29.209      864.942
07/31/2014  11:41:00       30.728       32.013       15.057       39.606       40.451       30.522     1568.616     1636.319      931.609        0.317        0.207       44.374       19.853        0.200      349.369       29.745      864.933
07/31/2014  11:42:00      112.997       83.218       13.471       41.332       34.324       32.153     1708.305     1178.111     1033.802        1.190        0.196      140.334       15.444        0.012      348.916       28.962      864.921
07/31/2014  11:43:00       23.266       -9.294       46.234       39.696       61.975       32.063     1575.802     3840.847     1028.017        0.460        0.322       25.054       26.505        1.119      349.566       30.090      864.905
07/31/2014  11:44:00       44.395       11.879       61.276       67.332       60.822       43.644     4533.649     3699.358     1904.807        0.800        0.507       45.957       41.748        0.825      349.211       29.472      864.905
07/31/2014  11:45:00       35.162       49.395       29.109       39.206       37.122       56.182     1537.146     1378.012     3156.401        0.530        0.304       60.632       36.667        0.366      348.988       29.087      864.901
07/31/2014  11:46:00       -9.511       27.808       -4.202       11.518       17.696       25.038      132.654      313.159      626.921        0.098        0.054       29.390       10.363        0.124      349.089       29.261      864.892
07/31/2014  11:47:00       31.622      -31.635       12.756       32.848       39.191       26.378     1078.987     1535.964      695.805        0.274        0.166       44.729       24.993        0.312      349.285       29.602      864.865
07/31/2014  11:48:00       16.074        3.415       54.633       45.655       46.221       40.273     2084.375     2136.337     1621.919        0.455        0.292       16.433       41.835        6.481      349.509       29.989      864.855
07/31/2014  11:49:00       45.608       41.302       43.712       39.993       38.768       29.817     1599.425     1502.970      889.079        0.484        0.200       61.530       23.001        0.140      349.175       29.410      864.835
07/31/2014  11:50:00        8.068       -0.879        7.053       61.073       34.742       29.436     3729.917     1206.977      866.466        0.296        0.290        8.116       24.598        9.186      349.078       29.244      864.824
07/31/2014  11:51:00      -50.900      -29.471        6.817       23.282       20.335       19.100      542.052      413.495      364.809        0.241        0.066       58.816       13.446        0.052      348.993       29.095      864.808
07/31/2014  11:52:00      -58.701       21.304        4.885       33.960       40.867       29.477     1153.310     1670.148      868.896        0.381        0.185       62.447       21.308        0.116      349.398       29.797      864.792
07/31/2014  11:53:00      -73.892      115.996      -13.490       48.488       61.777       33.307     2351.061     3816.416     1109.372        1.319        0.364      137.532       23.572        0.029      348.935       28.994      864.780
07/31/2014  11:54:00     -144.933       37.383       -2.377       72.843       50.095       36.499     5306.056     2509.555     1332.150        1.578        0.457      149.677       41.678        0.078      348.829       28.808      864.758
07/31/2014  11:55:00       -0.472       -8.294       39.905       23.561       34.764       24.800      555.128     1208.563      615.043        0.202        0.119        8.307       21.785        6.877      350.044       30.920      864.748
07/31/2014  11:56:00       31.750       14.645       30.212       40.804       33.991       35.668     1664.982     1155.380     1272.226        0.311        0.205       34.964       14.951        0.183      349.999       30.840      864.740
07/31/2014  11:57:00       43.555       79.196       21.172       69.436       77.704       46.497     4821.382     6037.959     2161.931        1.082        0.651       90.382       44.462        0.242      349.842       30.568      864.737
07/31/2014  11:58:00      -26.735       38.277       -4.820       20.946       36.472       30.387      438.747     1330.219      923.373        0.245        0.135       46.690       19.815        0.180      349.387       29.778      864.725
07/31/2014  11:59:00       -2.774       55.007       36.297       24.561       38.674       32.412      603.258     1495.698     1050.533        0.375        0.157       55.077       24.181        0.193      349.851       30.583      864.704
07/31/2014  12:00:00       38.422       34.254        0.502       44.024       30.586       31.957     1938.101      935.492     1021.256        0.327        0.195       51.474       18.908        0.135      349.529       30.025      864.692
07/31/2014  12:01:00       47.958      -19.142       31.948       50.805       48.962       36.211     2581.175     2397.280     1311.202        0.499        0.314       51.637       32.425        0.394      349.478       29.935      864.675
07/31/2014  12:02:00      -69.406      -46.320        2.572       68.995       47.637       24.505     4760.322     2269.330      600.507        0.730        0.382       83.443       19.509        0.055      349.191       29.437      864.663
07/31/2014  12:03:00     -149.042      -34.460       -7.556       77.473       47.554       29.647     6002.030     2261.375      878.919        1.630        0.457      152.974       30.717        0.040      349.373       29.752      864.662
07/31/2014  12:04:00     -137.264      -26.265       -4.020       58.036       59.107       24.743     3368.152     3493.676      612.239        1.351        0.374      139.754       14.220        0.010      349.538       30.040      864.645
07/31/2014  12:05:00      -96.957       31.836       -8.993       42.542       44.796       29.969     1809.831     2006.711      898.154        0.760        0.236      102.050        6.070        0.004      349.442       29.875      864.663
07/31/2014  12:06:00      -73.861       20.213       -2.787       49.808       27.591       26.146     2480.795      761.242      683.596        0.490        0.196       76.577       24.885        0.106      349.310       29.644      864.663
07/31/2014  12:07:00       -0.908       23.305       14.773       28.177       41.344       27.221      793.942     1709.288      740.986        0.200        0.162       23.322       23.462        1.012      349.956       30.766      864.656
07/31/2014  12:08:00      -33.236        9.886       26.834       42.385       33.376       24.428     1796.463     1113.979      596.723        0.271        0.175       34.675       25.813        0.554      350.229       31.239      864.639
07/31/2014  12:09:00      -80.403      -46.705        3.879       67.133       65.059       26.733     4506.886     4232.713      714.649        0.906        0.473       92.984       26.051        0.078      349.783       30.464      864.641
07/31/2014  12:10:00       23.786      -97.379        7.846       64.177       72.430       51.052     4118.625     5246.109     2606.262        1.104        0.599      100.242       46.812        0.218      349.707       30.332      864.639
07/31/2014  12:11:00      -48.522      -46.578       26.276       41.542       53.550       31.325     1725.697     2867.549      981.236        0.539        0.279       67.260       29.197        0.188      349.879       30.632      864.631
07/31/2014  12:12:00      -56.976      -74.368       -1.408       56.286       63.735       44.458     3168.121     4062.097     1976.522        0.899        0.460       93.685        7.913        0.007      349.719       30.353      864.608
07/31/2014  12:13:00      -38.725      -52.839       17.096       79.189       60.328       38.030     6270.974     3639.486     1446.248        0.797        0.568       65.510       37.603        0.329      349.713       30.343      864.606
07/31/2014  12:14:00      -33.502      -15.488       23.354       49.590       55.560       32.323     2459.142     3086.910     1044.760        0.425        0.330       36.909       38.035        1.062      350.344       31.442      864.579
07/31/2014  12:15:00      -10.386      -67.120       -7.516       59.968       68.609       37.844     3596.167     4707.255     1432.169        0.720        0.487       67.918       27.711        0.166      350.099       31.015      864.566
07/31/2014  12:16:00        5.057       -0.128       47.362       38.812       71.467       57.538     1506.353     5107.536     3310.623        0.609        0.496        5.059       47.173       86.960      349.986       30.818      864.552
07/31/2014  12:17:00       -5.922       37.298       70.761       22.570       36.647       25.991      509.405     1342.999      675.517        0.448        0.126       37.765       24.592        0.424      350.294       31.354      864.540
07/31/2014  12:18:00      -11.152       31.464       35.584       50.103       49.257       39.629     2510.281     2426.298     1570.431        0.444        0.325       33.382       18.853        0.319      350.123       31.055      864.519
07/31/2014  12:19:00      -98.814      -50.533       -9.984       60.889       48.583       38.150     3707.470     2360.303     1455.431        0.997        0.376      110.985       39.751        0.128      349.689       30.303      864.511
07/31/2014  12:20:00      -38.380       30.701        6.560       37.970       44.150       29.155     1441.688     1949.243      850.015        0.335        0.212       49.149       17.954        0.133      349.952       30.759      864.497
07/31/2014  12:21:00     -109.643      -99.075        3.611      107.704       87.319       44.202    11600.252     7624.656     1953.774        2.151        1.059      147.775       44.201        0.089      349.668       30.264      864.501
07/31/2014  12:22:00     -119.820     -135.847      -10.345       36.998      112.415       33.007     1368.848    12637.242     1089.449        2.400        0.755      181.139       30.551        0.028      349.081       29.246      864.502
07/31/2014  12:23:00      -15.359      -70.045      -15.742       66.374       31.141       24.496     4405.531      969.775      600.073        0.568        0.299       71.709       13.790        0.037      349.256       29.551      864.495
07/31/2014  12:24:00      -26.816       64.166       51.961       35.669       35.135       46.065     1272.245     1234.441     2122.018        0.608        0.231       69.544       34.597        0.247      349.853       30.587      864.478
07/31/2014  12:25:00      -17.711      -39.597      -13.839       46.108       47.418       24.332     2125.992     2248.478      592.041        0.352        0.248       43.377       19.870        0.210      349.487       29.952      864.477
07/31/2014  12:26:00        3.493      -39.822       38.255       48.958       38.656       28.202     2396.915     1494.296      795.346        0.387        0.234       39.975       28.208        0.498      349.924       30.710      864.465
07/31/2014  12:27:00       -4.570      -13.262       18.261       40.675       77.969       37.973     1654.482     6079.233     1441.959        0.485        0.459       14.027       40.206        8.215      349.689       30.301      864.453
07/31/2014  12:28:00      -20.327     -112.910      -26.354       53.631       84.475       41.903     2876.268     7135.983     1755.901        1.281        0.588      114.726       34.509        0.090      349.491       29.956      864.443
07/31/2014  12:29:00       56.605      -84.237       15.639       70.603      118.487       51.487     4984.735    14039.099     2650.867        1.611        1.084      101.489       58.784        0.335      349.597       30.140      864.430
07/31/2014  12:30:00      -92.153     -219.567      -19.797       86.036       77.316       47.172     7402.195     5977.764     2225.172        3.635        0.780      238.122       33.533        0.020      349.421       29.834      864.408
07/31/2014  12:31:00       97.363     -121.746       26.978       79.595       70.679       53.089     6335.405     4995.516     2818.439        1.959        0.707      155.890       35.527        0.052      349.720       30.354      864.424
07/31/2014  12:32:00      120.085     -109.184       17.613       68.085       72.915       41.453     4635.500     5316.549     1718.314        1.916        0.584      162.301       34.654        0.046      349.628       30.193      864.416
07/31/2014  12:33:00       14.473       -8.403       33.844       31.286       41.401       33.369      978.836     1714.019     1113.488        0.262        0.190       16.736       26.539        2.515      349.693       30.307      864.403
07/31/2014  12:34:00       13.053      -70.923        5.252       29.816       55.136       27.638      889.019     3039.925      763.834        0.496        0.235       72.114       30.159        0.175      349.905       30.677      864.394
07/31/2014  12:35:00       33.621      -20.825       22.789       53.233       72.670       35.452     2833.717     5280.884     1256.862        0.573        0.469       39.548       33.894        0.734      349.807       30.507      864.382
07/31/2014  12:36:00       58.020     -124.516      -21.705       69.070       56.942       33.650     4770.693     3242.386     1132.345        1.424        0.457      137.370       36.116        0.069      349.601       30.148      864.371
07/31/2014  12:37:00       65.648     -134.786      -21.333       68.255       75.678       50.420     4658.677     5727.204     2542.200        1.793        0.646      149.923       34.981        0.054      349.466       29.913      864.373
07/31/2014  12:38:00       41.932     -112.954      -13.393       52.565       68.581       50.912     2763.129     4703.353     2592.038        1.238        0.503      120.486       34.617        0.083      349.445       29.878      864.383
07/31/2014  12:39:00       -1.652      -51.972       13.430       38.336       60.803       38.957     1469.678     3696.996     1517.617        0.478        0.334       51.998       16.014        0.095      349.477       29.934      864.377
07/31/2014  12:40:00       15.117        0.327       31.552       26.517       31.648       24.348      703.155     1001.620      592.818        0.176        0.115       15.121       22.318        2.178      349.865       30.607      864.377
07/31/2014  12:41:00        1.519      -11.491       21.957       15.076       34.176       21.186      227.285     1167.994      448.855        0.123        0.092       11.591       18.625        2.582      349.623       30.186      864.370
07/31/2014  12:42:00       62.181      -96.738       -2.974       49.721       92.191       42.381     2472.222     8499.267     1796.151        1.300        0.638      114.999       52.067        0.205      349.398       29.796      864.372
07/31/2014  12:43:00       -7.550       19.766       61.676       23.982       54.777       32.561      575.117     3000.517     1060.236        0.444        0.232       21.159       37.988        3.223      349.810       30.512      864.366
07/31/2014  12:44:00      -13.588      -22.005       45.118       32.932       50.053       25.505     1084.512     2505.300      650.496        0.347        0.212       25.862       24.040        0.864      349.871       30.617      864.356
07/31/2014  12:45:00        1.990       30.800       54.328       33.275       26.589       24.243     1107.239      706.968      587.701        0.315        0.120       30.864       23.368        0.573      349.628       30.196      864.346
07/31/2014  12:46:00        4.677        5.678       29.191       17.972       23.840       18.279      322.978      568.342      334.107        0.107        0.061        7.356       14.229        3.741      349.470       29.922      864.339
07/31/2014  12:47:00        6.779       -8.108       22.086       26.429       31.933       27.524      698.509     1019.734      757.563        0.154        0.124       10.568       11.179        1.119      349.404       29.807      864.332
07/31/2014  12:48:00      -22.016      -52.761       10.536       38.750       65.175       32.718     1501.601     4247.811     1070.471        0.510        0.341       57.170       31.596        0.305      349.700       30.321      864.340
07/31/2014  12:49:00       15.394      -98.837        4.803       59.957       54.096       26.318     3594.807     2926.395      692.631        0.862        0.361      100.028       24.214        0.059      349.350       29.714      864.356
07/31/2014  12:50:00      -58.748       -4.558        1.852       44.400       62.921       26.712     1971.403     3958.992      713.508        0.506        0.332       58.925       26.420        0.201      349.390       29.782      864.352
07/31/2014  12:51:00     -137.698       26.762       -9.487       56.230       34.159       25.316     3161.782     1166.858      640.891        1.237        0.248      140.274       23.690        0.029      349.434       29.856      864.332
07/31/2014  12:52:00     -252.999       -0.038       -2.993       89.927       90.584       40.443     8086.815     8205.496     1635.646        4.097        0.896      252.999       37.990        0.023      349.381       29.765      864.306
07/31/2014  12:53:00     -146.727      -56.121        4.149       77.276       67.894       32.541     5971.539     4609.551     1058.949        1.817        0.582      157.094       30.667        0.038      349.408       29.812      864.304
07/31/2014  12:54:00      -80.033      -87.744       -5.348       38.505       56.435       23.396     1482.599     3184.863      547.360        0.967        0.261      118.761       21.234        0.032      349.361       29.731      864.307
07/31/2014  12:55:00      -87.041      -71.501        3.253       54.909       64.080       30.647     3014.956     4106.267      939.252        1.038        0.403      112.644       32.968        0.086      349.467       29.916      864.290
07/31/2014  12:56:00      -86.016      -95.144       -9.032       29.708       49.744       18.232      882.548     2474.463      332.393        1.011        0.184      128.262       14.459        0.013      349.322       29.666      864.279
07/31/2014  12:57:00      -41.466      -39.194       13.675       47.570       37.585       31.608     2262.871     1412.611      999.087        0.406        0.234       57.057       28.912        0.257      349.503       29.979      864.260
07/31/2014  12:58:00      -44.535      -64.553       17.292       52.186       43.324       26.876     2723.382     1876.989      722.302        0.589        0.266       78.425       24.890        0.101      349.533       30.030      864.257
07/31/2014  12:59:00      -90.691      -65.030       -2.812       49.843       60.592       26.959     2484.308     3671.380      726.812        0.967        0.344      111.596       29.978        0.072      349.478       29.935      864.251
07/31/2014  13:00:00      -30.670       -6.591        4.665       51.593       31.525       23.140     2661.887      993.835      535.443        0.260        0.210       31.370       20.692        0.435      349.532       30.029      864.232
07/31/2014  13:01:00      -26.762       -4.714       -5.449       30.515       34.050       22.413      931.195     1159.432      502.358        0.168        0.130       27.174       15.591        0.329      349.544       30.051      864.218
07/31/2014  13:02:00      -17.040      -38.918      -21.133       25.614       36.566       27.505      656.057     1337.095      756.532        0.250        0.137       42.484       11.582        0.074      349.283       29.598      864.221
07/31/2014  13:03:00      -26.116      -21.082        7.246       29.280       45.419       24.513      857.330     2062.904      600.894        0.235        0.176       33.563       24.256        0.522      349.491       29.960      864.218
07/31/2014  13:04:00       -1.027      -60.964       19.676       48.310       59.129       46.844     2333.838     3496.202     2194.339        0.606        0.401       60.972       37.037        0.369      349.586       30.123      864.200
07/31/2014  13:05:00      -18.844      -45.148       -3.737       59.870       49.312       35.841     3584.397     2431.674     1284.603        0.485        0.365       48.923       21.912        0.201      349.568       30.091      864.186
07/31/2014  13:06:00      -58.721      -22.389       14.382       52.539       32.737       29.098     2760.319     1071.698      846.678        0.442        0.234       62.844       30.339        0.233      349.723       30.362      864.192
07/31/2014  13:07:00       -7.428      -22.961       12.825       33.383       20.195       17.005     1114.415      407.827      289.184        0.128        0.091       24.132       13.857        0.330      349.581       30.113      864.190
07/31/2014  13:08:00      -80.854      -25.607        7.045       70.406       34.891       25.123     4957.042     1217.412      631.145        0.702        0.340       84.812       30.124        0.126      349.568       30.091      864.181
07/31/2014  13:09:00     -139.253      -43.674      -14.492       32.196       28.811       13.053     1036.550      830.067      170.378        1.177        0.102      145.941        7.605        0.003      349.313       29.646      864.174
07/31/2014  13:10:00     -104.907      -16.857       -2.016       32.069       28.778       21.621     1028.435      828.172      467.447        0.681        0.116      106.253       17.368        0.027      349.362       29.736      864.175
07/31/2014  13:11:00      -18.755        3.140       19.562       38.437       23.728       21.647     1477.411      562.997      468.576        0.163        0.125       19.016       26.574        1.953      349.718       30.352      864.177
07/31/2014  13:12:00       16.048      -12.532       20.420       32.044       16.093       22.401     1026.798      258.990      501.812        0.131        0.089       20.361       15.796        0.602      349.397       29.796      864.179
07/31/2014  13:13:00       -5.805      -16.581       11.454       23.137       25.791       20.850      535.334      665.169      434.705        0.104        0.082       17.567       19.185        1.193      349.354       29.719      864.173
07/31/2014  13:14:00      -28.218      -22.035        8.374       13.445       15.436       17.003      180.756      238.258      289.099        0.103        0.035       35.802        6.299        0.031      349.516       30.000      864.175
07/31/2014  13:15:00       -8.738      -32.772       15.348       35.433       24.742       26.885     1255.485      612.151      722.807        0.199        0.130       33.917       14.992        0.195      349.599       30.146      864.182
07/31/2014  13:16:00       20.732      -69.681       -3.348       47.776       36.479       31.443     2282.547     1330.714      988.673        0.495        0.230       72.700       28.289        0.151      349.596       30.141      864.183
07/31/2014  13:17:00       33.128     -118.106      -18.530       32.296       41.827       26.792     1043.027     1749.486      717.810        0.945        0.176      122.664       18.191        0.022      349.603       30.152      864.183
07/31/2014  13:18:00       -0.089      -35.844       17.530       25.147       25.579       29.604      632.370      654.260      876.377        0.188        0.108       35.844       14.110        0.155      349.611       30.166      864.196
07/31/2014  13:19:00       -4.462        3.167       32.362       11.615       25.288       13.978      134.918      639.486      195.380        0.102        0.048        5.472       13.893        6.446      349.909       30.684      864.209
07/31/2014  13:20:00        8.896        5.080       23.114       29.415       31.318       19.958      865.259      980.806      398.327        0.144        0.112       10.244       14.846        2.100      349.641       30.220      864.213
07/31/2014  13:21:00       -0.714      -20.479       35.932       30.796       50.961       27.706      948.390     2597.064      767.614        0.301        0.216       20.492       20.974        1.048      349.721       30.356      864.214
07/31/2014  13:22:00      -15.568      -76.325      -11.576       53.801       34.848       21.519     2894.601     1214.387      463.072        0.539        0.229       77.896        9.500        0.015      349.669       30.268      864.211
07/31/2014  13:23:00      -49.522      -72.211       -3.377       36.381       40.481       23.584     1323.602     1638.695      556.183        0.560        0.176       87.561       21.383        0.060      349.609       30.163      864.194
07/31/2014  13:24:00      -59.507      -87.882       -9.256       29.857       47.210       26.102      891.419     2228.763      681.315        0.757        0.190      106.134       20.664        0.038      349.569       30.093      864.192
07/31/2014  13:25:00      -20.894        4.400        3.365       22.365       16.095       20.380      500.199      259.034      415.353        0.082        0.059       21.353       15.171        0.505      349.809       30.512      864.177
07/31/2014  13:26:00      -34.475       19.425       13.882       33.900       18.229       20.923     1149.181      332.290      437.789        0.184        0.096       39.571       19.843        0.251      349.883       30.637      864.162
07/31/2014  13:27:00      -48.101      -71.218        6.591       60.584       42.294       27.189     3670.434     1788.768      739.226        0.681        0.310       85.940       30.418        0.125      349.789       30.475      864.160
07/31/2014  13:28:00     -104.769     -124.910        5.226       56.466       69.921       38.302     3188.457     4888.973     1467.010        1.807        0.477      163.031       38.156        0.055      349.606       30.157      864.153
07/31/2014  13:29:00      -90.032      -76.356        0.430       64.990       48.803       24.094     4223.750     2381.769      580.500        1.056        0.359      118.051       32.499        0.076      349.578       30.108      864.143
07/31/2014  13:30:00     -103.816      -15.965       -5.043       38.529       35.191       22.250     1484.492     1238.418      495.062        0.714        0.161      105.037       18.366        0.031      349.492       29.958      864.131
07/31/2014  13:31:00      -52.691      -45.952        9.442       51.455       42.965       29.373     2647.573     1845.966      862.750        0.517        0.268       69.914       26.486        0.144      349.773       30.449      864.111
07/31/2014  13:32:00      -46.871      -63.758        3.550       50.888       43.215       28.310     2589.587     1867.499      801.474        0.577        0.263       79.132       24.813        0.098      349.673       30.274      864.107
07/31/2014  13:33:00      -15.655        5.047        6.177       33.975       33.233       19.731     1154.285     1104.432      389.331        0.148        0.132       16.448       16.980        1.066      349.816       30.522      864.097
07/31/2014  13:34:00       12.424       14.160       46.306       38.939       28.908       22.586     1516.211      835.685      510.144        0.268        0.143       18.838       19.890        1.115      350.141       31.088      864.086
07/31/2014  13:35:00       51.379        8.542       24.904       35.216       29.450       29.900     1240.185      867.300      894.008        0.317        0.150       52.084       27.228        0.273      349.326       29.672      864.069
07/31/2014  13:36:00       19.510        0.285        6.650       26.289       20.892       20.977      691.105      436.466      440.055        0.100        0.078       19.512       16.833        0.744      349.489       29.956      864.051
07/31/2014  13:37:00        2.538       -6.839        6.638       17.476       10.270       13.804      305.415      105.470      190.561        0.035        0.030        7.295       11.182        2.350      349.825       30.537      864.040
07/31/2014  13:38:00      -84.477       16.304        0.867       52.508       33.401       25.469     2757.089     1115.616      648.691        0.596        0.226       86.036       20.819        0.059      349.696       30.313      864.032
07/31/2014  13:39:00      -86.118      -12.617       16.326       72.904       69.215       34.657     5314.990     4790.766     1201.116        0.957        0.565       87.038       31.801        0.133      350.049       30.927      864.018
07/31/2014  13:40:00     -208.977      -96.677        0.536      115.222       87.841       54.903    13276.045     7716.084     3014.321        3.851        1.200      230.256       49.897        0.047      349.771       30.441      863.997
07/31/2014  13:41:00     -209.628     -118.746        0.713       84.815       62.746       45.375     7193.595     3937.057     2058.894        3.561        0.659      240.924       48.061        0.040      349.651       30.232      863.978
07/31/2014  13:42:00     -130.677      -51.230       -6.551       39.149       40.157       26.571     1532.624     1612.581      706.028        1.180        0.193      140.360       18.845        0.018      349.633       30.205      863.956
07/31/2014  13:43:00     -220.652      -49.294       -7.054      119.189       79.167       48.382    14206.137     6267.459     2340.863        3.699        1.141      226.091       60.035        0.071      349.958       30.765      863.917
07/31/2014  13:44:00     -142.904      -73.979       -0.693      127.809      108.953       49.345    16335.098    11870.663     2434.962        2.826        1.532      160.918       54.159        0.113      350.009       30.854      863.903
07/31/2014  13:45:00     -153.883     -140.553        4.204      112.655       91.464       53.500    12691.216     8365.578     2862.264        3.368        1.196      208.411       59.044        0.080      349.775       30.448      863.879
07/31/2014  13:46:00     -154.240      -77.952       -7.764       87.699       86.632       44.128     7691.109     7505.115     1947.262        2.353        0.857      172.819       34.769        0.040      349.896       30.659      863.883
07/31/2014  13:47:00      -20.847      -93.017       28.649       86.211       74.418       50.359     7432.332     5538.103     2536.035        1.270        0.775       95.325       50.674        0.283      350.288       31.341      863.863
07/31/2014  13:48:00     -155.740      -14.853      -11.126       91.383       94.848       45.594     8350.917     8996.149     2078.818        2.201        0.971      156.446       40.835        0.068      350.374       31.489      863.838
07/31/2014  13:49:00     -310.178       12.551      -35.427       94.698       69.283       40.230     8967.692     4800.196     1618.431        5.650        0.769      310.432       36.504        0.014      349.725       30.360      863.825
07/31/2014  13:50:00     -314.415     -133.445      -22.845       70.014       74.582       39.740     4901.970     5562.548     1579.252        6.461        0.602      341.561       31.892        0.009      349.724       30.360      863.816
07/31/2014  13:51:00     -156.082      -47.146      -20.404       81.325       57.053       31.541     6613.744     3255.078      994.840        1.893        0.543      163.047       36.805        0.051      349.688       30.299      863.819
07/31/2014  13:52:00      -63.387      -12.341       11.241       47.105       42.618       28.681     2218.902     1816.298      822.575        0.458        0.243       64.577       22.533        0.122      350.302       31.367      863.788
07/31/2014  13:53:00      -67.638       21.587        0.648       46.498       25.598       26.215     2162.094      655.248      687.206        0.427        0.175       70.999       31.373        0.195      350.101       31.017      863.763
07/31/2014  13:54:00     -196.716      -28.954      -11.009       56.999       47.300       29.324     3248.870     2237.307      859.903        2.300        0.317      198.835       24.558        0.015      349.944       30.742      863.758
07/31/2014  13:55:00     -107.374      -22.692       -8.445       48.180       49.944       31.159     2321.310     2494.433      970.897        0.895        0.289      109.746       27.672        0.064      349.923       30.708      863.726
07/31/2014  13:56:00     -144.434       45.178      -16.315       49.635       28.632       26.211     2463.594      819.804      687.010        1.357        0.199      151.335       22.626        0.022      349.851       30.582      863.698
07/31/2014  13:57:00     -122.689       38.213        0.744       78.913       76.495       33.778     6227.235     5851.419     1140.979        1.486        0.661      128.502       29.821        0.054      350.386       31.513      863.667
07/31/2014  13:58:00     -157.757       33.459      -23.713       52.144       34.671       26.464     2719.046     1202.077      700.324        1.559        0.231      161.266       26.484        0.027      350.100       31.015      863.641
07/31/2014  13:59:00     -128.938        8.555      -16.738       50.670       54.713       25.333     2567.437     2993.527      641.785        1.159        0.310      129.222       22.613        0.031      350.327       31.409      863.615
07/31/2014  14:00:00      -14.353      -46.145       20.315       39.910       62.008       38.279     1592.793     3844.974     1465.276        0.482        0.345       48.325       40.881        0.716      350.652       31.976      863.586
07/31/2014  14:01:00        3.191        1.658       12.321       29.061       43.997       27.684      844.559     1935.765      766.381        0.186        0.177        3.596       15.561       18.729      350.592       31.871      863.556
07/31/2014  14:02:00       51.449      104.243      -25.990       53.886       49.320       47.425     2903.662     2432.508     2249.166        1.089        0.379      116.248       42.325        0.133      350.327       31.411      863.520
07/31/2014  14:03:00       30.432       40.080        9.342       65.994       60.238       32.710     4355.264     3628.617     1069.950        0.584        0.453       50.325       21.952        0.190      350.468       31.656      863.498
07/31/2014  14:04:00       68.780       44.834        2.940       64.033       41.522       36.371     4100.267     1724.114     1322.864        0.695        0.357       82.103       20.657        0.063      350.545       31.790      863.485
07/31/2014  14:05:00       49.746        3.719       13.619       44.557       37.621       27.742     1985.348     1415.325      769.593        0.342        0.209       49.885       15.112        0.092      350.475       31.667      863.461
07/31/2014  14:06:00       20.131       35.532       -4.189       21.480       41.080       22.392      461.412     1687.560      501.393        0.217        0.133       40.839       14.364        0.124      350.383       31.507      863.455
07/31/2014  14:07:00       17.225       59.298        5.390       60.279       58.318       30.738     3633.556     3400.961      944.826        0.591        0.399       61.749       21.948        0.126      350.381       31.504      863.451
07/31/2014  14:08:00      -58.733      152.104      -15.224       60.693       59.680       35.513     3683.618     3561.658     1261.143        1.766        0.425      163.050       41.135        0.064      350.232       31.243      863.444
07/31/2014  14:09:00     -152.417      -17.748       -2.240      109.708       74.406       36.189    12035.837     5536.204     1309.654        2.121        0.944      153.447       38.942        0.064      350.475       31.666      863.418
07/31/2014  14:10:00     -218.656      -88.930        4.658      134.905       94.034       56.962    18199.273     8842.347     3244.620        4.301        1.514      236.048       68.253        0.084      350.412       31.555      863.404
07/31/2014  14:11:00     -162.406      -72.163       -3.964       76.440       66.779       45.957     5843.118     4459.500     2112.069        2.200        0.621      177.717       42.613        0.057      350.160       31.118      863.396
07/31/2014  14:12:00     -103.607       46.413      -40.732       61.496       71.492       36.843     3781.743     5111.142     1357.407        1.240        0.513      113.527       14.944        0.017      349.926       30.712      863.401
07/31/2014  14:13:00       52.788       63.636       20.062       52.632       50.750       34.484     2770.117     2575.604     1189.179        0.689        0.327       82.681       10.499        0.016      350.284       31.335      863.367
07/31/2014  14:14:00        3.365       19.223       27.134       26.141       37.446       24.005      683.331     1402.238      576.256        0.189        0.133       19.515       12.926        0.439      350.914       32.433      863.333
07/31/2014  14:15:00       63.926      159.962      -12.163       70.966      107.682       45.299     5036.241    11595.436     2052.042        2.425        0.934      172.263       53.869        0.098      350.539       31.777      863.327
07/31/2014  14:16:00      107.772      146.740      -25.988       60.984       71.289       56.976     3719.098     5082.139     3246.256        2.293        0.602      182.064       45.515        0.062      350.012       30.859      863.325
07/31/2014  14:17:00      177.303      113.450        3.000       52.107       35.506       41.155     2715.160     1260.678     1693.742        2.499        0.283      210.493       20.358        0.009      349.894       30.653      863.292
07/31/2014  14:18:00       51.632       26.104        6.693       66.771       30.046       32.089     4458.328      902.734     1029.702        0.489        0.320       57.856       30.015        0.269      350.261       31.296      863.264
07/31/2014  14:19:00       -8.952        6.879       25.387       26.915       25.355       28.203      724.401      642.869      795.419        0.147        0.108       11.290       12.944        1.314      351.005       32.589      863.240
07/31/2014  14:20:00       -1.437       18.696        2.976       55.446       26.776       21.265     3074.283      716.945      452.185        0.230        0.212       18.751       10.067        0.288      350.336       31.426      863.230
07/31/2014  14:21:00      -25.306       16.969       19.488       51.197       36.513       29.304     2621.134     1333.229      858.709        0.306        0.241       30.469       16.717        0.301      350.699       32.057      863.224
07/31/2014  14:22:00      -11.435       13.358       30.107       48.732       38.730       32.989     2374.810     1500.046     1088.256        0.309        0.248       17.583       33.747        3.683      351.165       32.868      863.215
07/31/2014  14:23:00      -89.080       88.046       -1.363       93.091       66.042       51.281     8665.943     4361.545     2629.739        1.567        0.783      125.249       67.100        0.287      350.515       31.735      863.204
07/31/2014  14:24:00     -157.878       35.890      -17.970       51.237       48.735       31.841     2625.263     2375.103     1013.873        1.627        0.301      161.906       25.433        0.025      349.922       30.704      863.197
07/31/2014  14:25:00      -52.398       18.395       13.671       66.365       40.206       28.983     4404.368     1616.543      840.018        0.506        0.343       55.533       31.428        0.320      350.612       31.907      863.198
07/31/2014  14:26:00       -8.581        2.313       24.582       18.875       16.718       16.855      356.278      279.488      284.091        0.080        0.046        8.888       12.059        1.841      351.021       32.619      863.199
07/31/2014  14:27:00       44.856      -43.267       22.955       38.776       48.343       31.213     1503.546     2337.029      974.249        0.461        0.241       62.322       23.421        0.141      350.166       31.132      863.197
07/31/2014  14:28:00       36.716       -6.375       11.234       49.726       31.429       26.206     2472.703      987.765      686.763        0.283        0.207       37.265       16.221        0.189      350.370       31.485      863.208
07/31/2014  14:29:00      -21.883      -12.260       20.862       88.723       58.619       34.127     7871.729     3436.163     1164.673        0.677        0.624       25.084       33.765        1.812      350.544       31.787      863.199
07/31/2014  14:30:00     -135.386      -22.471       -1.551       96.424       79.519       44.996     9297.515     6323.289     2024.632        1.824        0.882      137.238       48.782        0.126      350.476       31.669      863.185
07/31/2014  14:31:00     -225.289      -31.544      -10.038       83.172       73.692       41.015     6917.653     5430.546     1682.203        3.294        0.702      227.487       40.285        0.031      350.216       31.213      863.170
07/31/2014  14:32:00     -248.353     -112.414       -4.540       94.491       82.671       53.872     8928.486     6834.546     2902.218        4.650        0.933      272.610       51.339        0.035      350.196       31.179      863.157
07/31/2014  14:33:00     -341.469      -89.676      -14.869       70.616       71.346       41.682     4986.585     5090.183     1737.384        6.834        0.591      353.048       37.573        0.011      350.006       30.847      863.157
07/31/2014  14:34:00     -253.811      -89.782      -14.088       61.104       60.342       44.486     3733.715     3641.135     1979.000        4.101        0.468      269.222       34.335        0.016      350.053       30.931      863.160
07/31/2014  14:35:00     -139.867      -30.888        1.756       96.726       56.844       36.796     9355.888     3231.297     1353.980        1.723        0.697      143.237       50.558        0.125      350.100       31.014      863.164
07/31/2014  14:36:00     -106.933       21.182        2.556       76.447       64.319       36.595     5844.087     4136.978     1339.230        1.160        0.566      109.010       41.075        0.142      350.236       31.252      863.157
07/31/2014  14:37:00     -143.668      -32.097        1.777       61.051       46.245       33.856     3727.268     2138.555     1146.223        1.434        0.351      147.210       34.918        0.056      350.202       31.194      863.136
07/31/2014  14:38:00     -225.628      -76.017      -22.992       84.762       61.344       38.341     7184.557     3763.045     1470.012        3.481        0.621      238.090       42.284        0.032      349.969       30.783      863.130
07/31/2014  14:39:00     -150.836      -68.994      -11.972       48.607       32.509       22.307     2362.685     1056.837      497.599        1.579        0.196      165.867       11.783        0.005      349.986       30.816      863.136
07/31/2014  14:40:00       13.454      -64.449       20.208       63.234       46.462       28.062     3998.487     2158.729      787.474        0.584        0.347       65.838       30.248        0.211      350.011       30.859      863.130
07/31/2014  14:41:00       33.587      -66.825       -7.816       48.181       46.323       38.235     2321.451     2145.860     1461.938        0.579        0.296       74.791       22.573        0.091      349.844       30.570      863.120
07/31/2014  14:42:00       25.825       10.714       20.289       28.508       28.871       20.571      812.686      833.528      423.175        0.163        0.103       27.960        9.725        0.121      349.807       30.507      863.124
07/31/2014  14:43:00       25.028        9.790       22.018       26.128       21.496       23.033      682.676      462.083      530.507        0.144        0.084       26.874       13.905        0.268      349.564       30.085      863.108
07/31/2014  14:44:00       37.364       20.765       49.187       36.288       24.184       28.556     1316.808      584.865      815.420        0.348        0.136       42.747       14.417        0.114      349.631       30.200      863.099
07/31/2014  14:45:00       33.979        4.902       36.860       45.190       35.082       29.418     2042.111     1230.769      865.446        0.334        0.207       34.331       31.016        0.816      349.768       30.438      863.098
07/31/2014  14:46:00      -10.432       25.837       41.544        9.965       26.838       18.377       99.301      720.260      337.713        0.183        0.058       27.864       18.897        0.460      349.972       30.793      863.097
07/31/2014  14:47:00        6.728       -1.483       18.651       16.583       14.974       11.179      275.009      224.219      124.967        0.051        0.031        6.889        8.013        1.353      350.099       31.013      863.085
07/31/2014  14:48:00       18.858       11.230       15.232       22.021       17.066       16.525      484.913      291.239      273.076        0.088        0.052       21.948       12.557        0.327      349.690       30.304      863.071
07/31/2014  14:49:00       19.702       14.305       15.600       24.980       16.390       23.399      624.024      268.647      547.498        0.114        0.072       24.348       18.047        0.549      349.666       30.262      863.049
07/31/2014  14:50:00       18.210       11.803        6.158       14.960       11.358       18.875      223.799      129.003      356.271        0.061        0.035       21.701        9.543        0.193      349.766       30.435      863.030
07/31/2014  14:51:00        4.419        8.709        9.345       12.128       16.895       15.566      147.078      285.430      242.306        0.043        0.034        9.766       11.637        1.420      350.103       31.020      863.017
07/31/2014  14:52:00       -6.451      -24.928       24.188       32.139       37.072       19.265     1032.899     1374.341      371.130        0.201        0.139       25.749       13.425        0.272      350.043       30.915      863.009
07/31/2014  14:53:00       -1.996      -33.835       19.867       27.996       45.832       20.440      783.798     2100.601      417.786        0.242        0.165       33.894       24.883        0.539      350.312       31.385      862.998
07/31/2014  14:54:00      -34.223        3.075       16.430       23.678       19.325       15.905      560.624      373.446      252.981        0.132        0.059       34.361       13.524        0.155      350.299       31.360      862.982
07/31/2014  14:55:00      -34.291      -13.689        9.949       54.250       57.726       22.462     2943.021     3332.347      504.551        0.412        0.339       36.922       20.347        0.304      350.102       31.020      862.971
07/31/2014  14:56:00      -16.304       10.833       26.379       35.506       32.535       28.777     1260.646     1058.501      828.135        0.211        0.157       19.575       22.333        1.302      349.983       30.812      862.976
07/31/2014  14:57:00      -52.529      -55.202        2.954       89.872       71.949       35.514     8076.946     5176.670     1261.228        1.016        0.726       76.201       41.606        0.298      350.105       31.023      862.964
07/31/2014  14:58:00     -158.138     -122.310       10.934      118.539       85.576       54.457    14051.434     7323.296     2965.551        3.221        1.217      199.918       52.369        0.069      350.078       30.974      862.953
07/31/2014  14:59:00      -45.204      -87.924       -4.853       47.671       35.546       28.512     2272.519     1263.541      812.907        0.707        0.217       98.863       19.589        0.039      349.997       30.835      862.987
07/31/2014  15:00:00      -29.204      -31.080        0.923       27.422       24.512       14.336      751.947      600.838      205.527        0.169        0.078       42.648        9.010        0.045      350.032       30.898      862.978
07/31/2014  15:01:00       15.913       18.620       28.864       27.939       25.652       26.009      780.570      658.023      676.487        0.177        0.106       24.494       24.639        1.012      349.978       30.804      862.959
07/31/2014  15:02:00       43.254       32.602       11.752       18.410       17.608       19.087      338.938      310.059      364.332        0.204        0.051       54.165       15.848        0.086      349.640       30.216      862.952
07/31/2014  15:03:00        7.905        7.979       10.743       13.271        8.623       11.330      176.128       74.364      128.380        0.031        0.019       11.232        4.201        0.140      349.954       30.764      862.934
07/31/2014  15:04:00       -6.098       11.330       23.783        9.588       11.929       12.181       91.930      142.296      148.369        0.056        0.019       12.867        6.899        0.287      350.289       31.344      862.911
07/31/2014  15:05:00      -26.026        8.933        8.797       14.695        8.953       10.952      215.932       80.165      119.940        0.063        0.021       27.516        5.691        0.043      349.939       30.736      862.917
07/31/2014  15:06:00       -6.013        1.314       15.652       17.466       16.484       13.540      305.053      271.724      183.345        0.052        0.038        6.155       11.783        3.666      349.810       30.512      862.903
07/31/2014  15:07:00       11.659      -12.977       11.031       12.738       21.988       22.559      162.246      483.470      508.892        0.079        0.058       17.445       19.567        1.258      350.044       30.916      862.889
07/31/2014  15:08:00       -2.073      -45.339       28.191       18.470       24.779       15.253      341.129      613.976      232.639        0.202        0.059       45.387       13.873        0.093      349.935       30.729      862.888
07/31/2014  15:09:00      -25.182       21.370       16.175       22.412       21.942       20.759      502.290      481.458      430.936        0.138        0.071       33.027       13.770        0.174      349.647       30.228      862.878
07/31/2014  15:10:00      -71.051       -0.197       -2.366       34.459       29.693       12.537     1187.437      881.691      157.166        0.364        0.111       71.051       10.758        0.023      349.890       30.651      862.882
07/31/2014  15:11:00      -95.807      -27.797        1.534       48.304       28.651       19.633     2333.276      820.892      385.461        0.675        0.177       99.757       22.545        0.051      349.994       30.832      862.886
07/31/2014  15:12:00      -44.476      -20.458       -0.862       29.332       31.668       13.243      860.337     1002.845      175.385        0.222        0.102       48.956       15.095        0.095      350.024       30.882      862.882
07/31/2014  15:13:00     -141.508      -35.238       -1.419       58.220       55.946       30.482     3389.621     3129.923      929.167        1.436        0.372      145.830       29.088        0.040      350.045       30.919      862.887
07/31/2014  15:14:00     -188.886      -45.598       -4.803       58.856       39.182       28.417     3464.000     1535.201      807.543        2.179        0.290      194.311       32.849        0.029      350.084       30.985      862.893
07/31/2014  15:15:00     -149.709       -5.833       -2.029       59.517       38.924       27.476     3542.291     1515.101      754.924        1.413        0.291      149.823       27.855        0.035      350.047       30.921      862.896
07/31/2014  15:16:00      -89.032      -16.972        2.806       66.017       53.547       29.411     4358.306     2867.269      865.015        0.815        0.405       90.635       20.529        0.051      350.066       30.955      862.901
07/31/2014  15:17:00      -96.819      -78.183        2.689       68.687       53.690       42.768     4717.928     2882.599     1829.064        1.246        0.471      124.445       38.400        0.095      350.018       30.872      862.906
07/31/2014  15:18:00      -94.160      -64.512        8.129       89.170       74.648       42.118     7951.314     5572.290     1773.957        1.419        0.765      114.140       47.427        0.173      349.986       30.816      862.910
07/31/2014  15:19:00      -93.908      -35.770        7.919       84.636       58.832       34.120     7163.247     3461.213     1164.179        1.097        0.589      100.490       45.890        0.209      350.042       30.916      862.924
07/31/2014  15:20:00     -110.156      -25.750        1.407       42.095       32.297       18.386     1771.973     1043.079      338.036        0.798        0.158      113.126       17.567        0.024      349.991       30.830      862.930
07/31/2014  15:21:00      -42.402       -1.236       16.137       52.281       45.443       38.061     2733.342     2065.049     1448.655        0.415        0.312       42.420       23.778        0.314      350.099       31.012      862.919
07/31/2014  15:22:00      -99.224      -60.661       11.939       63.730       63.337       30.458     4061.480     4011.602      927.678        1.133        0.450      116.298       35.770        0.095      350.030       30.894      862.917
07/31/2014  15:23:00     -100.885      -40.544        6.543       95.975       42.754       31.427     9211.146     1827.911      987.686        1.194        0.601      108.727       35.922        0.109      349.987       30.819      862.903
07/31/2014  15:24:00     -177.553      -21.990        3.153      127.611       69.465       48.635    16284.640     4825.325     2365.341        2.774        1.174      178.909       55.388        0.096      349.946       30.747      862.906
07/31/2014  15:25:00     -201.965        9.723      -22.967       76.774      135.054       43.901     5894.279    18239.632     1927.341        3.373        1.303      202.198       61.709        0.093      349.924       30.708      862.899
07/31/2014  15:26:00      -91.752       61.965      -19.189       68.923       83.450       34.883     4750.426     6963.906     1216.840        1.278        0.647      110.716       35.902        0.105      349.940       30.740      862.889
07/31/2014  15:27:00      -44.103       58.122       -2.999       35.529       69.771       30.465     1262.320     4867.974      928.114        0.619        0.353       72.961       21.338        0.086      349.927       30.715      862.879
07/31/2014  15:28:00      -71.285       77.106       -6.836       81.399       52.580       34.352     6625.791     2764.679     1180.088        1.082        0.529      105.009       29.926        0.081      349.904       30.676      862.852
07/31/2014  15:29:00      -88.592      -44.427      -13.713       55.941       45.344       32.274     3129.394     2056.046     1041.600        0.812        0.311       99.108       13.134        0.018      349.887       30.647      862.833
07/31/2014  15:30:00     -124.103      -82.012        3.842      104.770       85.993       53.880    10976.842     7394.811     2903.037        2.170        1.064      148.753       60.354        0.165      349.925       30.709      862.823
07/31/2014  15:31:00     -191.443      -65.503      -14.145       66.728       63.882       37.024     4452.644     4080.961     1370.808        2.552        0.495      202.339       26.083        0.017      349.931       30.718      862.833
07/31/2014  15:32:00     -197.077      -59.802      -19.453       63.415       88.310       39.160     4021.433     7798.721     1533.507        2.807        0.668      205.951       31.219        0.023      349.909       30.682      862.837
07/31/2014  15:33:00     -192.164      -73.675       -7.031       83.080       73.918       42.146     6902.355     5463.880     1776.293        2.827        0.707      205.803       36.526        0.031      349.913       30.687      862.826
07/31/2014  15:34:00     -282.841      -41.221      -24.592      137.011       72.345       43.701    18772.063     5233.804     1909.763        5.410        1.296      285.829       51.071        0.032      349.887       30.643      862.835
07/31/2014  15:35:00     -171.658      -17.012       -8.227       94.272       72.820       41.275     8887.201     5302.788     1703.647        2.286        0.795      172.499       34.561        0.040      349.889       30.648      862.821
07/31/2014  15:36:00     -190.751       37.521      -22.509      100.725       80.004       36.108    10145.603     6400.563     1303.820        2.807        0.892      194.406       42.592        0.048      349.802       30.495      862.819
07/31/2014  15:37:00     -205.204       21.637      -18.581       88.194       93.826       49.786     7778.134     8803.290     2478.676        3.099        0.953      206.342       53.711        0.068      349.768       30.437      862.810
07/31/2014  15:38:00     -141.944       19.815        3.202       67.422       92.821       37.022     4545.710     8615.830     1370.600        1.754        0.727      143.320       35.749        0.062      349.740       30.386      862.799
07/31/2014  15:39:00     -102.148       13.065       -8.187       61.021       32.979       30.870     3723.536     1087.629      952.935        0.822        0.288      102.980       27.910        0.073      349.737       30.384      862.796
07/31/2014  15:40:00     -220.328      -11.737      -26.715       71.805      101.722       37.698     5155.913    10347.396     1421.175        3.316        0.846      220.640       38.138        0.030      349.734       30.374      862.786
07/31/2014  15:41:00     -137.503       -1.972      -11.504       46.809       72.598       34.372     2191.074     5270.489     1181.435        1.384        0.432      137.518       22.437        0.027      349.694       30.312      862.779
07/31/2014  15:42:00     -153.346       32.559      -30.354       64.766       75.806       37.956     4194.607     5746.602     1440.672        1.844        0.569      156.765       17.864        0.013      349.721       30.356      862.766
07/31/2014  15:43:00     -179.623       44.445      -21.674       78.310       83.274       40.133     6132.422     6934.639     1610.682        2.469        0.734      185.040       45.774        0.061      349.768       30.436      862.782
07/31/2014  15:44:00     -226.123      -46.220      -29.759       86.805       73.509       42.584     7535.101     5403.517     1813.369        3.445        0.738      230.798       34.065        0.022      349.725       30.358      862.750
07/31/2014  15:45:00     -213.851      -54.448      -20.469       56.002       76.419       47.413     3136.216     5839.936     2247.973        3.017        0.561      220.674       34.732        0.025      349.716       30.344      862.747
07/31/2014  15:46:00     -137.533       22.946       -7.116       76.056       61.169       45.768     5784.442     3741.611     2094.680        1.555        0.581      139.434       45.140        0.105      349.753       30.409      862.742
07/31/2014  15:47:00     -133.118       99.391      -20.931       85.184       59.991       45.808     7256.273     3598.969     2098.344        2.049        0.648      166.129       48.777        0.086      349.776       30.452      862.731
07/31/2014  15:48:00     -105.222        9.979       -2.970       91.826       54.369       43.129     8431.991     2955.961     1860.097        1.221        0.662      105.694       48.930        0.214      349.751       30.409      862.710
07/31/2014  15:49:00      -80.208       14.656      -43.434       50.397       42.445       37.283     2539.841     1801.614     1389.994        0.713        0.287       81.536       19.751        0.059      349.714       30.344      862.697
07/31/2014  15:50:00      -21.742      174.635      -10.098       76.897      141.566       56.254     5913.193    20040.914     3164.474        3.009        1.456      175.983       69.223        0.155      349.777       30.453      862.693
07/31/2014  15:51:00     -105.108      176.651      -12.780       53.233       73.727       39.446     2833.777     5435.699     1555.981        2.612        0.491      205.556       34.299        0.028      349.776       30.451      862.670
07/31/2014  15:52:00      -88.243      136.830      -11.643       74.808      132.944       43.047     5596.284    17674.221     1853.027        2.588        1.256      162.816       51.635        0.101      349.777       30.452      862.660
07/31/2014  15:53:00      -94.351      269.950      -34.512       66.998       87.143       51.769     4488.797     7593.914     2679.986        4.886        0.738      285.963       41.476        0.021      349.772       30.441      862.644
07/31/2014  15:54:00     -146.123      190.412      -26.222       73.282      100.284       47.751     5370.306    10056.957     2280.122        3.800        0.885      240.018       36.255        0.023      349.760       30.420      862.647
07/31/2014  15:55:00     -108.770      146.060      -16.512       51.041       65.882       31.417     2605.142     4340.449      987.045        2.068        0.397      182.111       33.218        0.033      349.723       30.357      862.633
07/31/2014  15:56:00      -76.084      177.329       -8.626       39.888       63.140       33.150     1591.039     3986.630     1098.949        2.199        0.334      192.962       23.366        0.015      349.793       30.479      862.638
07/31/2014  15:57:00     -137.199      191.574      -21.188       54.096       97.597       39.705     2926.356     9525.193     1576.525        3.500        0.701      235.636       43.717        0.034      349.725       30.360      862.640
07/31/2014  15:58:00     -134.327       51.394      -21.283       59.463       71.304       34.626     3535.805     5084.298     1198.979        1.548        0.491      143.823       34.510        0.058      349.720       30.354      862.654
07/31/2014  15:59:00     -141.434       77.376      -28.500       70.708       62.497       39.254     4999.584     3905.850     1540.897        1.862        0.522      161.216       34.333        0.045      349.759       30.421      862.660
07/31/2014  16:00:00     -120.414       79.182      -11.065       60.724       62.423       39.424     3687.418     3896.639     1554.264        1.501        0.457      144.116       35.274        0.060      349.717       30.348      862.665
07/31/2014  16:01:00     -188.855       72.311      -15.864       78.516       68.131       40.637     6164.834     4641.838     1651.353        2.680        0.623      202.226       37.746        0.035      349.669       30.264      862.673
07/31/2014  16:02:00     -201.128       58.353      -30.140       83.835      101.816       44.905     7028.366    10366.482     2016.416        3.208        0.971      209.422       43.219        0.043      349.654       30.238      862.670
07/31/2014  16:03:00     -138.070       16.268      -17.838       92.574      144.718       58.401     8570.033    20943.173     3410.697        2.628        1.646      139.025       50.411        0.131      349.654       30.237      862.675
07/31/2014  16:04:00     -155.491       63.751       -5.456       63.752       83.095       44.486     4064.281     6904.758     1979.035        2.061        0.647      168.053       30.005        0.032      349.599       30.143      862.696
07/31/2014  16:05:00     -147.279       26.909       -2.344       77.311       57.570       45.924     5977.028     3314.261     2108.978        1.691        0.570      149.717       38.847        0.067      349.622       30.183      862.718
07/31/2014  16:06:00      -78.432       74.832      -18.913       51.030       49.056       36.652     2604.112     2406.480     1343.404        0.923        0.318      108.404       20.243        0.035      349.654       30.241      862.736
07/31/2014  16:07:00     -153.576       56.994      -21.354       61.247       44.162       34.941     3751.242     1950.254     1220.903        1.710        0.346      163.811       20.573        0.016      349.713       30.343      862.739
07/31/2014  16:08:00     -229.334       66.766      -29.057       52.298       58.601       33.049     2735.091     3434.116     1092.244        3.258        0.363      238.855       23.625        0.010      349.716       30.343      862.758
07/31/2014  16:09:00     -220.645       90.039      -31.257       76.100       52.738       40.351     5791.275     2781.302     1628.186        3.398        0.510      238.309       32.663        0.019      349.726       30.360      862.755
07/31/2014  16:10:00      -88.005       -8.983        2.224       69.242       69.074       42.068     4794.418     4771.150     1769.677        0.958        0.567       88.462       28.562        0.104      349.756       30.416      862.750
07/31/2014  16:11:00     -198.534       80.265       -7.332      110.142       82.439       56.255    12131.339     6796.245     3164.672        3.400        1.105      214.146       57.641        0.072      349.743       30.391      862.749
07/31/2014  16:12:00     -193.177       23.797      -17.776      102.120       90.208       50.543    10428.451     8137.437     2554.639        2.966        1.056      194.637       50.024        0.066      349.771       30.439      862.741
07/31/2014  16:13:00     -154.668       15.757      -23.943      104.966      105.785       52.549    11017.938    11190.428     2761.365        2.485        1.248      155.469       32.081        0.043      349.735       30.378      862.739
07/31/2014  16:14:00     -112.613       -5.447       -6.310       62.224       76.158       38.371     3871.831     5800.013     1472.352        1.195        0.557      112.744       18.167        0.026      349.758       30.420      862.743
07/31/2014  16:15:00     -111.340       94.867      -15.674       65.383       97.383       41.806     4274.970     9483.373     1747.763        1.857        0.775      146.275       23.684        0.026      349.767       30.435      862.759
07/31/2014  16:16:00     -111.556       48.442       -4.614       92.166       49.159       47.222     8494.513     2416.647     2229.920        1.397        0.657      121.619       53.833        0.196      349.794       30.483      862.768
07/31/2014  16:17:00     -188.266       45.357      -28.938       92.814       89.484       40.221     8614.504     8007.300     1617.761        2.829        0.912      193.653       34.786        0.032      349.764       30.430      862.781
07/31/2014  16:18:00     -146.532        3.168       -7.389       54.138       76.460       32.941     2930.967     5846.154     1085.142        1.570        0.493      146.566       26.999        0.034      349.776       30.452      862.791
07/31/2014  16:19:00     -154.600        0.567      -17.919       81.588      109.316       51.225     6656.530    11950.063     2623.981        2.272        1.062      154.602       41.098        0.071      349.770       30.441      862.791
07/31/2014  16:20:00     -176.485        9.306      -27.227       50.375       45.881       34.966     2537.673     2105.060     1222.612        1.892        0.293      176.730       27.720        0.025      349.770       30.441      862.817
07/31/2014  16:21:00     -142.865       27.879        1.927       63.913       53.804       34.669     4084.897     2894.829     1201.943        1.468        0.409      145.559       25.726        0.031      349.767       30.436      862.822
07/31/2014  16:22:00     -109.970       45.539       -9.973       55.260       41.348       28.916     3053.658     1709.680      836.156        0.993        0.280      119.026       12.907        0.012      349.770       30.441      862.820
07/31/2014  16:23:00     -149.139       39.128      -17.664       63.181       56.976       29.204     3991.880     3246.276      852.886        1.609        0.405      154.186       21.160        0.019      349.776       30.453      862.825
07/31/2014  16:24:00      -56.843       -3.282       -3.426       47.000       47.487       24.305     2209.012     2255.053      590.725        0.415        0.253       56.937       23.891        0.176      349.801       30.497      862.823
07/31/2014  16:25:00     -153.620      -66.433        0.498       83.679       76.728       40.017     7002.259     5887.138     1601.391        2.125        0.725      167.369       39.817        0.057      349.753       30.409      862.825
07/31/2014  16:26:00     -152.963      -77.730      -11.514       93.139       48.280       35.022     8674.927     2330.928     1226.510        2.090        0.612      171.580       31.914        0.035      349.705       30.327      862.819
07/31/2014  16:27:00     -122.513      -60.047       -8.349       92.375       47.029       32.656     8533.123     2211.722     1066.439        1.525        0.591      136.437       32.456        0.057      349.695       30.312      862.828
07/31/2014  16:28:00     -264.685      -32.851       -7.064      103.909       82.171       55.663    10797.035     6752.110     3098.383        4.591        1.032      266.716       55.471        0.043      349.734       30.375      862.824
07/31/2014  16:29:00     -211.616      -79.106        5.770      137.676      103.234       60.899    18954.561    10657.301     3708.640        4.219        1.666      225.919       73.847        0.107      349.745       30.397      862.818
07/31/2014  16:30:00     -226.470      -68.035       10.281      169.205       94.863       65.383    28630.322     8999.081     4274.999        4.896        2.095      236.469       74.399        0.099      349.734       30.376      862.809
07/31/2014  16:31:00     -348.366      -94.998       -0.246      119.818      126.143       61.783    14356.323    15912.162     3817.179        8.223        1.704      361.087       61.013        0.029      349.722       30.354      862.800
07/31/2014  16:32:00     -356.161      -97.452      -14.444      147.910       86.054       48.346    21877.388     7405.365     2337.373        8.408        1.581      369.252       34.436        0.009      349.710       30.333      862.819
07/31/2014  16:33:00     -134.063      -53.715        9.333       94.762       91.404       41.737     8979.780     8354.767     1741.949        2.001        0.954      144.423       45.730        0.100      349.721       30.354      862.800
07/31/2014  16:34:00      -91.432       -3.799       -0.846       81.513       75.459       39.381     6644.437     5694.019     1550.861        1.113        0.694       91.511       45.867        0.251      349.727       30.366      862.806
07/31/2014  16:35:00     -202.333      -23.214       -9.598      102.738       85.787       38.901    10555.030     7359.410     1513.287        3.049        0.971      203.660       36.062        0.031      349.752       30.406      862.800
07/31/2014  16:36:00     -129.202      -61.205        4.835       72.894       58.187       35.725     5313.547     3385.698     1276.268        1.522        0.499      142.966       36.020        0.063      349.740       30.388      862.782
07/31/2014  16:37:00     -135.155      -92.423        6.302      117.891       91.448       50.716    13898.363     8362.736     2572.150        2.584        1.242      163.734       51.788        0.100      349.748       30.402      862.777
07/31/2014  16:38:00     -224.757     -149.280       13.464      154.782      132.094       68.064    23957.371    17448.851     4632.663        5.950        2.302      269.815       68.844        0.065      349.713       30.339      862.754
07/31/2014  16:39:00     -201.643     -152.415      -11.465      146.585      117.155       61.525    21487.101    13725.362     3785.337        5.150        1.950      252.765       64.634        0.065      349.691       30.302      862.745
07/31/2014  16:40:00     -146.690      -44.324       -1.310       96.979       68.357       45.791     9404.901     4672.673     2096.839        1.983        0.809      153.241       43.171        0.079      349.675       30.274      862.742
07/31/2014  16:41:00     -161.787       10.534       -7.609      117.697       72.646       55.090    13852.580     5277.445     3034.949        2.425        1.108      162.129       65.948        0.165      349.674       30.272      862.724
07/31/2014  16:42:00     -129.729      -57.724       12.992       97.985       96.576       54.283     9601.013     9326.903     2946.606        2.110        1.094      141.992       36.153        0.065      349.636       30.208      862.706
07/31/2014  16:43:00     -121.808      -63.819       14.404       87.527       85.218       45.306     7660.943     7262.083     2052.658        1.804        0.849      137.514       46.120        0.112      349.638       30.209      862.699
07/31/2014  16:44:00     -204.538      -57.232      -15.620       96.680       83.432       52.019     9347.004     6960.830     2705.995        3.218        0.951      212.394       46.694        0.048      349.656       30.240      862.707
07/31/2014  16:45:00     -273.456      -73.196      -11.331      119.310      100.535       51.128    14234.963    10107.193     2614.115        5.361        1.348      283.083       57.909        0.042      349.654       30.236      862.698
07/31/2014  16:46:00     -179.505      -55.227       -0.333       96.809       77.813       48.979     9372.005     6054.873     2398.922        2.655        0.891      187.808       47.441        0.064      349.653       30.235      862.680
07/31/2014  16:47:00     -312.464      -26.091      -10.993      168.519      104.528       75.502    28398.688    10926.108     5700.582        7.172        2.251      313.552       78.834        0.063      349.628       30.192      862.671
07/31/2014  16:48:00     -342.091      -49.944      -10.346      133.671       79.201       58.727    17868.063     6272.863     3448.851        7.360        1.379      345.718       62.480        0.033      349.616       30.171      862.668
07/31/2014  16:49:00     -305.053      -51.561      -23.697      105.460       68.192       44.490    11121.785     4650.093     1979.393        5.701        0.888      309.380       46.287        0.022      349.608       30.157      862.682
07/31/2014  16:50:00     -321.173     -124.855       -1.487      133.533       94.505       63.230    17831.112     8931.181     3997.986        7.475        1.538      344.588       68.482        0.039      349.591       30.129      862.680
07/31/2014  16:51:00     -194.326      -77.670       -3.713      103.879       77.572       55.884    10790.873     6017.397     3123.069        3.187        0.997      209.273       54.430        0.068      349.573       30.097      862.685
07/31/2014  16:52:00     -241.260      -32.499       -8.073      144.055       80.318       46.833    20751.925     6450.972     2193.377        4.436        1.470      243.439       48.462        0.040      349.552       30.062      862.685
07/31/2014  16:53:00     -382.195      -83.533      -11.099      150.726      114.158       61.384    22718.338    13032.029     3768.034        9.634        1.976      391.217       64.274        0.027      349.549       30.056      862.682
07/31/2014  16:54:00     -236.318        1.262        0.031      131.743       97.614       52.134    17356.263     9528.565     2717.936        4.272        1.480      236.321       53.399        0.051      349.548       30.052      862.699
07/31/2014  16:55:00     -130.395      -61.635       -8.441       89.451       93.225       44.318     8001.557     8690.871     1964.104        1.976        0.933      144.228       45.465        0.099      349.540       30.040      862.691
07/31/2014  16:56:00      -74.018      -15.194       21.968       63.846       60.991       30.314     4076.301     3719.867      918.927        0.745        0.436       75.561       34.857        0.213      349.525       30.015      862.689
07/31/2014  16:57:00     -120.099      -89.942        3.993       98.696       61.053       45.412     9740.928     3727.526     2062.240        1.903        0.777      150.044       51.482        0.118      349.535       30.033      862.692
07/31/2014  16:58:00     -138.363      -91.408       -8.645       97.679       87.701       44.038     9541.270     7691.403     1939.324        2.337        0.959      165.830       49.876        0.090      349.544       30.045      862.706
07/31/2014  16:59:00     -262.419      -96.225      -12.389      154.583      107.756       70.571    23895.846    11611.263     4980.292        5.937        2.024      279.505       66.313        0.056      349.517       29.999      862.705
07/31/2014  17:00:00     -176.548      -50.741       -1.201       97.791       78.566       60.956     9563.046     6172.565     3715.607        2.659        0.973      183.695       52.659        0.082      349.505       29.979      862.711
07/31/2014  17:01:00     -232.333      -93.431       -1.444       80.024       81.639       54.650     6403.874     6664.896     2986.670        3.938        0.803      250.416       44.193        0.031      349.497       29.965      862.720
07/31/2014  17:02:00     -269.038      -11.930      -11.230      137.904       76.354       49.589    19017.633     5829.981     2459.035        4.997        1.365      269.303       47.788        0.031      349.489       29.953      862.723
07/31/2014  17:03:00     -256.260     -122.238       -7.129      115.780       95.264       49.094    13404.939     9075.171     2410.232        5.277        1.245      283.921       43.925        0.024      349.488       29.949      862.734
07/31/2014  17:04:00     -217.099      -69.201       -3.922       87.824       72.252       48.575     7713.071     5220.401     2359.569        3.361        0.765      227.861       43.723        0.037      349.479       29.934      862.730
07/31/2014  17:05:00     -121.787      -66.661       20.623       97.473       74.524       55.804     9501.066     5553.827     3114.110        1.893        0.908      138.837       55.611        0.160      349.474       29.926      862.724
07/31/2014  17:06:00     -108.360      -25.845       14.433      133.031      110.148       67.130    17697.190    12132.569     4506.413        2.347        1.717      111.399       80.958        0.528      349.451       29.887      862.715
07/31/2014  17:07:00     -380.355     -120.137      -14.989      183.212      115.936       70.298    33566.719    13441.138     4941.833       10.563        2.597      398.877       79.932        0.040      349.443       29.871      862.718
07/31/2014  17:08:00     -246.992      -91.085       -2.479      139.390      119.610       56.888    19429.571    14306.595     3236.236        5.313        1.849      263.252       59.450        0.051      349.408       29.809      862.727
07/31/2014  17:09:00     -169.296     -109.409       -2.165      119.273      104.706       57.728    14226.090    10963.262     3332.473        3.457        1.426      201.573       47.154        0.055      349.411       29.815      862.711
07/31/2014  17:10:00     -189.329     -125.019       10.688      135.950       97.649       62.911    18482.285     9535.364     3957.780        4.178        1.599      226.881       70.028        0.095      349.386       29.772      862.708
07/31/2014  17:11:00     -105.730      -69.707       12.261      119.290      106.475       67.087    14230.174    11336.857     4500.691        2.312        1.503      126.641       62.226        0.241      349.365       29.736      862.717
07/31/2014  17:12:00     -257.221     -138.215       -6.243      157.123      131.503       75.629    24687.599    17292.910     5719.759        6.649        2.385      292.003       74.775        0.066      349.369       29.741      862.717
07/31/2014  17:13:00     -261.352     -118.598       -6.067      143.878      110.669       57.922    20700.977    12247.709     3354.990        5.935        1.815      287.003       65.777        0.053      349.348       29.705      862.732
07/31/2014  17:14:00     -269.733      -62.875        3.119      118.139      106.358       57.382    13956.708    11311.965     3292.713        5.263        1.428      276.964       65.082        0.055      349.338       29.688      862.734
07/31/2014  17:15:00     -312.608      -81.750        5.393      153.589      165.763       85.665    23589.639    27477.455     7338.507        8.141        2.920      323.120       91.136        0.080      349.308       29.636      862.753
07/31/2014  17:16:00     -175.004      -69.275      -13.832      146.007       97.544       70.602    21318.032     9514.831     4984.655        3.571        1.791      188.216       63.622        0.114      349.300       29.626      862.741
07/31/2014  17:17:00     -282.597     -120.849       -9.634      126.263      109.994       59.490    15942.279    12098.717     3539.087        6.306        1.579      307.352       59.784        0.038      349.282       29.593      862.742
07/31/2014  17:18:00     -167.695      -75.863       12.581      149.158      115.205       63.845    22248.004    13272.082     4076.234        3.681        1.980      184.057       68.162        0.137      349.268       29.570      862.740
07/31/2014  17:19:00     -201.927      -39.210       -0.468      159.110       86.329       55.433    25316.021     7452.750     3072.821        3.907        1.792      205.699       64.580        0.099      349.256       29.548      862.761
07/31/2014  17:20:00     -328.930      -65.915       -5.863      180.918      105.949       67.609    32731.339    11225.160     4571.043        8.054        2.426      335.469       74.810        0.050      349.236       29.512      862.772
07/31/2014  17:21:00     -229.573     -103.986       -3.617      121.452      128.570       62.480    14750.668    16530.132     3903.772        4.935        1.759      252.026       59.892        0.056      349.223       29.491      862.779
07/31/2014  17:22:00     -213.285      -25.243       13.873      126.941      129.419       62.893    16113.981    16749.183     3955.512        4.156        1.841      214.774       68.942        0.103      349.224       29.493      862.794
07/31/2014  17:23:00     -169.811      -57.219       16.220      158.579      114.060       71.758    25147.418    13009.767     5149.241        3.783        2.165      179.192       88.328        0.243      349.217       29.482      862.807
07/31/2014  17:24:00     -206.342      -67.579       -8.591      105.877       94.141       52.498    11209.892     8862.576     2756.076        3.502        1.141      217.127       55.155        0.065      349.180       29.415      862.824
07/31/2014  17:25:00     -105.899      -63.564       18.998      137.305      120.374       69.395    18852.553    14489.914     4815.672        2.688        1.908      123.511       76.365        0.382      349.206       29.462      862.830
07/31/2014  17:26:00     -222.912      -46.505      -11.066      131.846      113.194       68.721    17383.348    12812.904     4722.550        4.344        1.746      227.712       65.201        0.082      349.180       29.415      862.848
07/31/2014  17:27:00     -199.789      -87.049      -12.032      100.002       92.992       51.782    10000.384     8647.595     2681.387        3.448        1.066      217.929       51.997        0.057      349.164       29.387      862.856
07/31/2014  17:28:00     -367.842      -27.599      -21.740      167.091      125.093       68.235    27919.317    15648.295     4655.998        9.237        2.411      368.875       79.974        0.047      349.145       29.353      862.861
07/31/2014  17:29:00     -327.094      -95.246        9.684      166.266      107.207       80.059    27644.361    11493.406     6409.421        8.084        2.277      340.679       85.342        0.063      349.128       29.324      862.857
07/31/2014  17:30:00     -235.784       -2.853       -4.332      125.397       90.273       56.723    15724.394     8149.294     3217.488        4.135        1.355      235.801       60.622        0.066      349.106       29.287      862.857
07/31/2014  17:31:00     -310.418      -44.808        4.113      172.065      147.791       83.339    29606.312    21842.191     6945.422        7.838        2.920      313.635       65.965        0.044      349.126       29.321      862.866
07/31/2014  17:32:00     -242.485      -27.431       -3.054      170.213      139.115       66.736    28972.336    19352.857     4453.658        5.616        2.639      244.031       66.735        0.075      349.117       29.307      862.850
07/31/2014  17:33:00     -168.701      -60.066       16.300      154.447      120.356       81.679    23853.946    14485.465     6671.464        3.866        2.251      179.075       91.503        0.261      349.107       29.291      862.824
07/31/2014  17:34:00     -254.291      -14.287        1.875      156.115       96.096       58.708    24371.768     9234.380     3446.622        5.095        1.853      254.692       68.017        0.071      349.091       29.261      862.815
07/31/2014  17:35:00     -320.570     -111.698      -16.479      165.368      110.882       72.303    27346.529    12294.816     5227.656        8.018        2.243      339.473       83.689        0.061      349.087       29.254      862.813
07/31/2014  17:36:00     -201.961      -43.669        9.095      116.602       98.827       60.015    13595.981     9766.775     3601.803        3.487        1.348      206.628       62.565        0.092      349.078       29.239      862.819
07/31/2014  17:37:00     -215.557      -79.756       -2.105      157.387      121.408       64.307    24770.781    14739.953     4135.382        4.823        2.182      229.838       71.639        0.097      349.062       29.210      862.810
07/31/2014  17:38:00     -235.543      -60.250       -9.739      120.377      108.051       65.091    14490.609    11675.068     4236.785        4.480        1.520      243.127       64.871        0.071      349.071       29.225      862.799
07/31/2014  17:39:00     -185.933      -46.165        9.206      213.757      118.006       53.505    45691.879    13925.440     2862.754        4.962        3.124      191.579       73.176        0.146      349.066       29.220      862.793
07/31/2014  17:40:00     -295.938      -29.569      -15.466      238.519      103.147       66.856    56891.122    10639.206     4469.731        8.033        3.600      297.412       86.700        0.085      349.072       29.228      862.775
07/31/2014  17:41:00     -267.889      -58.767      -10.037      136.406       98.811       60.738    18606.518     9763.694     3689.136        5.368        1.603      274.260       54.934        0.040      349.076       29.235      862.774
07/31/2014  17:42:00     -338.325     -154.848       -9.315      214.987      171.039       87.341    46219.362    29254.279     7628.410       11.080        4.155      372.078       94.759        0.065      349.060       29.207      862.757
07/31/2014  17:43:00     -170.412      -55.105       11.367      165.215       82.277       64.881    27296.121     6769.567     4209.567        3.523        1.914      179.100       77.617        0.188      349.069       29.223      862.753
07/31/2014  17:44:00     -181.961      -74.762        7.499      102.743      124.448       52.990    10556.022    15487.298     2807.993        3.380        1.443      196.721       42.943        0.048      349.077       29.237      862.741
07/31/2014  17:45:00     -267.317      -97.823        2.978      182.249      141.242       73.509    33214.624    19949.257     5403.529        6.979        2.928      284.653       81.430        0.082      349.078       29.238      862.703
07/31/2014  17:46:00     -225.017      -96.370      -10.686      149.540       97.211       47.002    22362.084     9449.913     2209.180        4.702        1.701      244.786       47.659        0.038      349.087       29.255      862.687
07/31/2014  17:47:00     -274.166      -70.263       -8.207      128.166       94.198       52.958    16426.458     8873.346     2804.526        5.413        1.405      283.026       58.728        0.043      349.097       29.270      862.676
07/31/2014  17:48:00     -265.758      -59.615      -16.757      106.991       90.579       55.668    11446.974     8204.518     3098.921        4.860        1.138      272.362       49.870        0.034      349.102       29.281      862.654
07/31/2014  17:49:00     -221.623      -39.082        3.179      140.108       86.676       48.848    19630.327     7512.650     2386.143        4.009        1.476      225.042       49.458        0.048      349.116       29.306      862.628
07/31/2014  17:50:00     -216.228      -48.068       -1.535       88.174       72.050       55.418     7774.683     5191.216     3071.111        3.255        0.802      221.507       58.618        0.070      349.146       29.355      862.601
07/31/2014  17:51:00     -236.226      -49.432        0.063      139.971      112.169       52.256    19591.798    12581.970     2730.663        4.657        1.745      241.342       65.338        0.073      349.162       29.384      862.580
07/31/2014  17:52:00     -258.452     -112.742      -15.817      132.488      127.423       83.275    17553.022    16236.635     6934.759        6.023        2.036      281.972       75.615        0.072      349.163       29.383      862.550
07/31/2014  17:53:00     -407.196     -109.655      -20.427      170.206      165.174       69.999    28970.158    27282.542     4899.882       11.969        3.058      421.702       74.712        0.031      349.155       29.372      862.541
07/31/2014  17:54:00     -209.232      -86.991       -4.223      118.157      136.219       65.001    13961.131    18555.599     4225.084        4.405        1.837      226.595       48.824        0.046      349.172       29.403      862.525
07/31/2014  17:55:00     -183.965      -82.318        2.115      116.618      111.347       64.200    13599.844    12398.056     4121.578        3.537        1.506      201.542       61.770        0.094      349.210       29.468      862.531
07/31/2014  17:56:00     -273.479      -93.880       10.719      135.346      141.469       81.155    18318.669    20013.353     6586.118        6.431        2.246      289.143       85.033        0.086      349.198       29.447      862.521
07/31/2014  17:57:00     -153.938      -73.316       14.940      156.475      110.454       73.671    24484.305    12200.171     5427.397        3.570        2.106      170.506       89.778        0.277      349.203       29.456      862.507
07/31/2014  17:58:00     -202.694     -103.379        6.254      178.296      136.886       81.479    31789.397    18737.669     6638.793        5.448        2.858      227.534       85.798        0.142      349.179       29.414      862.488
07/31/2014  17:59:00     -387.745      -14.746      -20.740      141.812      145.359       61.470    20110.613    21129.317     3778.501        9.800        2.251      388.026       54.200        0.020      349.149       29.362      862.485
07/31/2014  18:00:00     -244.553     -136.848       -4.078      180.546      150.772       80.231    32596.854    22732.180     6437.034        7.015        3.088      280.239       77.288        0.076      349.142       29.348      862.464
07/31/2014  18:01:00     -219.274      -25.261       -1.068      125.231      106.816       53.517    15682.883    11409.740     2864.021        3.933        1.498      220.724       58.950        0.071      349.188       29.431      862.465
07/31/2014  18:02:00     -179.208      -36.836       10.951      133.022      112.109       63.867    17694.980    12568.418     4079.013        3.396        1.717      182.955       64.698        0.125      349.219       29.484      862.453
07/31/2014  18:03:00     -239.085      -44.847       -4.947      185.760      103.683       59.661    34506.804    10750.121     3559.458        5.400        2.441      243.255       63.360        0.068      349.226       29.497      862.446
07/31/2014  18:04:00     -327.646       27.925      -12.691      166.671       97.860       59.598    27779.069     9576.562     3551.889        7.459        2.045      328.834       78.082        0.056      349.266       29.564      862.418
07/31/2014  18:05:00     -246.695      -72.457        7.639      162.835      104.897       76.325    26515.091    11003.444     5825.568        5.475        2.167      257.116       82.145        0.102      349.310       29.641      862.406
07/31/2014  18:06:00     -203.549      -46.939       -8.461      114.003      117.390       53.316    12996.779    13780.422     2842.598        3.666        1.481      208.892       58.659        0.079      349.350       29.710      862.398
07/31/2014  18:07:00     -196.264      -62.297       -3.564      104.523       77.487       45.918    10925.071     6004.223     2108.444        3.072        0.952      205.914       49.289        0.057      349.436       29.861      862.403
07/31/2014  18:08:00     -205.383     -127.850       -2.822      111.534      113.615       57.130    12439.923    12908.397     3263.814        4.357        1.431      241.925       69.210        0.082      349.430       29.849      862.383
07/31/2014  18:09:00     -161.273     -130.357       -4.344      139.381      107.158       65.722    19427.184    11482.731     4319.336        3.912        1.761      207.369       73.671        0.126      349.471       29.920      862.357
07/31/2014  18:10:00     -257.985      -67.014        4.887      176.195       96.059       62.754    31044.617     9227.275     3938.059        5.763        2.210      266.547       72.126        0.073      349.490       29.953      862.350
07/31/2014  18:11:00     -199.380     -107.440        4.044      149.026      104.339       69.076    22208.678    10886.575     4771.519        4.458        1.893      226.486       66.568        0.086      349.465       29.908      862.328
07/31/2014  18:12:00      -91.962      -59.684       26.158      167.196       88.148       69.915    27954.380     7770.034     4888.083        2.665        2.031      109.632       73.355        0.448      349.489       29.953      862.302
07/31/2014  18:13:00     -268.300     -110.547       -3.488      115.518       90.700       51.140    13344.413     8226.510     2615.291        5.420        1.209      290.182       56.239        0.038      349.412       29.816      862.283
07/31/2014  18:14:00     -223.518     -125.893        6.711      109.336       91.072       53.636    11954.256     8294.071     2876.817        4.449        1.156      256.533       49.641        0.037      349.450       29.882      862.258
07/31/2014  18:15:00     -262.357     -224.598       -1.838      158.930      126.796       74.234    25258.633    16077.189     5510.731        8.305        2.342      345.363       81.165        0.055      349.396       29.789      862.230
07/31/2014  18:16:00     -336.889     -103.943      -11.936      172.405      111.008       59.589    29723.558    12322.883     3550.839        8.501        2.280      352.559       54.468        0.024      349.421       29.833      862.235
07/31/2014  18:17:00     -331.659       -6.324       -5.092      151.816      139.424       76.162    23047.962    19439.114     5800.701        7.917        2.414      331.719       74.379        0.050      349.444       29.872      862.228
07/31/2014  18:18:00     -225.910      -27.000      -17.127      130.464       82.492       59.486    17020.727     6804.856     3538.550        3.971        1.368      227.517       58.151        0.065      349.541       30.043      862.215
07/31/2014  18:19:00     -301.941     -110.149       -8.575      147.287      149.560       70.267    21693.338    22368.050     4937.435        7.618        2.450      321.405       80.786        0.063      349.501       29.971      862.191
07/31/2014  18:20:00     -358.614      -25.814      -12.252      155.003      129.207       83.309    24026.019    16694.479     6940.462        8.853        2.383      359.541       87.299        0.059      349.456       29.892      862.159
07/31/2014  18:21:00     -182.508       28.220       19.780      165.855      103.606       72.255    27507.847    10734.272     5220.843        3.897        2.173      184.677       78.447        0.180      349.581       30.112      862.168
07/31/2014  18:22:00     -316.783      -96.132      -22.650      139.091      136.838       63.335    19346.292    18724.509     4011.377        7.609        2.104      331.048       58.556        0.031      349.480       29.934      862.169
07/31/2014  18:23:00     -404.209        6.945      -19.621      151.212      157.574       69.067    22865.100    24829.580     4770.206       10.813        2.623      404.269       85.066        0.044      349.484       29.944      862.174
07/31/2014  18:24:00     -185.831       -9.720      -14.114      173.561      107.572       54.317    30123.306    11571.661     2950.330        3.973        2.232      186.085       43.395        0.054      349.544       30.047      862.161
07/31/2014  18:25:00     -267.553      -32.879       -7.832      140.575       94.234       66.590    19761.253     8880.033     4434.241        5.289        1.654      269.566       68.632        0.065      349.530       30.023      862.157
07/31/2014  18:26:00     -307.126      -86.914       -8.935      135.197      102.964       55.187    18278.176    10601.514     3045.614        6.694        1.596      319.187       58.603        0.034      349.527       30.017      862.166
07/31/2014  18:27:00     -384.147      -84.788      -14.940      136.398       97.091       53.293    18604.520     9426.599     2840.106        9.292        1.544      393.392       57.757        0.022      349.510       29.987      862.169
07/31/2014  18:28:00     -276.298      -38.943        2.104      101.184      105.767       54.061    10238.245    11186.611     2922.557        5.110        1.217      279.029       51.426        0.034      349.583       30.115      862.184
07/31/2014  18:29:00     -345.369      -45.885      -17.664      128.110      122.359       64.038    16412.050    14971.786     4100.907        7.858        1.774      348.404       66.233        0.036      349.482       29.938      862.181
07/31/2014  18:30:00     -233.280      -37.927        6.089      192.320       99.306       70.660    36986.845     9861.608     4992.794        5.386        2.592      236.343       86.309        0.133      349.582       30.114      862.184
07/31/2014  18:31:00     -379.098     -148.928       -1.948      176.345      129.304       73.284    31097.648    16719.533     5370.578       10.953        2.659      407.301       79.311        0.038      349.421       29.832      862.191
07/31/2014  18:32:00     -526.019     -155.949      -24.929      221.668      168.986       81.738    49136.534    28556.272     6681.152       19.299        4.219      548.649       76.459        0.019      349.352       29.713      862.183
07/31/2014  18:33:00     -222.780     -115.863       15.919      184.885      137.038       74.832    34182.323    18779.537     5599.811        6.092        2.928      251.108       84.264        0.113      349.474       29.925      862.185
07/31/2014  18:34:00     -219.009     -170.179       12.582      196.238      156.484       95.980    38509.453    24487.151     9212.140        7.463        3.610      277.355      119.445        0.185      349.423       29.837      862.188
07/31/2014  18:35:00     -237.359     -188.621        7.139      169.407      123.028       82.237    28698.589    15135.821     6762.953        7.127        2.530      303.179       78.032        0.066      349.406       29.807      862.195
07/31/2014  18:36:00     -216.940       -8.253       -9.138      147.524       82.586       50.881    21763.445     6820.459     2588.829        3.919        1.559      217.097       65.440        0.091      349.508       29.984      862.219
07/31/2014  18:37:00     -216.202      -53.519       -1.877      110.697       74.443       61.578    12253.828     5541.688     3791.810        3.559        1.079      222.727       53.063        0.057      349.582       30.115      862.239
07/31/2014  18:38:00     -232.934      -92.202       -5.390      133.145      111.319       67.734    17727.636    12392.024     4587.891        4.874        1.735      250.519       41.427        0.027      349.553       30.063      862.241
07/31/2014  18:39:00     -316.581      -81.653        3.554      202.029      105.556       71.064    40815.643    11142.075     5050.137        8.194        2.850      326.941       88.526        0.073      349.448       29.879      862.250
07/31/2014  18:40:00     -471.178      -54.498      -38.706      185.631      126.982       68.363    34458.959    16124.492     4673.458       14.086        2.763      474.319       76.616        0.026      349.418       29.827      862.252
07/31/2014  18:41:00     -347.060      -62.309       -3.950      152.324      119.750       72.957    23202.623    14340.157     5322.699        8.360        2.143      352.609       79.356        0.051      349.455       29.891      862.245
07/31/2014  18:42:00     -452.166      -84.465      -22.433      225.411      175.737       76.359    50810.221    30883.480     5830.672       14.979        4.376      459.987       98.885        0.046      349.412       29.817      862.250
07/31/2014  18:43:00     -420.979      -86.664      -19.354      173.219      218.074       85.803    30004.773    47556.164     7362.078       13.500        4.246      429.807       87.177        0.041      349.389       29.777      862.266
07/31/2014  18:44:00     -369.725      -49.271      -30.269      100.328      120.110       62.156    10065.672    14426.406     3863.373        8.419        1.418      372.994       63.669        0.029      349.410       29.813      862.284
07/31/2014  18:45:00     -361.286     -106.748      -18.597      132.679      130.189       71.906    17603.791    16949.291     5170.488        9.099        1.986      376.727       67.713        0.032      349.397       29.791      862.280
07/31/2014  18:46:00     -347.204     -117.575      -30.982      138.716       93.093       57.670    19242.093     8666.309     3325.809        8.328        1.562      366.571       52.918        0.021      349.399       29.795      862.278
07/31/2014  18:47:00     -322.589     -142.670      -10.389      121.251      113.593       58.625    14701.785    12903.300     3436.886        7.778        1.552      352.729       55.209        0.024      349.361       29.727      862.282
07/31/2014  18:48:00     -435.419      -72.698      -44.548      147.886      106.627       58.663    21870.351    11369.261     3441.401       11.676        1.834      441.446       73.362        0.028      349.344       29.699      862.307
07/31/2014  18:49:00     -308.907       50.933      -12.540      138.536      105.141       61.914    19192.094    11054.549     3833.314        6.612        1.704      313.078       60.375        0.037      349.413       29.819      862.317
07/31/2014  18:50:00     -363.006       -8.998      -23.946      112.253       92.786       63.478    12600.683     8609.223     4029.479        7.883        1.262      363.117       63.838        0.031      349.372       29.749      862.328
07/31/2014  18:51:00     -174.401      -16.252        2.815      108.482       94.527       51.732    11768.365     8935.286     2676.202        2.703        1.169      175.156       54.289        0.096      349.425       29.841      862.348
07/31/2014  18:52:00     -221.397       20.167      -25.820      134.476      108.353       66.470    18083.722    11740.439     4418.219        4.216        1.712      222.313       65.070        0.086      349.401       29.797      862.356
07/31/2014  18:53:00     -315.609      -87.540       -1.276      178.003       94.694       62.915    31685.147     8967.042     3958.276        7.593        2.231      327.524       72.922        0.050      349.363       29.731      862.359
07/31/2014  18:54:00      -93.152      -49.630       -7.184       62.001       58.413       38.388     3844.153     3412.129     1473.625        0.996        0.436      105.548       36.195        0.118      349.447       29.883      862.386
07/31/2014  18:55:00     -103.331      -75.022        9.810      111.569       64.045       45.885    12447.574     4101.754     2105.388        1.752        0.933      127.694       55.421        0.188      349.439       29.867      862.400
07/31/2014  18:56:00     -174.861     -159.465       13.247      139.651       96.628       67.252    19502.507     9336.900     4522.780        4.476        1.668      236.654       73.383        0.096      349.350       29.708      862.395
07/31/2014  18:57:00     -289.773     -172.509       -1.203      134.815       94.400       64.386    18175.207     8911.337     4145.594        7.247        1.562      337.235       62.889        0.035      349.311       29.644      862.385
07/31/2014  18:58:00     -193.742      -58.384       -1.993       99.595       78.980       49.700     9919.094     6237.844     2470.066        2.978        0.931      202.348       50.085        0.061      349.361       29.731      862.407
07/31/2014  18:59:00     -216.657     -113.007       -1.348      134.710      117.818       57.254    18146.907    13881.146     3277.994        4.750        1.765      244.358       69.267        0.080      349.329       29.674      862.417
07/31/2014  19:00:00     -220.409      -50.170      -17.942       90.193       76.410       42.874     8134.753     5838.476     1838.147        3.361        0.791      226.047       42.990        0.036      349.362       29.730      862.428
07/31/2014  19:01:00     -150.024     -146.907       10.725      135.093      131.572       76.029    18250.045    17311.278     5780.348        4.276        2.067      209.973       73.083        0.121      349.357       29.725      862.434
07/31/2014  19:02:00     -221.931      -92.563       -1.293      144.277       86.894       59.319    20815.751     7550.522     3518.723        4.485        1.594      240.460       71.962        0.090      349.310       29.641      862.442
07/31/2014  19:03:00     -239.385      -76.420        0.781      161.278      129.976       58.392    26010.627    16893.657     3409.574        5.472        2.316      251.287       75.122        0.089      349.315       29.651      862.443
07/31/2014  19:04:00     -237.506     -151.181        7.116      137.779      151.873       80.946    18983.126    23065.461     6552.226        6.395        2.430      281.540       84.037        0.089      349.310       29.640      862.435
07/31/2014  19:05:00     -210.838      -46.052      -11.199       81.097      118.380       55.620     6576.759    14013.928     3093.612        3.519        1.184      215.808       44.048        0.042      349.351       29.711      862.453
07/31/2014  19:06:00     -223.768     -110.672        7.861      148.898      131.781       56.948    22170.503    17366.142     3243.032        5.257        2.139      249.641       61.084        0.060      349.306       29.634      862.474
07/31/2014  19:07:00      -92.634      -73.068       16.603      129.675      114.649       61.426    16815.646    13144.368     3773.162        2.396        1.687      117.983       72.411        0.377      349.339       29.693      862.491
07/31/2014  19:08:00     -166.993      -78.741        0.678      119.276       83.177       51.912    14226.731     6918.394     2694.850        2.896        1.192      184.627       62.280        0.114      349.343       29.699      862.530
07/31/2014  19:09:00     -140.365      -86.419       -0.267       72.310       74.618       40.380     5228.679     5567.791     1630.525        1.980        0.621      164.836       30.707        0.035      349.326       29.671      862.539
07/31/2014  19:10:00      -60.988      -32.533       10.228       82.424       64.550       50.849     6793.772     4166.727     2585.586        0.921        0.677       69.123       49.434        0.511      349.338       29.691      862.560
07/31/2014  19:11:00     -126.996       -8.813        3.610      107.249       68.440       44.206    11502.351     4684.057     1954.164        1.718        0.907      127.302       33.383        0.069      349.364       29.736      862.585
07/31/2014  19:12:00     -212.765      -90.975      -16.705       84.219       56.362       44.949     7092.819     3176.630     2020.407        3.305        0.614      231.399       42.183        0.033      349.302       29.628      862.611
07/31/2014  19:13:00      -96.756       -3.647        7.635       87.077       51.968       31.273     7582.405     2700.725      978.014        1.034        0.563       96.825       39.669        0.168      349.279       29.592      862.619
07/31/2014  19:14:00     -231.625      -49.841        3.242      102.295       70.643       45.665    10464.278     4990.405     2085.306        3.684        0.877      236.927       49.663        0.044      349.321       29.662      862.638
07/31/2014  19:15:00     -267.437      -45.583      -15.800      147.004       96.900       54.377    21610.059     9389.679     2956.843        5.390        1.698      271.293       59.787        0.049      349.318       29.656      862.649
07/31/2014  19:16:00     -167.076     -119.368       17.804      140.710      112.834       72.732    19799.435    12731.503     5289.986        4.014        1.891      205.337       75.305        0.134      349.277       29.585      862.650
07/31/2014  19:17:00     -148.193      -17.435       11.916       92.939       71.799       37.092     8637.602     5155.110     1375.838        1.878        0.758      149.215       35.844        0.058      349.285       29.599      862.675
07/31/2014  19:18:00      -57.318      -37.607       11.661       68.826       70.354       35.756     4737.050     4949.671     1278.501        0.790        0.548       68.554       20.958        0.093      349.363       29.735      862.671
07/31/2014  19:19:00     -118.846      -46.460       -3.710      183.145       86.606       51.029    33542.028     7500.594     2604.007        2.996        2.182      127.605       57.158        0.201      349.205       29.461      862.657
07/31/2014  19:20:00     -337.128     -117.176       -2.224      154.563      108.441       61.065    23889.702    11759.554     3728.944        8.338        1.969      356.911       57.897        0.026      349.287       29.602      862.663
07/31/2014  19:21:00     -341.155     -136.249       -6.332      137.619      126.834       63.877    18939.092    16086.937     4080.322        8.704        1.955      367.356       70.326        0.037      349.274       29.578      862.663
07/31/2014  19:22:00     -251.709      -33.413       -2.267      136.042       81.352       50.516    18507.456     6618.091     2551.849        4.607        1.384      253.917       61.156        0.058      349.279       29.590      862.671
07/31/2014  19:23:00     -264.980      -39.126        1.380      110.944      100.562       53.383    12308.486    10112.747     2849.793        4.850        1.264      267.853       53.118        0.039      349.284       29.597      862.669
07/31/2014  19:24:00     -166.024      -29.628        2.088      107.051       61.536       42.867    11459.846     3786.629     1837.577        2.276        0.854      168.647       47.017        0.078      349.267       29.566      862.683
07/31/2014  19:25:00     -250.876     -113.762       -9.060       96.944      109.151       45.980     9398.095    11913.948     2114.120        4.969        1.171      275.464       42.612        0.024      349.263       29.559      862.688
07/31/2014  19:26:00     -299.847      -30.740      -19.330      102.657       80.548       51.128    10538.391     6487.914     2614.032        5.543        0.982      301.418       48.983        0.026      349.265       29.563      862.700
07/31/2014  19:27:00     -277.611     -109.043      -11.873      105.270       72.805       55.328    11081.724     5300.640     3061.171        5.427        0.972      298.258       50.826        0.029      349.262       29.556      862.716
07/31/2014  19:28:00     -237.267      -52.092      -13.043       80.930       74.122       37.100     6549.695     5494.014     1376.386        3.630        0.671      242.918       30.740        0.016      349.233       29.508      862.717
07/31/2014  19:29:00     -251.931      -55.688      -12.552      112.531       72.282       48.510    12663.253     5224.716     2353.229        4.348        1.012      258.013       50.325        0.038      349.214       29.475      862.729
07/31/2014  19:30:00     -245.732      -75.725       -0.507      111.726       88.256       46.694    12482.728     7789.088     2180.366        4.428        1.123      257.135       45.357        0.031      349.229       29.500      862.739
07/31/2014  19:31:00     -260.790      -44.884        2.505      107.755       80.813       55.863    11611.159     6530.710     3120.623        4.564        1.063      264.624       60.610        0.052      349.221       29.488      862.752
07/31/2014  19:32:00     -202.783      -32.415       -4.704      126.420       68.366       44.784    15982.007     4673.957     2005.627        3.242        1.133      205.357       54.127        0.069      349.171       29.399      862.778
07/31/2014  19:33:00     -181.745      -57.723        8.958       89.487      104.061       49.846     8008.003    10828.588     2484.656        2.888        1.066      190.691       48.187        0.064      349.183       29.421      862.797
07/31/2014  19:34:00     -161.301       -5.936      -12.337       71.643       49.724       35.463     5132.685     2472.436     1257.619        1.753        0.443      161.410       34.868        0.047      349.216       29.479      862.811
07/31/2014  19:35:00     -168.004      -57.901      -12.263       89.307       76.347       42.823     7975.667     5828.856     1833.795        2.368        0.782      177.702       48.597        0.075      349.189       29.434      862.821
07/31/2014  19:36:00     -144.811      -44.405       -0.805       92.035       71.702       41.110     8470.448     5141.147     1690.004        1.912        0.765      151.467       38.126        0.063      349.171       29.402      862.836
07/31/2014  19:37:00     -212.165      -35.470       -9.190      105.350       58.246       43.366    11098.530     3392.613     1880.599        3.136        0.819      215.109       52.821        0.060      349.161       29.383      862.855
07/31/2014  19:38:00     -261.166      -51.703       -4.205       98.135       55.229       45.365     9630.539     3050.211     2057.945        4.282        0.737      266.235       47.223        0.031      349.129       29.326      862.865
07/31/2014  19:39:00     -155.891      -86.345       -9.815       83.033       52.853       39.435     6894.436     2793.400     1555.136        2.155        0.562      178.206       38.319        0.046      349.100       29.277      862.884
07/31/2014  19:40:00     -152.288      -63.872      -10.566       52.967       41.992       30.175     2805.454     1763.312      910.558        1.643        0.274      165.140       25.034        0.023      349.100       29.278      862.902
07/31/2014  19:41:00     -244.602        2.820      -24.373       56.826       39.788       28.566     3229.238     1583.076      816.003        3.303        0.281      244.618       24.703        0.010      349.105       29.284      862.919
07/31/2014  19:42:00     -210.301      -40.195      -21.124       56.773       48.800       35.881     3223.206     2381.459     1287.482        2.659        0.345      214.107       26.423        0.015      349.136       29.340      862.938
07/31/2014  19:43:00     -131.589      -20.924      -17.984       41.473       35.773       29.735     1719.968     1279.686      884.186        1.098        0.194      133.243        6.379        0.002      349.087       29.256      862.950
07/31/2014  19:44:00      -64.285      -23.833       -2.399       50.564       48.681       30.768     2556.669     2369.818      946.698        0.529        0.294       68.560       34.649        0.255      349.018       29.140      862.972
07/31/2014  19:45:00      -92.888      -23.116      -11.094       36.128       35.048       22.090     1305.224     1228.397      487.969        0.615        0.151       95.722       21.841        0.052      349.006       29.116      862.981
07/31/2014  19:46:00     -111.139       -2.185      -10.058       42.124       44.479       19.236     1774.461     1978.384      370.039        0.829        0.206      111.161        5.086        0.002      348.971       29.055      862.991
07/31/2014  19:47:00     -104.257      -57.026       -2.531       39.758       46.898       27.047     1580.700     2199.462      731.524        0.932        0.226      118.833       23.760        0.040      348.970       29.054      862.990
07/31/2014  19:48:00     -173.215      -25.575      -15.181       36.110       38.605       24.127     1303.965     1490.316      582.102        1.713        0.169      175.093       17.471        0.010      348.946       29.012      863.000
07/31/2014  19:49:00     -146.098      -54.614       -5.428       69.284       42.350       37.043     4800.328     1793.551     1372.218        1.616        0.398      155.973       34.874        0.050      348.926       28.980      863.009
07/31/2014  19:50:00     -121.508      -40.626      -12.750       40.603       38.834       23.760     1648.623     1508.079      564.558        1.015        0.186      128.119       15.719        0.015      348.930       28.985      863.003
07/31/2014  19:51:00     -127.780      -49.317      -11.498       58.362       41.067       26.568     3406.156     1686.527      705.842        1.234        0.290      136.967       28.447        0.043      348.919       28.966      863.010
07/31/2014  19:52:00     -118.853      -20.433       -1.886       63.805       43.707       27.632     4071.103     1910.298      763.521        1.064        0.337      120.597       32.078        0.071      348.935       28.993      863.016
07/31/2014  19:53:00     -100.752       44.755       -1.914       51.773       43.442       33.973     2680.458     1887.167     1154.169        0.894        0.286      110.245       32.954        0.089      348.874       28.890      863.027
07/31/2014  19:54:00     -101.269       43.487      -13.328       57.912       77.346       38.940     3353.814     5982.452     1516.314        1.159        0.543      110.211       35.974        0.107      348.864       28.871      863.042
07/31/2014  19:55:00      -97.941       15.253       -7.736       39.511       44.365       34.412     1561.105     1968.255     1184.161        0.730        0.236       99.122       23.286        0.055      348.857       28.858      863.057
07/31/2014  19:56:00     -123.664        4.600       -4.299       75.946       57.493       39.030     5767.811     3305.397     1523.361        1.296        0.530      123.750       43.613        0.124      348.816       28.788      863.065
07/31/2014  19:57:00      -77.833       19.356       -4.311       75.680       36.607       30.121     5727.535     1340.099      907.283        0.721        0.399       80.204       34.022        0.180      348.810       28.776      863.081
07/31/2014  19:58:00     -143.803       63.322      -25.432       65.422       36.458       25.386     4280.059     1329.152      644.432        1.579        0.313      157.127       20.463        0.017      348.864       28.871      863.091
07/31/2014  19:59:00      -91.850        8.759       -8.707       72.142       36.417       33.256     5204.423     1326.223     1105.966        0.811        0.382       92.267       38.436        0.174      348.869       28.879      863.104
07/31/2014  20:00:00      -49.225       33.463       -7.639       34.909       28.187       29.723     1218.648      794.501      883.482        0.325        0.145       59.522       18.171        0.093      348.860       28.864      863.111
07/31/2014  20:01:00      -52.918       23.107        4.641       37.851       34.049       24.463     1432.731     1159.331      598.419        0.327        0.160       57.743       20.313        0.124      348.851       28.847      863.108
07/31/2014  20:02:00      -91.576      -14.749      -11.881       56.601       74.890       28.802     3203.667     5608.525      829.537        0.919        0.482       92.756       28.357        0.093      348.838       28.826      863.117
07/31/2014  20:03:00     -100.608       59.921      -23.590       50.447       76.017       29.803     2544.858     5778.645      888.201        1.174        0.461      117.101       24.985        0.046      348.841       28.831      863.135
07/31/2014  20:04:00      -24.039        9.348       27.918       79.816       39.160       34.085     6370.568     1533.470     1161.767        0.525        0.453       25.792       44.521        2.980      348.749       28.671      863.152
07/31/2014  20:05:00      -94.250       41.075      -18.863       36.077       33.976       27.928     1301.547     1154.335      779.979        0.708        0.162      102.812       18.965        0.034      348.752       28.678      863.173
07/31/2014  20:06:00      -81.939       18.268       -4.203       51.309       40.153       24.756     2632.662     1612.281      612.842        0.596        0.243       83.951       18.984        0.051      348.768       28.705      863.186
07/31/2014  20:07:00     -101.926       23.225       -8.770       49.944       46.453       22.302     2494.362     2157.904      497.357        0.808        0.257      104.538       12.309        0.014      348.815       28.787      863.205
07/31/2014  20:08:00     -237.610       33.739      -27.679       83.156       54.088       34.313     6914.972     2925.483     1177.359        3.469        0.551      239.993       30.924        0.017      348.902       28.935      863.229
07/31/2014  20:09:00      -64.068       18.392        9.980       62.584       69.540       31.643     3916.804     4835.857     1001.265        0.715        0.488       66.656       23.907        0.129      348.846       28.839      863.231
07/31/2014  20:10:00      -88.438       90.604       -3.467       60.655       63.971       34.354     3679.029     4092.248     1180.207        1.250        0.448      126.611       31.107        0.060      348.843       28.834      863.236
07/31/2014  20:11:00      -85.136       64.584       -4.058       46.808       39.975       28.523     2190.977     1598.004      813.556        0.802        0.230      106.861       29.971        0.079      348.846       28.841      863.242
07/31/2014  20:12:00     -115.804      144.598      -15.701       61.016       75.093       46.367     3722.952     5638.924     2149.866        2.304        0.576      185.255       44.195        0.057      348.892       28.917      863.247
07/31/2014  20:13:00     -143.803      118.004      -33.986       52.180       84.943       34.354     2722.712     7215.380     1180.208        2.344        0.556      186.022       36.887        0.039      348.904       28.939      863.250
07/31/2014  20:14:00     -106.925      221.562      -28.972       54.650       78.142       37.152     2986.673     6106.150     1380.280        3.592        0.524      246.014       30.535        0.015      348.872       28.881      863.252
07/31/2014  20:15:00     -144.704      163.486      -18.581       99.523       98.184       51.516     9904.845     9640.130     2653.907        3.510        1.110      218.328       60.689        0.077      348.854       28.851      863.258
07/31/2014  20:16:00     -155.700      181.367      -35.100       49.417       78.134       41.572     2442.025     6104.966     1728.194        3.432        0.514      239.032       27.136        0.013      348.892       28.914      863.274
07/31/2014  20:17:00     -149.043      163.223      -30.033       65.092       87.740       46.849     4237.031     7698.252     2194.854        3.194        0.707      221.033       46.741        0.045      348.875       28.887      863.272
07/31/2014  20:18:00      -96.799       81.547      -10.372       71.437       53.620       30.048     5103.220     2875.154      902.903        1.250        0.444      126.570       37.129        0.086      348.809       28.775      863.281
07/31/2014  20:19:00      -99.203       93.868      -17.186       68.070       73.304       33.256     4633.581     5373.407     1105.948        1.503        0.556      136.574       29.434        0.046      348.837       28.824      863.288
07/31/2014  20:20:00      -83.870      105.190      -20.326       36.797       54.748       29.574     1354.016     2997.367      874.604        1.187        0.261      134.533       30.133        0.050      348.789       28.742      863.300
07/31/2014  20:21:00      -98.172      111.215      -10.250       67.832       57.496       31.752     4601.157     3305.757     1008.186        1.551        0.446      148.346       24.656        0.028      348.668       28.531      863.302
07/31/2014  20:22:00     -105.656      124.858      -23.078       36.948       44.451       22.133     1365.152     1975.857      489.877        1.556        0.192      163.563       19.244        0.014      348.746       28.667      863.302
07/31/2014  20:23:00      -65.076       75.162        0.283       46.926       43.492       34.173     2202.080     1891.511     1167.791        0.757        0.263       99.419       31.935        0.103      348.707       28.600      863.319
07/31/2014  20:24:00      -48.154       52.949       -5.170       23.035       40.236       18.658      530.625     1618.913      348.104        0.382        0.125       71.571       14.851        0.043      348.585       28.389      863.318
07/31/2014  20:25:00      -70.370       12.729      -13.854       20.783       19.123       15.866      431.942      365.685      251.737        0.318        0.052       71.512        8.071        0.013      348.616       28.439      863.328
07/31/2014  20:26:00      -12.523       18.524        2.929       16.637       18.653       15.837      276.794      347.947      250.796        0.069        0.044       22.360        9.539        0.182      348.569       28.360      863.351
07/31/2014  20:27:00      -35.403        7.132        1.706       20.529       20.524       18.489      421.429      421.252      341.853        0.125        0.059       36.114        3.144        0.008      348.543       28.316      863.367
07/31/2014  20:28:00      -69.258       83.393       -5.112       61.011       79.747       35.180     3722.346     6359.584     1237.633        1.155        0.566      108.402       30.795        0.081      348.541       28.313      863.370
07/31/2014  20:29:00     -101.412       42.342      -12.922       31.031       31.054       22.045      962.933      964.330      486.001        0.733        0.121      109.897       14.462        0.017      348.506       28.253      863.389
07/31/2014  20:30:00      -66.258       33.949       -0.266       54.294       62.248       40.483     2947.855     3874.756     1638.890        0.700        0.423       74.449       21.298        0.082      348.536       28.304      863.380
07/31/2014  20:31:00      -58.040       70.485      -19.566       30.839       37.272       22.660      951.033     1389.218      513.492        0.579        0.143       91.306       16.039        0.031      348.522       28.280      863.381
07/31/2014  20:32:00      -79.324       59.563      -16.846       49.233       83.672       28.315     2423.902     7000.922      801.755        1.017        0.511       99.197       36.697        0.137      348.545       28.319      863.376
07/31/2014  20:33:00      -77.581       79.926       -8.200       40.307       45.524       30.884     1624.643     2072.430      953.851        0.856        0.233      111.387       30.883        0.077      348.475       28.198      863.360
07/31/2014  20:34:00     -179.303       36.653      -13.963      106.007       79.085       43.176    11237.465     6254.455     1864.157        2.652        0.968      183.011       47.344        0.067      348.531       28.293      863.367
07/31/2014  20:35:00     -139.109       18.336      -13.619       68.229       61.036       32.542     4655.205     3725.398     1058.966        1.465        0.472      140.312       29.191        0.043      348.523       28.279      863.360
07/31/2014  20:36:00     -131.686      -37.878      -25.677       57.654       51.749       33.712     3323.989     2677.927     1136.513        1.329        0.357      137.026       11.872        0.008      348.492       28.228      863.347
07/31/2014  20:37:00     -148.909       42.484       -3.943       54.709       53.725       38.087     2993.116     2886.394     1450.640        1.566        0.367      154.851       30.622        0.039      348.460       28.171      863.341
07/31/2014  20:38:00     -102.789       26.619       -7.881       48.132       67.548       30.274     2316.700     4562.764      916.518        0.956        0.390      106.180       33.433        0.099      348.439       28.135      863.353
07/31/2014  20:39:00     -131.617       66.306      -21.705       79.053       55.238       32.562     6249.316     3051.284     1060.262        1.627        0.518      147.376       39.340        0.071      348.435       28.127      863.368
07/31/2014  20:40:00     -107.426       71.824      -27.476       76.495       75.343       52.291     5851.487     5676.558     2734.360        1.586        0.713      129.225       36.080        0.078      348.452       28.158      863.370
07/31/2014  20:41:00     -118.974       46.008      -16.786       88.846       67.018       57.512     7893.664     4491.346     3307.597        1.612        0.785      127.560       48.495        0.145      348.494       28.229      863.355
07/31/2014  20:42:00     -161.547       81.497      -40.689       59.142       77.296       43.954     3497.750     5974.737     1931.980        2.290        0.570      180.940       43.104        0.057      348.491       28.223      863.337
07/31/2014  20:43:00     -121.471       47.187       -5.864       87.197       63.698       42.691     7603.235     4057.419     1822.562        1.525        0.674      130.314       39.964        0.094      348.426       28.112      863.337
07/31/2014  20:44:00     -123.723       29.721       -7.407       89.593       53.825       34.756     8026.918     2897.174     1207.954        1.419        0.607      127.242       32.949        0.067      348.400       28.067      863.323
07/31/2014  20:45:00     -128.006      138.492      -30.912       85.417       98.676       55.712     7296.132     9737.036     3103.776        2.832        1.007      188.588       63.405        0.113      348.444       28.142      863.330
07/31/2014  20:46:00      -82.250      103.752      -12.284       58.844       46.858       33.116     3462.578     2195.694     1096.701        1.222        0.338      132.399       22.292        0.028      348.375       28.025      863.336
07/31/2014  20:47:00     -168.001      154.850      -36.510       65.963       65.416       45.146     4351.150     4279.258     2038.206        3.210        0.533      228.479       35.382        0.024      348.477       28.199      863.346
07/31/2014  20:48:00     -141.142      153.252      -37.316       52.840       47.951       28.041     2792.107     2299.314      786.325        2.534        0.294      208.344       26.827        0.017      348.452       28.156      863.360
07/31/2014  20:49:00     -117.419      134.008      -21.438       58.351       69.921       37.675     3404.821     4888.901     1419.398        2.096        0.486      178.173       34.207        0.037      348.427       28.112      863.354
07/31/2014  20:50:00     -110.642      158.648      -21.669       55.388       65.100       36.260     3067.828     4237.975     1314.755        2.325        0.431      193.419       40.935        0.045      348.407       28.079      863.339
07/31/2014  20:51:00      -91.695      152.707      -21.776       53.595       49.607       26.294     2872.401     2460.857      691.362        1.911        0.301      178.121       22.334        0.016      348.437       28.133      863.342
07/31/2014  20:52:00      -96.874      195.884      -21.717       52.739       72.555       33.681     2781.385     5264.260     1134.388        2.870        0.459      218.530       30.002        0.019      348.410       28.082      863.330
07/31/2014  20:53:00      -85.633      137.464      -18.112       43.190       48.241       29.331     1865.349     2327.205      860.308        1.580        0.253      161.955       28.447        0.031      348.367       28.010      863.331
07/31/2014  20:54:00      -92.554      158.750      -22.111       68.409       74.422       34.135     4679.773     5538.627     1165.176        2.282        0.569      183.760       30.553        0.028      348.317       27.921      863.334
07/31/2014  20:55:00     -132.982      211.200      -35.557       79.432      108.822       41.364     6309.471    11842.142     1710.980        4.170        0.993      249.579       55.577        0.050      348.308       27.906      863.340
07/31/2014  20:56:00     -142.476      156.307      -32.945       67.080       68.815       35.763     4499.765     4735.504     1279.000        2.816        0.526      211.498       28.360        0.018      348.311       27.911      863.352
07/31/2014  20:57:00     -131.469      103.382      -19.249       71.039       75.104       39.923     5046.521     5640.628     1593.817        2.031        0.614      167.248       36.519        0.048      348.287       27.872      863.365
07/31/2014  20:58:00     -178.843       73.857       -5.149      131.765       52.020       52.373    17362.128     2706.029     2742.964        3.013        1.141      193.493       65.015        0.113      348.251       27.807      863.381
07/31/2014  20:59:00      -96.283       59.211      -14.483       72.362       58.868       36.499     5236.321     3465.414     1332.155        1.151        0.502      113.033       40.478        0.128      348.200       27.722      863.402
07/31/2014  21:00:00      -91.821      112.454      -19.458       48.085       56.489       27.874     2312.137     3191.015      776.954        1.387        0.314      145.180       16.945        0.014      348.188       27.700      863.393
07/31/2014  21:01:00     -104.693       50.012      -23.637       56.307       48.777       25.501     3170.523     2379.178      650.277        1.011        0.310      116.025       21.440        0.034      348.239       27.788      863.395
07/31/2014  21:02:00      -71.472       14.631       -3.933       40.772       38.854       27.207     1662.326     1509.600      740.222        0.462        0.196       72.954       20.874        0.082      348.140       27.620      863.399
07/31/2014  21:03:00     -117.094       90.485      -21.340       69.833       58.242       37.030     4876.590     3392.158     1371.239        1.600        0.482      147.981       33.405        0.051      348.127       27.595      863.404
07/31/2014  21:04:00     -224.377      112.558      -40.038       82.478       51.195       39.449     6802.670     2620.922     1556.189        3.780        0.549      251.026       41.205        0.027      348.154       27.640      863.415
07/31/2014  21:05:00      -98.239      126.968      -18.981       51.350      101.606       39.361     2636.844    10323.807     1549.323        2.032        0.725      160.536       40.318        0.063      348.107       27.562      863.417
07/31/2014  21:06:00     -118.547       43.365      -19.564       87.325       67.803       42.856     7625.613     4597.298     1836.621        1.519        0.703      126.230       49.959        0.157      348.080       27.514      863.413
07/31/2014  21:07:00     -149.366       36.321      -23.770       45.155       62.045       38.663     2038.939     3849.601     1494.832        1.579        0.369      153.719       25.048        0.027      348.065       27.489      863.420
07/31/2014  21:08:00     -131.170       39.694      -17.588       55.204       56.765       28.809     3047.462     3222.264      829.953        1.309        0.355      137.044       23.551        0.030      348.007       27.386      863.427
07/31/2014  21:09:00     -205.286       40.740      -37.426       54.775       53.299       34.424     3000.257     2840.770     1185.018        2.611        0.351      209.290       26.381        0.016      348.026       27.418      863.428
07/31/2014  21:10:00     -125.059        5.639      -31.125       52.848       43.894       25.570     2792.954     1926.695      653.843        1.101        0.269      125.186       25.434        0.041      347.947       27.284      863.444
07/31/2014  21:11:00     -130.143      -53.932        5.621       84.921       76.934       42.185     7211.525     5918.861     1779.584        1.739        0.745      140.875       44.081        0.098      347.913       27.225      863.444
07/31/2014  21:12:00      -70.723      -39.021        3.412       71.021       44.296       33.026     5044.052     1962.136     1090.699        0.731        0.405       80.773       36.778        0.207      347.904       27.211      863.461
07/31/2014  21:13:00     -141.284      -50.661      -10.340       60.353       36.324       27.149     3642.536     1319.456      737.059        1.417        0.285      150.093       27.555        0.034      347.832       27.084      863.483
07/31/2014  21:14:00     -230.112      -98.764       -6.955       78.568       70.784       44.270     6172.947     5010.418     1959.877        3.795        0.657      250.412       33.366        0.018      347.804       27.034      863.495
07/31/2014  21:15:00     -189.525      -81.574        1.161       80.918       63.987       36.474     6547.786     4094.323     1330.337        2.727        0.599      206.335       40.060        0.038      347.744       26.932      863.515
07/31/2014  21:16:00     -236.080      -26.462      -12.032       71.762       77.250       46.268     5149.724     5967.593     2140.772        3.492        0.663      237.559       46.498        0.038      347.774       26.982      863.538
07/31/2014  21:17:00     -216.961      -33.358      -15.952       67.044       61.243       37.690     4494.869     3750.751     1420.515        2.905        0.483      219.511       35.156        0.026      347.710       26.872      863.551
07/31/2014  21:18:00     -210.177      -45.739       -5.125       93.494       61.117       40.258     8741.071     3735.230     1620.684        3.019        0.705      215.097       48.939        0.052      347.700       26.856      863.575
07/31/2014  21:19:00     -155.259      -62.491       -5.838       78.391       53.272       34.151     6145.167     2837.853     1166.324        1.909        0.507      167.363       36.929        0.049      347.659       26.787      863.587
07/31/2014  21:20:00     -163.811      -55.017        3.378       80.602       64.563       41.643     6496.736     4168.341     1734.120        2.113        0.620      172.803       43.614        0.064      347.634       26.744      863.596
07/31/2014  21:21:00     -162.791      -27.769       -1.476       88.591       64.681       42.379     7848.370     4183.578     1796.022        2.055        0.691      165.143       47.383        0.082      347.594       26.675      863.618
07/31/2014  21:22:00     -239.335      -33.178      -19.645       80.485       61.913       35.866     6477.757     3833.173     1286.404        3.518        0.580      241.624       30.641        0.016      347.558       26.611      863.630
07/31/2014  21:23:00     -182.782      -23.056       -8.513       77.405       68.226       35.412     5991.553     4654.762     1254.031        2.295        0.595      184.230       23.279        0.016      347.471       26.463      863.643
07/31/2014  21:24:00     -178.326      -34.880      -14.494       73.644       57.368       37.774     5423.386     3291.079     1426.877        2.168        0.507      181.705       35.070        0.037      347.509       26.527      863.649
07/31/2014  21:25:00     -165.668      -16.800       -0.322       82.561       79.482       39.087     6816.335     6317.323     1527.807        2.119        0.733      166.518       41.903        0.063      347.442       26.412      863.643
07/31/2014  21:26:00     -174.570      -62.341      -11.917       59.887       78.489       35.019     3586.396     6160.493     1226.356        2.274        0.549      185.367       29.769        0.026      347.430       26.391      863.655
07/31/2014  21:27:00     -210.812      -40.147      -11.222       68.104       55.357       34.801     4638.155     3064.365     1211.116        2.754        0.446      214.601       36.826        0.029      347.374       26.294      863.657
07/31/2014  21:28:00     -222.726      -31.100      -17.515       70.184       44.132       31.927     4925.769     1947.597     1019.347        2.939        0.395      224.887       28.781        0.016      347.393       26.325      863.669
07/31/2014  21:29:00     -225.478       -0.596      -17.004       71.146       47.699       34.713     5061.763     2275.223     1205.017        2.983        0.427      225.478       32.766        0.021      347.375       26.296      863.676
07/31/2014  21:30:00     -202.935       -0.672      -15.538       68.032       48.215       35.649     4628.406     2324.695     1270.871        2.482        0.411      202.936       34.761        0.029      347.414       26.362      863.681
07/31/2014  21:31:00     -123.822      -12.499       -4.692       56.093       43.480       30.390     3146.388     1890.502      923.541        1.073        0.298      124.451       23.294        0.035      347.373       26.293      863.697
07/31/2014  21:32:00     -181.006      -58.384       -6.651       62.446       46.720       34.042     3899.540     2182.722     1158.878        2.173        0.362      190.189       35.233        0.034      347.368       26.283      863.701
07/31/2014  21:33:00     -231.553      -34.749      -14.156       80.661       55.412       38.340     6506.263     3070.442     1469.929        3.303        0.552      234.146       39.371        0.028      347.405       26.346      863.714
07/31/2014  21:34:00     -201.399      -26.789       -2.296       89.505       59.301       35.659     8011.145     3516.665     1271.570        2.704        0.640      203.173       41.502        0.042      347.461       26.444      863.724
07/31/2014  21:35:00     -205.660       11.607      -12.678       92.539       55.107       41.473     8563.515     3036.773     1719.974        2.795        0.666      205.988       49.500        0.058      347.505       26.520      863.733
07/31/2014  21:36:00      -83.619       33.425       -0.294       74.726       45.687       25.699     5584.027     2087.272      660.428        0.822        0.417       90.052       23.633        0.069      347.374       26.296      863.768
07/31/2014  21:37:00      -26.383      146.162      -23.179       35.554       67.090       22.939     1264.066     4501.080      526.200        1.444        0.315      148.524       22.168        0.022      347.359       26.269      863.792
07/31/2014  21:38:00      -32.704      217.520      -32.453       35.684       35.594       20.982     1273.319     1266.911      440.253        2.621        0.149      219.965       16.670        0.006      347.320       26.200      863.803
07/31/2014  21:39:00      -31.886      224.384      -38.310       25.403       31.083       17.269      645.314      966.125      298.222        2.737        0.095      226.638        7.261        0.001      347.500       26.510      863.805
07/31/2014  21:40:00      -82.493      130.952      -22.366       32.804       48.460       24.016     1076.105     2348.331      576.783        1.423        0.200      154.769       22.287        0.021      347.389       26.322      863.815
07/31/2014  21:41:00     -106.839       79.675      -15.994       46.263       38.039       28.074     2140.243     1447.002      788.165        1.120        0.219      133.277       27.721        0.043      347.418       26.374      863.820
07/31/2014  21:42:00     -113.305       84.301      -29.586       42.110       48.495       22.542     1773.257     2351.759      508.146        1.273        0.232      141.226       24.569        0.030      347.744       26.936      863.820
07/31/2014  21:43:00     -115.345      126.644      -29.461       44.022       48.828       26.423     1937.907     2384.150      698.159        1.761        0.251      171.299       21.426        0.016      347.640       26.755      863.824
07/31/2014  21:44:00     -130.013      124.574      -34.977       30.208       42.186       21.479      912.536     1779.663      461.333        1.840        0.158      180.061       14.631        0.007      347.583       26.655      863.840
07/31/2014  21:45:00     -153.238       81.351      -24.874       34.420       36.992       25.060     1184.741     1368.429      628.003        1.695        0.159      173.493       17.633        0.010      347.463       26.450      863.855
07/31/2014  21:46:00     -119.550       91.066      -17.158       49.944       53.231       31.174     2494.447     2833.566      971.831        1.459        0.315      150.284       31.724        0.045      347.595       26.677      863.872
07/31/2014  21:47:00     -123.739      178.114      -31.717       35.023       45.093       26.111     1226.589     2033.378      681.808        2.599        0.197      216.878       22.632        0.011      347.714       26.880      863.865
07/31/2014  21:48:00     -100.682      185.209      -26.121       40.444       46.982       28.589     1635.755     2207.336      817.337        2.489        0.233      210.806       25.538        0.015      347.603       26.689      863.873
07/31/2014  21:49:00      -83.772      180.192      -28.082       39.587       40.879       23.936     1567.093     1671.068      572.928        2.204        0.191      198.713       17.807        0.008      347.534       26.571      863.882
07/31/2014  21:50:00      -86.799      104.471      -16.600       37.783       46.098       23.697     1427.550     2125.004      561.556        1.142        0.206      135.825       19.015        0.020      347.613       26.710      863.876
07/31/2014  21:51:00     -100.663       90.419       -9.581       40.790       48.123       24.450     1663.861     2315.804      597.821        1.149        0.229      135.309       18.098        0.018      347.664       26.797      863.878
07/31/2014  21:52:00      -68.334       77.742      -14.678       51.334       51.530       36.190     2635.141     2655.344     1309.722        0.876        0.330      103.506       20.672        0.040      347.714       26.883      863.879
07/31/2014  21:53:00      -79.596       45.662       -7.018       37.893       23.446       21.133     1435.889      549.693      446.606        0.545        0.122       91.764       14.617        0.025      347.519       26.548      863.892
07/31/2014  21:54:00     -106.291       98.724      -22.729       36.087       38.285       20.365     1302.279     1465.751      414.736        1.237        0.159      145.067       16.957        0.014      347.579       26.651      863.902
07/31/2014  21:55:00      -98.232      129.102      -26.313       45.936       40.657       25.452     2110.095     1652.992      647.789        1.571        0.221      162.225       23.855        0.022      347.571       26.637      863.892
07/31/2014  21:56:00      -75.054      118.887      -19.216       39.993       34.421       23.640     1599.459     1184.781      558.872        1.174        0.167      140.596       19.951        0.020      347.491       26.499      863.885
07/31/2014  21:57:00      -19.574      181.864      -32.562       47.873       43.884       18.001     2291.815     1925.798      324.023        1.953        0.227      182.914       18.256        0.010      347.482       26.482      863.894
07/31/2014  21:58:00      -37.769      200.082      -26.936       36.949       44.686       22.122     1365.255     1996.882      489.376        2.302        0.193      203.615       17.123        0.007      347.406       26.350      863.899
07/31/2014  21:59:00       13.099      217.774      -37.761       29.228       37.789       18.731      854.301     1428.002      350.836        2.583        0.132      218.168       18.358        0.007      347.436       26.401      863.911
07/31/2014  22:00:00        1.940      131.960      -21.651       39.980       37.884       22.166     1598.409     1435.181      491.344        1.070        0.176      131.975       21.164        0.026      347.264       26.107      863.919
07/31/2014  22:01:00      -42.021      196.591      -22.814       38.657       71.962       32.056     1494.394     5178.518     1027.569        2.432        0.385      201.032       37.319        0.034      347.288       26.146      863.939
07/31/2014  22:02:00      -45.331      203.042      -20.596       49.337      102.872       47.128     2434.139    10582.700     2221.031        2.947        0.762      208.041       40.744        0.038      347.354       26.260      863.939
07/31/2014  22:03:00      -53.584      133.019       -9.655       39.315       49.273       33.009     1545.680     2427.814     1089.580        1.286        0.253      143.406       28.179        0.039      347.258       26.097      863.936
07/31/2014  22:04:00      -97.831      123.977      -30.196       51.936       49.943       37.286     2697.381     2494.343     1390.231        1.622        0.329      157.928       27.359        0.030      347.303       26.174      863.944
07/31/2014  22:05:00     -107.905      145.590      -26.022       72.310       55.261       35.857     5228.757     3053.757     1285.708        2.154        0.478      181.218       33.329        0.034      347.290       26.151      863.939
07/31/2014  22:06:00     -145.260      150.387      -31.049       55.702       51.296       31.227     3102.670     2631.278      975.107        2.569        0.335      209.086       28.275        0.018      347.314       26.191      863.918
07/31/2014  22:07:00      -95.642      141.944      -22.095       47.761       63.391       30.212     2281.138     4018.387      912.747        1.850        0.361      171.159       28.858        0.028      347.247       26.076      863.919
07/31/2014  22:08:00     -118.554      157.360      -29.162       48.062       64.730       31.522     2309.938     4190.005      993.621        2.358        0.375      197.021       25.681        0.017      347.280       26.133      863.903
07/31/2014  22:09:00     -129.134      192.511      -31.105       39.159       63.402       33.897     1533.410     4019.824     1148.980        3.070        0.335      231.811       29.965        0.017      347.315       26.191      863.897
07/31/2014  22:10:00     -173.179      190.089      -41.342       51.164       85.322       40.847     2617.712     7279.858     1668.451        3.970        0.578      257.148       41.659        0.026      347.326       26.209      863.892
07/31/2014  22:11:00     -203.524      188.745      -57.599       58.020       58.696       36.902     3366.330     3445.180     1361.745        4.427        0.409      277.573       33.678        0.015      347.390       26.321      863.907
07/31/2014  22:12:00     -149.943      153.862      -40.107       52.411       60.947       34.244     2746.941     3714.485     1172.644        2.770        0.382      214.840       28.073        0.017      347.362       26.274      863.904
07/31/2014  22:13:00     -124.394      119.540      -23.327       45.507       53.420       34.610     2070.856     2853.647     1197.877        1.821        0.306      172.521       28.189        0.027      347.342       26.241      863.894
07/31/2014  22:14:00     -109.829       99.187      -15.752       45.020       44.724       32.021     2026.841     2000.248     1025.369        1.360        0.253      147.988       29.491        0.040      347.335       26.228      863.894
07/31/2014  22:15:00      -67.027      101.453      -19.349       46.437       35.675       28.225     2156.365     1272.706      796.653        0.969        0.211      121.595       17.718        0.021      347.250       26.082      863.890
07/31/2014  22:16:00      -89.315      104.340      -13.215       30.183       45.129       24.268      911.002     2036.664      588.930        1.129        0.177      137.346       23.443        0.029      347.249       26.082      863.879
07/31/2014  22:17:00      -92.662       74.047       -8.732       54.194       28.626       26.143     2936.990      819.462      683.445        0.929        0.222      118.613       17.365        0.021      347.200       25.998      863.875
07/31/2014  22:18:00      -54.388       44.640       -9.269       43.310       29.095       20.409     1875.720      846.493      416.539        0.409        0.157       70.362       23.871        0.115      347.132       25.880      863.863
07/31/2014  22:19:00      -82.878       56.397      -13.240       39.783       40.506       24.308     1582.678     1640.772      590.902        0.702        0.191      100.246       22.928        0.052      347.191       25.983      863.860
07/31/2014  22:20:00      -93.543       70.504      -15.464       32.630       24.803       19.759     1064.708      615.205      390.436        0.801        0.104      117.137        9.640        0.007      347.238       26.063      863.870
07/31/2014  22:21:00      -63.973       57.732       -6.325       26.623       25.928       20.629      708.798      672.238      425.558        0.464        0.090       86.172       13.455        0.024      347.136       25.887      863.876
07/31/2014  22:22:00      -99.408       97.343      -22.625       31.881       34.650       21.984     1016.395     1200.656      483.316        1.128        0.135      139.132       15.509        0.012      347.175       25.954      863.876
07/31/2014  22:23:00      -70.343       77.418      -13.992       33.099       27.688       17.681     1095.515      766.639      312.601        0.666        0.109      104.603       15.429        0.022      347.183       25.969      863.879
07/31/2014  22:24:00      -61.660       59.741      -15.651       26.141       20.993       14.230      683.346      440.702      202.498        0.447        0.066       85.854       13.525        0.025      347.266       26.113      863.883
07/31/2014  22:25:00      -13.431       35.024       -3.827       12.518       14.781        9.141      156.689      218.482       83.561        0.094        0.023       37.511        4.903        0.017      347.137       25.888      863.886
07/31/2014  22:26:00      -24.323       42.499       -5.071       19.090       18.096       13.540      364.426      327.482      183.343        0.165        0.044       48.967       14.954        0.093      347.147       25.905      863.895
07/31/2014  22:27:00       18.948       47.898       -0.259       19.920       28.985       12.290      396.807      840.121      151.048        0.202        0.069       51.510       14.320        0.077      347.060       25.755      863.894
07/31/2014  22:28:00       14.018        3.630        0.558       13.871        9.422        9.610      192.406       88.782       92.354        0.029        0.019       14.481        7.731        0.285      346.748       25.218      863.889
07/31/2014  22:29:00       43.784       11.391        3.917       23.086       14.458       10.967      532.963      209.035      120.273        0.146        0.043       45.241       10.342        0.052      346.753       25.228      863.882
07/31/2014  22:30:00       -0.209       11.935       30.058       13.622       21.143       14.858      185.551      447.020      220.763        0.095        0.043       11.937       15.061        1.592      346.601       24.967      863.896
07/31/2014  22:31:00       35.006       29.665       43.359       20.240       17.560       15.192      409.654      308.361      230.797        0.247        0.047       45.885        7.850        0.029      346.542       24.864      863.895
07/31/2014  22:32:00       21.869       12.795       26.937       15.852       14.972       13.811      251.290      224.158      190.733        0.102        0.033       25.337        8.466        0.112      346.521       24.827      863.896
07/31/2014  22:33:00       10.599       -0.594        8.730       25.201       20.911       14.533      635.091      437.279      211.221        0.074        0.064       10.615       10.797        1.035      346.558       24.892      863.902
07/31/2014  22:34:00        8.662      -71.412      -16.970       24.687       25.101       15.066      609.472      630.056      226.981        0.346        0.073       71.935       13.982        0.038      346.596       24.957      863.926
07/31/2014  22:35:00      -34.360      -46.428       -5.420       33.025       28.443       19.184     1090.665      809.030      368.014        0.282        0.113       57.760       10.779        0.035      346.642       25.035      863.923
07/31/2014  22:36:00      -25.640      -79.264       -6.374       38.268       42.425       29.068     1464.454     1799.911      844.960        0.554        0.205       83.308       24.673        0.088      346.716       25.163      863.915
07/31/2014  22:37:00      -18.961      -42.458        1.512       16.122       15.899       12.248      259.923      252.772      150.018        0.141        0.033       46.500        8.803        0.036      346.697       25.131      863.919
07/31/2014  22:38:00      -43.222      -34.609        1.246       24.852       23.630       12.558      617.603      558.374      157.714        0.220        0.067       55.371        7.773        0.020      346.729       25.186      863.936
07/31/2014  22:39:00      -36.624      -82.384        2.625       30.200       36.517       19.132      912.015     1333.520      366.048        0.537        0.131       90.158       19.922        0.049      346.822       25.347      863.935
07/31/2014  22:40:00      -31.554      -56.606       11.656       32.773       42.710       19.485     1074.072     1824.115      379.658        0.381        0.164       64.807       19.538        0.091      346.794       25.298      863.925
07/31/2014  22:41:00      -57.876      -57.269        3.179       44.387       28.285       21.225     1970.233      800.019      450.489        0.493        0.161       81.421       22.909        0.079      346.643       25.039      863.916
07/31/2014  22:42:00      -38.173      -73.264        5.681       23.723       47.690       15.140      562.792     2274.380      229.232        0.496        0.153       82.612       15.919        0.037      346.893       25.468      863.895
07/31/2014  22:43:00      -59.461      -40.520        3.734       21.106       21.898       11.531      445.484      479.513      132.953        0.312        0.053       71.955       10.644        0.022      346.747       25.216      863.879
07/31/2014  22:44:00      -61.928      -38.805        1.276       27.679       23.610       14.456      766.146      557.452      208.984        0.344        0.077       73.081       13.816        0.036      346.684       25.109      863.881
07/31/2014  22:45:00     -101.163      -46.543       -3.602       40.086       29.140       17.801     1606.894      849.127      316.878        0.759        0.139      111.356       16.490        0.022      346.645       25.041      863.889
07/31/2014  22:46:00     -170.686      -56.905       -4.119       30.141       38.087       16.412      908.484     1450.642      269.352        1.751        0.131      179.922       12.864        0.005      346.622       25.001      863.902
07/31/2014  22:47:00     -144.643      -49.864        2.710       64.241       63.123       32.689     4126.912     3984.546     1068.578        1.630        0.459      152.997       35.808        0.055      346.395       24.609      863.924
07/31/2014  22:48:00     -177.562      -45.572       10.481       79.356       64.344       36.846     6297.403     4140.155     1357.604        2.275        0.590      183.317       37.510        0.042      346.366       24.558      863.936
07/31/2014  22:49:00     -105.887      -45.307        3.211       63.774       50.979       32.719     4067.103     2598.821     1070.547        1.050        0.387      115.173       29.753        0.067      346.573       24.918      863.929
07/31/2014  22:50:00      -90.059      -17.450       -0.178       62.494       33.078       21.591     3905.479     1094.171      466.189        0.694        0.273       91.734       24.925        0.074      346.491       24.775      863.903
07/31/2014  22:51:00     -138.085      -54.704       -0.888       82.496       63.879       36.197     6805.552     4080.525     1310.256        1.713        0.610      148.526       36.612        0.061      346.383       24.591      863.911
07/31/2014  22:52:00     -124.585      -83.602        4.565       75.518       61.270       34.102     5702.984     3754.004     1162.948        1.657        0.531      150.036       34.135        0.052      346.792       25.294      863.904
07/31/2014  22:53:00     -112.430      -27.354       -2.061       55.645       56.048       27.500     3096.373     3141.379      756.247        1.019        0.350      115.710       27.731        0.057      346.753       25.229      863.891
07/31/2014  22:54:00     -178.633      -59.259       -3.592       48.359       42.185       22.694     2338.616     1779.552      515.030        2.003        0.232      188.205       14.064        0.006      346.637       25.026      863.885
07/31/2014  22:55:00     -151.026      -81.320        4.671       70.042       60.333       32.750     4905.875     3640.046     1072.535        1.953        0.481      171.528       32.854        0.037      346.583       24.934      863.889
07/31/2014  22:56:00      -57.836      -31.235        5.057       42.312       33.799       21.253     1790.279     1142.340      451.700        0.386        0.169       65.732       22.516        0.117      346.632       25.019      863.884
07/31/2014  22:57:00     -101.244      -32.664       -3.570       45.607       27.512       21.296     2080.040      756.932      453.508        0.731        0.165      106.382       23.135        0.047      346.723       25.177      863.868
07/31/2014  22:58:00      -42.066      -52.372        8.306       43.080       35.419       21.689     1855.882     1254.524      470.409        0.408        0.179       67.174       22.608        0.113      346.590       24.947      863.850
07/31/2014  22:59:00     -116.585      -62.264        0.422       41.378       21.916       17.143     1712.124      480.319      293.873        0.998        0.124      132.170       14.026        0.011      346.625       25.007      863.855
07/31/2014  23:00:00     -100.475      -34.028        2.835       37.250       26.288       17.507     1387.573      691.077      306.499        0.682        0.119      106.081       18.710        0.031      346.589       24.944      863.849
07/31/2014  23:01:00      -71.194      -22.736        1.968       44.702       27.752       16.207     1998.284      770.161      262.663        0.431        0.152       74.737       17.095        0.052      346.485       24.767      863.833
07/31/2014  23:02:00      -84.638      -27.190        2.788       37.680       25.372       17.129     1419.807      643.745      293.402        0.513        0.118       88.898       15.074        0.029      346.555       24.887      863.818
07/31/2014  23:03:00      -83.838      -26.029       -4.460       29.113       29.749       17.256      847.581      885.007      297.781        0.488        0.102       87.786       18.622        0.045      346.591       24.948      863.831
07/31/2014  23:04:00      -68.537      -15.382       -3.008       21.291       17.462       10.168      453.321      304.931      103.378        0.290        0.043       70.242        8.132        0.013      346.607       24.976      863.827
07/31/2014  23:05:00      -39.474        9.299        1.603       16.051       19.359        8.798      257.627      374.783       77.397        0.118        0.035       40.555        7.827        0.037      346.542       24.864      863.822
07/31/2014  23:06:00       -2.987       43.124       -2.557       28.907       19.168       11.159      835.633      367.400      124.526        0.160        0.066       43.228        9.294        0.046      346.619       24.998      863.818
07/31/2014  23:07:00      -10.151       62.104      -11.156       24.691       13.604       11.669      609.653      185.077      136.173        0.251        0.047       62.928        5.789        0.008      346.598       24.961      863.826
07/31/2014  23:08:00       17.026       71.434      -14.479       23.364       11.662       10.183      545.884      135.991      103.698        0.319        0.039       73.435        4.840        0.004      346.574       24.919      863.831
07/31/2014  23:09:00       -2.761       62.142       -9.976       17.009       17.483       11.905      289.303      305.661      141.732        0.235        0.037       62.204        7.769        0.016      346.615       24.989      863.830
07/31/2014  23:10:00      -14.197       53.036       -5.536       20.048       24.935       12.460      401.918      621.767      155.256        0.211        0.059       54.903        9.384        0.029      346.683       25.108      863.834
07/31/2014  23:11:00       31.368       23.317       11.742       32.123       15.242       12.567     1031.865      232.333      157.935        0.154        0.071       39.084       12.921        0.109      346.524       24.835      863.847
07/31/2014  23:12:00        5.428       26.831       15.022       24.731       17.554       19.345      611.619      308.150      374.221        0.113        0.065       27.374       11.414        0.174      346.400       24.620      863.839
07/31/2014  23:13:00       -0.089       35.237       12.308       31.733       15.476       15.756     1006.983      239.516      248.239        0.144        0.075       35.237       16.104        0.209      346.464       24.731      863.829
07/31/2014  23:14:00       60.350       25.537        0.459       17.324       14.317       15.347      300.110      204.976      235.541        0.252        0.037       65.531        8.359        0.016      346.082       24.072      863.823
07/31/2014  23:15:00       35.094       25.942        0.474       18.371       14.363       15.036      337.512      206.282      226.084        0.134        0.038       43.642       10.088        0.053      346.099       24.103      863.839
07/31/2014  23:16:00       31.217       38.719        5.331       14.870       12.133       11.548      221.116      147.212      133.364        0.150        0.025       49.736        9.933        0.040      346.256       24.373      863.848
07/31/2014  23:17:00      -30.671       -8.327       -0.250        8.790       12.554       11.177       77.262      157.612      124.930        0.068        0.018       31.782        9.451        0.088      346.115       24.132      863.838
07/31/2014  23:18:00       -1.127      -23.322       -7.182       17.250        9.733        7.299      297.571       94.729       53.278        0.052        0.022       23.349        7.181        0.095      346.073       24.058      863.811
07/31/2014  23:19:00        6.187       -7.442        2.166        8.928       15.991       11.968       79.711      255.720      143.223        0.029        0.024        9.678       10.256        1.123      346.057       24.030      863.796
07/31/2014  23:20:00       -3.747      -23.429       -2.630        7.395       16.972        7.178       54.684      288.043       51.528        0.048        0.020       23.727        3.942        0.028      346.192       24.263      863.794
07/31/2014  23:21:00       62.107       14.069        7.590       29.307       12.852       12.506      858.890      165.186      156.403        0.265        0.059       63.680       10.343        0.026      346.195       24.269      863.774
07/31/2014  23:22:00       37.233      -23.556        6.500       30.497       25.081        8.478      930.069      629.063       71.881        0.181        0.082       44.059        6.919        0.025      346.379       24.583      863.744
07/31/2014  23:23:00      -26.740      -24.539        1.354       20.014       10.656        9.658      400.541      113.557       93.285        0.096        0.030       36.293        1.598        0.002      346.285       24.423      863.732
07/31/2014  23:24:00      -18.459      -40.054       -2.682       27.248       25.268       17.704      742.479      638.469      313.431        0.182        0.085       44.103       15.492        0.123      346.025       23.975      863.723
07/31/2014  23:25:00      -43.700      -99.500       -8.104       28.971       12.654        9.977      839.325      160.121       99.535        0.649        0.055      108.673        5.434        0.003      346.586       24.942      863.734
07/31/2014  23:26:00      -72.321      -65.311        3.198       37.595       31.421       17.659     1413.419      987.278      311.845        0.611        0.136       97.447       17.380        0.032      346.436       24.681      863.729
07/31/2014  23:27:00     -103.849      -66.954       -2.404       37.054       39.074       18.774     1372.972     1526.802      352.471        0.926        0.163      123.562       15.655        0.016      346.319       24.481      863.738
07/31/2014  23:28:00      -57.426      -48.079        7.483       47.747       42.010       29.538     2279.801     1764.859      872.504        0.529        0.246       74.895       28.022        0.140      346.232       24.331      863.740
07/31/2014  23:29:00      -45.957      -42.329        3.195       37.380       28.856       20.810     1397.268      832.665      433.070        0.329        0.133       62.480       19.246        0.095      346.239       24.343      863.745
07/31/2014  23:30:00      -82.298      -36.407       -3.762       24.680       17.704       14.784      609.096      313.428      218.580        0.463        0.057       89.991       10.148        0.013      346.273       24.400      863.751
07/31/2014  23:31:00      -41.115      -53.271        5.629       27.528       27.181       16.417      757.816      738.796      269.502        0.316        0.088       67.292       15.141        0.051      346.197       24.273      863.753
07/31/2014  23:32:00      -65.220      -33.898       -3.047       14.215       16.545        9.763      202.066      273.752       95.321        0.299        0.029       73.503        7.926        0.012      346.318       24.479      863.731
07/31/2014  23:33:00      -59.479       28.940        0.150       14.021       15.795        6.043      196.588      249.490       36.517        0.243        0.024       66.146        5.359        0.007      346.275       24.406      863.730
07/31/2014  23:34:00      -64.915        3.489       -2.687       11.178       20.436        6.368      124.950      417.640       40.556        0.241        0.029       65.008        5.092        0.006      346.532       24.847      863.727
07/31/2014  23:35:00      -51.931       -5.138        0.996       22.802       21.997        9.931      519.949      483.882       98.618        0.191        0.055       52.185       11.536        0.049      346.265       24.388      863.731
07/31/2014  23:36:00      -45.331       41.544       -3.410       19.156       22.482       12.934      366.944      505.457      167.280        0.242        0.052       61.488       10.509        0.029      346.091       24.089      863.718
07/31/2014  23:37:00      -83.371       12.415       -1.376       16.867       14.713        6.753      284.492      216.485       45.604        0.383        0.027       84.290        5.877        0.005      346.242       24.348      863.721
07/31/2014  23:38:00      -14.674        6.758       -1.683       17.352       15.319        9.929      301.083      234.669       98.580        0.045        0.032       16.156        7.593        0.221      346.081       24.072      863.726
07/31/2014  23:39:00      -45.278        9.569        2.922       22.090       22.318       13.723      487.952      498.089      188.325        0.166        0.059       46.278        6.075        0.017      346.337       24.512      863.709
07/31/2014  23:40:00      -28.730       12.741        4.980       20.413       16.552       11.767      416.710      273.983      138.455        0.092        0.041       31.429        6.340        0.041      346.279       24.411      863.710
07/31/2014  23:41:00      -37.270        5.292       -0.875       17.720       12.973        9.740      313.984      168.291       94.865        0.100        0.029       37.644        7.541        0.040      346.323       24.487      863.703
07/31/2014  23:42:00       -6.587      -18.532        2.497        7.437       14.365        6.584       55.313      206.361       43.351        0.035        0.015       19.668        6.729        0.117      346.296       24.441      863.700
07/31/2014  23:43:00        1.195       -5.212       -3.060       12.834        8.886        6.153      164.706       78.964       37.863        0.016        0.014        5.347        7.325        1.877      346.339       24.514      863.701
07/31/2014  23:44:00        9.964        7.019        0.416       10.768        8.440        7.287      115.949       71.228       53.099        0.019        0.012       12.187        4.960        0.166      346.119       24.134      863.691
07/31/2014  23:45:00       22.043       -3.251       -0.518        8.330        5.831        5.884       69.385       33.997       34.621        0.032        0.007       22.281        3.342        0.022      346.368       24.561      863.707
07/31/2014  23:46:00       26.973       -6.531        0.162       14.524       12.468       11.369      210.944      155.454      129.247        0.063        0.025       27.753        9.168        0.109      346.038       23.999      863.718
07/31/2014  23:47:00       25.311       10.775        4.910       12.720       12.850       12.087      161.787      165.132      146.104        0.063        0.024       27.509       10.686        0.151      345.953       23.854      863.722
07/31/2014  23:48:00       30.272       12.107        4.024        8.000        8.637        7.781       63.998       74.601       60.546        0.064        0.010       32.603        3.938        0.015      345.997       23.927      863.723
07/31/2014  23:49:00       66.835       32.431       11.471       14.430       10.792        7.943      208.222      116.476       63.091        0.302        0.019       74.288        5.157        0.005      345.907       23.775      863.706
07/31/2014  23:50:00       68.266       20.972       10.598       17.495       15.487       12.881      306.079      239.858      165.914        0.296        0.036       71.415       10.392        0.021      345.918       23.794      863.708
07/31/2014  23:51:00       16.240       28.608       24.812       18.624       13.399       14.270      346.843      179.523      203.645        0.121        0.037       32.896       14.083        0.183      345.823       23.628      863.727
07/31/2014  23:52:00        2.549       17.169       31.397       14.928       12.958       11.748      222.843      167.910      138.020        0.091        0.026       17.357       10.376        0.357      345.869       23.709      863.745
07/31/2014  23:53:00       -5.187        6.891       25.328        9.765       21.016        9.620       95.362      441.684       92.545        0.067        0.031        8.625        7.466        0.749      345.807       23.601      863.746
07/31/2014  23:54:00       -2.479      -22.548        8.432       12.975       17.697       15.004      168.338      313.188      225.130        0.065        0.035       22.684        9.565        0.178      345.905       23.770      863.754
07/31/2014  23:55:00        2.074      -47.146        0.349       25.418       20.373       15.734      646.086      415.045      247.546        0.177        0.065       47.191        9.791        0.043      346.011       23.951      863.771
07/31/2014  23:56:00       13.565       45.193       55.430       25.685       45.968       30.228      659.734     2113.072      913.746        0.449        0.184       47.185       34.706        0.541      345.850       23.675      863.780
07/31/2014  23:57:00       23.745       67.847       85.293       40.130       36.695       15.761     1610.378     1346.512      248.412        0.782        0.160       71.882       14.676        0.042      345.797       23.585      863.769
07/31/2014  23:58:00       42.539       59.402       73.496       39.398       32.659       21.306     1552.209     1066.626      453.925        0.691        0.154       73.062       10.848        0.022      345.879       23.725      863.772
07/31/2014  23:59:00       62.267       42.090       28.315       35.363       24.747       22.810     1250.510      612.434      520.313        0.442        0.119       75.158       14.192        0.036      345.842       23.662      863.802
